Wetterdaten: Montag, 22.02.2016
Datum Zeit Temp. A. Feuchte A. Luftdruck Regen Wind Richtung Richtung Sonnenschein ET UV Solar Taupunkt Windchill Windben Empfang
22.02.2016 00:00 10,0 C 75 % 1013,4 hPa 0,0 l/m 9,7 km/h (2 Bft) SW 219 0 min 0,000 mm 0,0 UV-I 0 W/m 5,8 C 7,8 C 17,7 km/h (3 Bft) 100,00 %
22.02.2016 00:02 10,0 C 75 % 1013,4 hPa 0,0 l/m 10,3 km/h (2 Bft) W-SW 240 0 min 0,000 mm 0,0 UV-I 0 W/m 5,8 C 7,4 C 14,5 km/h (3 Bft) 97,22 %
22.02.2016 00:03 9,9 C 76 % 1013,4 hPa 0,0 l/m 11,3 km/h (2 Bft) W-SW 240 0 min 0,000 mm 0,0 UV-I 0 W/m 5,9 C 6,8 C 16,1 km/h (3 Bft) 100,00 %
22.02.2016 00:04 9,9 C 76 % 1013,4 hPa 0,0 l/m 12,3 km/h (3 Bft) S-SW 212 0 min 0,000 mm 0,0 UV-I 0 W/m 5,9 C 6,2 C 16,1 km/h (3 Bft) 96,55 %
22.02.2016 00:05 9,9 C 76 % 1013,4 hPa 0,0 l/m 13,0 km/h (3 Bft) SW 227 0 min 0,000 mm 0,0 UV-I 0 W/m 5,9 C 5,9 C 17,7 km/h (3 Bft) 100,00 %
22.02.2016 00:06 9,9 C 76 % 1013,4 hPa 0,0 l/m 14,2 km/h (3 Bft) W-SW 238 0 min 0,000 mm 0,0 UV-I 0 W/m 5,9 C 5,4 C 19,3 km/h (3 Bft) 100,00 %
22.02.2016 00:07 9,9 C 76 % 1013,4 hPa 0,0 l/m 13,0 km/h (3 Bft) W-SW 250 0 min 0,000 mm 0,0 UV-I 0 W/m 5,9 C 5,9 C 17,7 km/h (3 Bft) 100,00 %
22.02.2016 00:08 9,9 C 76 % 1013,4 hPa 0,0 l/m 11,7 km/h (2 Bft) W-SW 238 0 min 0,000 mm 0,0 UV-I 0 W/m 5,9 C 6,6 C 14,5 km/h (3 Bft) 100,00 %
22.02.2016 00:09 9,9 C 76 % 1013,4 hPa 0,0 l/m 11,4 km/h (2 Bft) W-SW 238 0 min 0,000 mm 0,0 UV-I 0 W/m 5,9 C 6,7 C 16,1 km/h (3 Bft) 93,75 %
22.02.2016 00:10 9,9 C 76 % 1013,4 hPa 0,0 l/m 11,3 km/h (2 Bft) SW 217 0 min 0,000 mm 0,0 UV-I 0 W/m 5,9 C 6,8 C 16,1 km/h (3 Bft) 95,65 %
22.02.2016 00:11 9,9 C 76 % 1013,3 hPa 0,0 l/m 11,5 km/h (2 Bft) W-SW 246 0 min 0,000 mm 0,0 UV-I 0 W/m 5,9 C 6,7 C 14,5 km/h (3 Bft) 96,00 %
22.02.2016 00:12 9,9 C 76 % 1013,3 hPa 0,0 l/m 10,1 km/h (2 Bft) SW 221 0 min 0,000 mm 0,0 UV-I 0 W/m 5,9 C 7,4 C 14,5 km/h (3 Bft) 100,00 %
22.02.2016 00:13 9,9 C 76 % 1013,3 hPa 0,0 l/m 10,1 km/h (2 Bft) W 259 0 min 0,000 mm 0,0 UV-I 0 W/m 5,9 C 7,4 C 12,9 km/h (3 Bft) 100,00 %
22.02.2016 00:14 9,8 C 76 % 1013,3 hPa 0,0 l/m 11,5 km/h (2 Bft) W-SW 250 0 min 0,000 mm 0,0 UV-I 0 W/m 5,8 C 6,5 C 19,3 km/h (3 Bft) 100,00 %
22.02.2016 00:15 9,8 C 76 % 1013,3 hPa 0,0 l/m 11,4 km/h (2 Bft) SW 223 0 min 0,000 mm 0,0 UV-I 0 W/m 5,8 C 6,6 C 16,1 km/h (3 Bft) 100,00 %
22.02.2016 00:16 9,8 C 76 % 1013,3 hPa 0,0 l/m 14,2 km/h (3 Bft) W-SW 253 0 min 0,000 mm 0,0 UV-I 0 W/m 5,8 C 5,2 C 17,7 km/h (3 Bft) 100,00 %
22.02.2016 00:17 9,8 C 77 % 1013,3 hPa 0,0 l/m 11,4 km/h (2 Bft) W-SW 242 0 min 0,000 mm 0,0 UV-I 0 W/m 6,0 C 6,6 C 16,1 km/h (3 Bft) 96,15 %
22.02.2016 00:18 9,8 C 77 % 1013,3 hPa 0,0 l/m 10,7 km/h (2 Bft) W-SW 239 0 min 0,000 mm 0,0 UV-I 0 W/m 6,0 C 7,0 C 16,1 km/h (3 Bft) 100,00 %
22.02.2016 00:19 9,8 C 77 % 1013,3 hPa 0,0 l/m 11,3 km/h (2 Bft) SW 232 0 min 0,000 mm 0,0 UV-I 0 W/m 6,0 C 6,6 C 17,7 km/h (3 Bft) 100,00 %
22.02.2016 00:20 9,8 C 77 % 1013,3 hPa 0,0 l/m 14,5 km/h (3 Bft) W 264 0 min 0,000 mm 0,0 UV-I 0 W/m 6,0 C 5,1 C 19,3 km/h (3 Bft) 100,00 %
22.02.2016 00:21 9,9 C 77 % 1013,2 hPa 0,0 l/m 16,3 km/h (3 Bft) W-SW 254 0 min 0,000 mm 0,0 UV-I 0 W/m 6,1 C 4,5 C 22,5 km/h (4 Bft) 100,00 %
22.02.2016 00:22 9,9 C 77 % 1013,2 hPa 0,0 l/m 14,1 km/h (3 Bft) W-SW 241 0 min 0,000 mm 0,0 UV-I 0 W/m 6,1 C 5,4 C 17,7 km/h (3 Bft) 100,00 %
22.02.2016 00:23 10,0 C 77 % 1013,2 hPa 0,0 l/m 14,7 km/h (3 Bft) W-SW 252 0 min 0,000 mm 0,0 UV-I 0 W/m 6,2 C 5,3 C 20,9 km/h (4 Bft) 95,65 %
22.02.2016 00:24 10,1 C 77 % 1013,2 hPa 0,0 l/m 15,6 km/h (3 Bft) W-SW 240 0 min 0,000 mm 0,0 UV-I 0 W/m 6,3 C 5,0 C 20,9 km/h (4 Bft) 100,00 %
22.02.2016 00:25 10,1 C 77 % 1013,2 hPa 0,0 l/m 15,8 km/h (3 Bft) W-SW 242 0 min 0,000 mm 0,0 UV-I 0 W/m 6,3 C 4,9 C 20,9 km/h (4 Bft) 100,00 %
22.02.2016 00:26 10,2 C 76 % 1013,2 hPa 0,0 l/m 13,4 km/h (3 Bft) W 261 0 min 0,000 mm 0,0 UV-I 0 W/m 6,2 C 6,1 C 17,7 km/h (3 Bft) 100,00 %
22.02.2016 00:27 10,2 C 76 % 1013,1 hPa 0,0 l/m 13,5 km/h (3 Bft) W-SW 257 0 min 0,000 mm 0,0 UV-I 0 W/m 6,2 C 6,0 C 20,9 km/h (4 Bft) 100,00 %
22.02.2016 00:28 10,3 C 76 % 1013,1 hPa 0,0 l/m 16,5 km/h (3 Bft) W-SW 249 0 min 0,000 mm 0,0 UV-I 0 W/m 6,3 C 4,9 C 22,5 km/h (4 Bft) 100,00 %
22.02.2016 00:29 10,3 C 76 % 1013,2 hPa 0,0 l/m 13,3 km/h (3 Bft) W-SW 255 0 min 0,000 mm 0,0 UV-I 0 W/m 6,3 C 6,2 C 16,1 km/h (3 Bft) 100,00 %
22.02.2016 00:30 10,3 C 76 % 1013,2 hPa 0,0 l/m 10,8 km/h (2 Bft) W-SW 252 0 min 0,000 mm 0,0 UV-I 0 W/m 6,3 C 7,5 C 14,5 km/h (3 Bft) 100,00 %
22.02.2016 00:31 10,3 C 76 % 1013,1 hPa 0,0 l/m 14,6 km/h (3 Bft) W 259 0 min 0,000 mm 0,0 UV-I 0 W/m 6,3 C 5,7 C 17,7 km/h (3 Bft) 100,00 %
22.02.2016 00:32 10,4 C 76 % 1013,1 hPa 0,0 l/m 13,3 km/h (3 Bft) W-SW 257 0 min 0,000 mm 0,0 UV-I 0 W/m 6,4 C 6,4 C 17,7 km/h (3 Bft) 100,00 %
22.02.2016 00:33 10,4 C 76 % 1013,1 hPa 0,0 l/m 13,7 km/h (3 Bft) W-SW 252 0 min 0,000 mm 0,0 UV-I 0 W/m 6,4 C 6,2 C 20,9 km/h (4 Bft) 100,00 %
22.02.2016 00:34 10,4 C 76 % 1013,1 hPa 0,0 l/m 17,5 km/h (3 Bft) W 264 0 min 0,000 mm 0,0 UV-I 0 W/m 6,4 C 4,7 C 22,5 km/h (4 Bft) 100,00 %
22.02.2016 00:35 10,4 C 76 % 1013,1 hPa 0,0 l/m 12,9 km/h (3 Bft) W 260 0 min 0,000 mm 0,0 UV-I 0 W/m 6,4 C 6,5 C 16,1 km/h (3 Bft) 100,00 %
22.02.2016 00:36 10,4 C 76 % 1013,1 hPa 0,0 l/m 11,9 km/h (2 Bft) W-SW 251 0 min 0,000 mm 0,0 UV-I 0 W/m 6,4 C 7,0 C 16,1 km/h (3 Bft) 93,33 %
22.02.2016 00:37 10,5 C 76 % 1013,2 hPa 0,0 l/m 10,9 km/h (2 Bft) SW 229 0 min 0,000 mm 0,0 UV-I 0 W/m 6,5 C 7,7 C 16,1 km/h (3 Bft) 100,00 %
22.02.2016 00:38 10,5 C 76 % 1013,2 hPa 0,0 l/m 11,9 km/h (2 Bft) W-SW 242 0 min 0,000 mm 0,0 UV-I 0 W/m 6,5 C 7,1 C 16,1 km/h (3 Bft) 100,00 %
22.02.2016 00:39 10,5 C 76 % 1013,2 hPa 0,0 l/m 11,8 km/h (2 Bft) SW 234 0 min 0,000 mm 0,0 UV-I 0 W/m 6,5 C 7,2 C 16,1 km/h (3 Bft) 95,83 %
22.02.2016 00:40 10,4 C 76 % 1013,2 hPa 0,0 l/m 12,3 km/h (3 Bft) W-SW 258 0 min 0,000 mm 0,0 UV-I 0 W/m 6,4 C 6,8 C 16,1 km/h (3 Bft) 95,65 %
22.02.2016 00:41 10,4 C 76 % 1013,2 hPa 0,0 l/m 10,9 km/h (2 Bft) W-SW 237 0 min 0,000 mm 0,0 UV-I 0 W/m 6,4 C 7,5 C 16,1 km/h (3 Bft) 95,83 %
22.02.2016 00:42 10,4 C 75 % 1013,2 hPa 0,0 l/m 8,9 km/h (2 Bft) W-SW 245 0 min 0,000 mm 0,0 UV-I 0 W/m 6,2 C 8,7 C 12,9 km/h (3 Bft) 100,00 %
22.02.2016 00:43 10,4 C 75 % 1013,2 hPa 0,0 l/m 11,0 km/h (2 Bft) SW 219 0 min 0,000 mm 0,0 UV-I 0 W/m 6,2 C 7,5 C 14,5 km/h (3 Bft) 93,33 %
22.02.2016 00:44 10,3 C 76 % 1013,2 hPa 0,0 l/m 10,9 km/h (2 Bft) W-SW 258 0 min 0,000 mm 0,0 UV-I 0 W/m 6,3 C 7,4 C 17,7 km/h (3 Bft) 97,56 %
22.02.2016 00:45 10,3 C 76 % 1013,2 hPa 0,0 l/m 12,1 km/h (2 Bft) W-SW 238 0 min 0,000 mm 0,0 UV-I 0 W/m 6,3 C 6,8 C 17,7 km/h (3 Bft) 100,00 %
22.02.2016 00:46 10,3 C 76 % 1013,2 hPa 0,0 l/m 11,7 km/h (2 Bft) W 260 0 min 0,000 mm 0,0 UV-I 0 W/m 6,3 C 7,0 C 16,1 km/h (3 Bft) 91,30 %
22.02.2016 00:47 10,3 C 76 % 1013,2 hPa 0,0 l/m 11,6 km/h (2 Bft) SW 230 0 min 0,000 mm 0,0 UV-I 0 W/m 6,3 C 7,1 C 17,7 km/h (3 Bft) 100,00 %
22.02.2016 00:48 10,3 C 76 % 1013,2 hPa 0,0 l/m 11,9 km/h (2 Bft) SW 223 0 min 0,000 mm 0,0 UV-I 0 W/m 6,3 C 6,9 C 16,1 km/h (3 Bft) 95,65 %
22.02.2016 00:49 10,3 C 76 % 1013,3 hPa 0,0 l/m 10,4 km/h (2 Bft) SW 232 0 min 0,000 mm 0,0 UV-I 0 W/m 6,3 C 7,7 C 14,5 km/h (3 Bft) 100,00 %
22.02.2016 00:50 10,2 C 76 % 1013,3 hPa 0,0 l/m 9,7 km/h (2 Bft) W-SW 244 0 min 0,000 mm 0,0 UV-I 0 W/m 6,2 C 8,0 C 16,1 km/h (3 Bft) 96,15 %
22.02.2016 00:51 10,2 C 76 % 1013,3 hPa 0,0 l/m 14,0 km/h (3 Bft) W-SW 242 0 min 0,000 mm 0,0 UV-I 0 W/m 6,2 C 5,8 C 20,9 km/h (4 Bft) 100,00 %
22.02.2016 00:52 10,2 C 76 % 1013,3 hPa 0,0 l/m 13,8 km/h (3 Bft) SW 223 0 min 0,000 mm 0,0 UV-I 0 W/m 6,2 C 5,9 C 19,3 km/h (3 Bft) 96,15 %
22.02.2016 00:53 10,1 C 76 % 1013,3 hPa 0,0 l/m 14,0 km/h (3 Bft) SW 234 0 min 0,000 mm 0,0 UV-I 0 W/m 6,1 C 5,7 C 17,7 km/h (3 Bft) 96,30 %
22.02.2016 00:54 10,1 C 77 % 1013,3 hPa 0,0 l/m 16,4 km/h (3 Bft) SW 230 0 min 0,000 mm 0,0 UV-I 0 W/m 6,3 C 4,7 C 20,9 km/h (4 Bft) 100,00 %
22.02.2016 00:55 10,1 C 77 % 1013,3 hPa 0,0 l/m 15,4 km/h (3 Bft) S-SW 213 0 min 0,000 mm 0,0 UV-I 0 W/m 6,3 C 5,1 C 20,9 km/h (4 Bft) 93,33 %
22.02.2016 00:56 10,1 C 77 % 1013,3 hPa 0,0 l/m 15,8 km/h (3 Bft) SW 227 0 min 0,000 mm 0,0 UV-I 0 W/m 6,3 C 4,9 C 20,9 km/h (4 Bft) 100,00 %
22.02.2016 00:57 10,2 C 77 % 1013,3 hPa 0,0 l/m 12,9 km/h (3 Bft) W-SW 243 0 min 0,000 mm 0,0 UV-I 0 W/m 6,4 C 6,3 C 17,7 km/h (3 Bft) 96,15 %
22.02.2016 00:58 10,2 C 77 % 1013,3 hPa 0,0 l/m 12,7 km/h (3 Bft) W-SW 253 0 min 0,000 mm 0,0 UV-I 0 W/m 6,4 C 6,4 C 19,3 km/h (3 Bft) 100,00 %
22.02.2016 00:59 10,2 C 77 % 1013,3 hPa 0,0 l/m 12,7 km/h (3 Bft) SW 236 0 min 0,000 mm 0,0 UV-I 0 W/m 6,4 C 6,4 C 16,1 km/h (3 Bft) 95,65 %
22.02.2016 01:00 10,2 C 77 % 1013,3 hPa 0,0 l/m 11,9 km/h (2 Bft) W-SW 255 0 min 0,025 mm 0,0 UV-I 0 W/m 6,4 C 6,8 C 14,5 km/h (3 Bft) 100,00 %
22.02.2016 01:01 10,2 C 77 % 1013,3 hPa 0,0 l/m 13,4 km/h (3 Bft) SW 219 0 min 0,000 mm 0,0 UV-I 0 W/m 6,4 C 6,1 C 17,7 km/h (3 Bft) 95,65 %
22.02.2016 01:02 10,3 C 78 % 1013,3 hPa 0,0 l/m 14,3 km/h (3 Bft) SW 225 0 min 0,000 mm 0,0 UV-I 0 W/m 6,6 C 5,8 C 20,9 km/h (4 Bft) 100,00 %
22.02.2016 01:03 10,3 C 78 % 1013,3 hPa 0,0 l/m 11,4 km/h (2 Bft) SW 230 0 min 0,000 mm 0,0 UV-I 0 W/m 6,6 C 7,2 C 14,5 km/h (3 Bft) 96,55 %
22.02.2016 01:04 10,3 C 78 % 1013,3 hPa 0,0 l/m 17,1 km/h (3 Bft) W-SW 258 0 min 0,000 mm 0,0 UV-I 0 W/m 6,6 C 4,7 C 24,1 km/h (4 Bft) 100,00 %
22.02.2016 01:05 10,4 C 77 % 1013,3 hPa 0,0 l/m 15,3 km/h (3 Bft) SW 217 0 min 0,000 mm 0,0 UV-I 0 W/m 6,5 C 5,5 C 19,3 km/h (3 Bft) 93,10 %
22.02.2016 01:06 10,4 C 77 % 1013,3 hPa 0,0 l/m 12,5 km/h (3 Bft) W-SW 252 0 min 0,000 mm 0,0 UV-I 0 W/m 6,5 C 6,7 C 17,7 km/h (3 Bft) 100,00 %
22.02.2016 01:07 10,5 C 77 % 1013,3 hPa 0,0 l/m 14,5 km/h (3 Bft) W 259 0 min 0,000 mm 0,0 UV-I 0 W/m 6,6 C 5,9 C 16,1 km/h (3 Bft) 93,10 %
22.02.2016 01:08 10,6 C 77 % 1013,3 hPa 0,0 l/m 14,6 km/h (3 Bft) W-SW 258 0 min 0,000 mm 0,0 UV-I 0 W/m 6,7 C 6,0 C 19,3 km/h (3 Bft) 96,30 %
22.02.2016 01:09 10,6 C 77 % 1013,2 hPa 0,0 l/m 15,1 km/h (3 Bft) S-SW 202 0 min 0,000 mm 0,0 UV-I 0 W/m 6,7 C 5,8 C 19,3 km/h (3 Bft) 100,00 %
22.02.2016 01:10 10,6 C 77 % 1013,2 hPa 0,0 l/m 17,0 km/h (3 Bft) W-SW 250 0 min 0,000 mm 0,0 UV-I 0 W/m 6,7 C 5,1 C 22,5 km/h (4 Bft) 96,55 %
22.02.2016 01:11 10,7 C 77 % 1013,2 hPa 0,0 l/m 16,2 km/h (3 Bft) W 259 0 min 0,000 mm 0,0 UV-I 0 W/m 6,8 C 5,5 C 20,9 km/h (4 Bft) 100,00 %
22.02.2016 01:12 10,7 C 76 % 1013,3 hPa 0,0 l/m 16,9 km/h (3 Bft) SW 227 0 min 0,000 mm 0,0 UV-I 0 W/m 6,6 C 5,2 C 22,5 km/h (4 Bft) 96,15 %
22.02.2016 01:13 10,7 C 77 % 1013,2 hPa 0,0 l/m 12,5 km/h (3 Bft) S-SW 210 0 min 0,000 mm 0,0 UV-I 0 W/m 6,8 C 7,1 C 16,1 km/h (3 Bft) 95,83 %
22.02.2016 01:14 10,7 C 76 % 1013,2 hPa 0,0 l/m 15,3 km/h (3 Bft) W-SW 247 0 min 0,000 mm 0,0 UV-I 0 W/m 6,6 C 5,9 C 20,9 km/h (4 Bft) 100,00 %
22.02.2016 01:15 10,8 C 76 % 1013,2 hPa 0,0 l/m 15,9 km/h (3 Bft) W 261 0 min 0,000 mm 0,0 UV-I 0 W/m 6,7 C 5,7 C 22,5 km/h (4 Bft) 93,33 %
22.02.2016 01:16 10,8 C 76 % 1013,2 hPa 0,0 l/m 15,8 km/h (3 Bft) S-SW 213 0 min 0,000 mm 0,0 UV-I 0 W/m 6,7 C 5,8 C 20,9 km/h (4 Bft) 100,00 %
22.02.2016 01:17 10,7 C 76 % 1013,2 hPa 0,0 l/m 17,3 km/h (3 Bft) W 265 0 min 0,000 mm 0,0 UV-I 0 W/m 6,6 C 5,1 C 20,9 km/h (4 Bft) 96,30 %
22.02.2016 01:18 10,7 C 77 % 1013,2 hPa 0,0 l/m 15,1 km/h (3 Bft) W-SW 242 0 min 0,000 mm 0,0 UV-I 0 W/m 6,8 C 5,9 C 19,3 km/h (3 Bft) 100,00 %
22.02.2016 01:19 10,7 C 77 % 1013,2 hPa 0,0 l/m 15,3 km/h (3 Bft) W 263 0 min 0,000 mm 0,0 UV-I 0 W/m 6,8 C 5,9 C 20,9 km/h (4 Bft) 100,00 %
22.02.2016 01:20 10,7 C 77 % 1013,2 hPa 0,0 l/m 10,4 km/h (2 Bft) W 273 0 min 0,000 mm 0,0 UV-I 0 W/m 6,8 C 8,1 C 14,5 km/h (3 Bft) 96,15 %
22.02.2016 01:21 10,7 C 77 % 1013,2 hPa 0,0 l/m 15,3 km/h (3 Bft) W-SW 245 0 min 0,000 mm 0,0 UV-I 0 W/m 6,8 C 5,9 C 20,9 km/h (4 Bft) 100,00 %
22.02.2016 01:22 10,7 C 77 % 1013,2 hPa 0,0 l/m 15,0 km/h (3 Bft) W-SW 257 0 min 0,000 mm 0,0 UV-I 0 W/m 6,8 C 6,0 C 17,7 km/h (3 Bft) 100,00 %
22.02.2016 01:23 10,7 C 77 % 1013,2 hPa 0,0 l/m 15,2 km/h (3 Bft) W-SW 254 0 min 0,000 mm 0,0 UV-I 0 W/m 6,8 C 5,9 C 20,9 km/h (4 Bft) 100,00 %
22.02.2016 01:24 10,7 C 77 % 1013,2 hPa 0,0 l/m 16,3 km/h (3 Bft) W 267 0 min 0,000 mm 0,0 UV-I 0 W/m 6,8 C 5,5 C 19,3 km/h (3 Bft) 100,00 %
22.02.2016 01:25 10,7 C 77 % 1013,2 hPa 0,0 l/m 15,2 km/h (3 Bft) W-SW 250 0 min 0,000 mm 0,0 UV-I 0 W/m 6,8 C 5,9 C 24,1 km/h (4 Bft) 100,00 %
22.02.2016 01:26 10,7 C 77 % 1013,1 hPa 0,0 l/m 15,8 km/h (3 Bft) W-SW 250 0 min 0,000 mm 0,0 UV-I 0 W/m 6,8 C 5,7 C 22,5 km/h (4 Bft) 96,15 %
22.02.2016 01:27 10,7 C 77 % 1013,1 hPa 0,0 l/m 16,6 km/h (3 Bft) SW 220 0 min 0,000 mm 0,0 UV-I 0 W/m 6,8 C 5,4 C 20,9 km/h (4 Bft) 100,00 %
22.02.2016 01:28 10,7 C 76 % 1013,1 hPa 0,0 l/m 14,4 km/h (3 Bft) W-SW 242 0 min 0,000 mm 0,0 UV-I 0 W/m 6,6 C 6,2 C 22,5 km/h (4 Bft) 100,00 %
22.02.2016 01:29 10,7 C 77 % 1013,1 hPa 0,0 l/m 17,1 km/h (3 Bft) W-SW 239 0 min 0,000 mm 0,0 UV-I 0 W/m 6,8 C 5,2 C 20,9 km/h (4 Bft) 96,55 %
22.02.2016 01:30 10,7 C 76 % 1013,1 hPa 0,0 l/m 17,7 km/h (3 Bft) SW 225 0 min 0,000 mm 0,0 UV-I 0 W/m 6,6 C 5,0 C 24,1 km/h (4 Bft) 100,00 %
22.02.2016 01:31 10,7 C 77 % 1013,1 hPa 0,0 l/m 16,2 km/h (3 Bft) W-SW 254 0 min 0,000 mm 0,0 UV-I 0 W/m 6,8 C 5,5 C 22,5 km/h (4 Bft) 96,30 %
22.02.2016 01:32 10,7 C 77 % 1013,1 hPa 0,0 l/m 18,9 km/h (3 Bft) W-SW 257 0 min 0,000 mm 0,0 UV-I 0 W/m 6,8 C 4,5 C 24,1 km/h (4 Bft) 100,00 %
22.02.2016 01:33 10,7 C 77 % 1013,1 hPa 0,0 l/m 14,0 km/h (3 Bft) W-SW 254 0 min 0,000 mm 0,0 UV-I 0 W/m 6,8 C 6,4 C 19,3 km/h (3 Bft) 96,15 %
22.02.2016 01:34 10,7 C 77 % 1013,1 hPa 0,0 l/m 17,4 km/h (3 Bft) W 270 0 min 0,000 mm 0,0 UV-I 0 W/m 6,8 C 5,1 C 22,5 km/h (4 Bft) 93,33 %
22.02.2016 01:35 10,7 C 77 % 1013,1 hPa 0,0 l/m 22,0 km/h (4 Bft) W-NW 283 0 min 0,000 mm 0,0 UV-I 0 W/m 6,8 C 3,6 C 25,7 km/h (4 Bft) 100,00 %
22.02.2016 01:36 10,7 C 77 % 1013,1 hPa 0,0 l/m 20,6 km/h (4 Bft) W-SW 250 0 min 0,000 mm 0,0 UV-I 0 W/m 6,8 C 4,0 C 27,4 km/h (4 Bft) 100,00 %
22.02.2016 01:37 10,7 C 77 % 1013,0 hPa 0,0 l/m 17,8 km/h (3 Bft) W 267 0 min 0,000 mm 0,0 UV-I 0 W/m 6,8 C 4,9 C 22,5 km/h (4 Bft) 100,00 %
22.02.2016 01:38 10,7 C 77 % 1013,0 hPa 0,0 l/m 15,4 km/h (3 Bft) W-SW 257 0 min 0,000 mm 0,0 UV-I 0 W/m 6,8 C 5,8 C 22,5 km/h (4 Bft) 100,00 %
22.02.2016 01:39 10,7 C 77 % 1013,0 hPa 0,0 l/m 15,1 km/h (3 Bft) W 261 0 min 0,000 mm 0,0 UV-I 0 W/m 6,8 C 5,9 C 17,7 km/h (3 Bft) 96,15 %
22.02.2016 01:40 10,7 C 77 % 1013,0 hPa 0,0 l/m 16,4 km/h (3 Bft) W-NW 287 0 min 0,000 mm 0,0 UV-I 0 W/m 6,8 C 5,4 C 19,3 km/h (3 Bft) 100,00 %
22.02.2016 01:41 10,7 C 77 % 1013,0 hPa 0,0 l/m 15,0 km/h (3 Bft) W-NW 294 0 min 0,000 mm 0,0 UV-I 0 W/m 6,8 C 6,0 C 19,3 km/h (3 Bft) 100,00 %
22.02.2016 01:42 10,7 C 77 % 1013,0 hPa 0,0 l/m 13,5 km/h (3 Bft) W 267 0 min 0,000 mm 0,0 UV-I 0 W/m 6,8 C 6,6 C 19,3 km/h (3 Bft) 100,00 %
22.02.2016 01:43 10,7 C 77 % 1013,0 hPa 0,0 l/m 13,4 km/h (3 Bft) W-SW 254 0 min 0,000 mm 0,0 UV-I 0 W/m 6,8 C 6,7 C 17,7 km/h (3 Bft) 100,00 %
22.02.2016 01:44 10,7 C 77 % 1013,0 hPa 0,0 l/m 12,3 km/h (3 Bft) SW 236 0 min 0,000 mm 0,0 UV-I 0 W/m 6,8 C 7,2 C 16,1 km/h (3 Bft) 100,00 %
22.02.2016 01:45 10,6 C 77 % 1013,0 hPa 0,0 l/m 10,5 km/h (2 Bft) SW 229 0 min 0,000 mm 0,0 UV-I 0 W/m 6,7 C 8,0 C 14,5 km/h (3 Bft) 100,00 %
22.02.2016 01:46 10,6 C 77 % 1013,0 hPa 0,0 l/m 8,5 km/h (2 Bft) W-SW 252 0 min 0,000 mm 0,0 UV-I 0 W/m 6,7 C 9,2 C 11,3 km/h (2 Bft) 100,00 %
22.02.2016 01:47 10,4 C 77 % 1012,9 hPa 0,0 l/m 8,2 km/h (2 Bft) W-SW 254 0 min 0,000 mm 0,0 UV-I 0 W/m 6,5 C 9,1 C 11,3 km/h (2 Bft) 100,00 %
22.02.2016 01:48 10,3 C 77 % 1012,9 hPa 0,0 l/m 9,9 km/h (2 Bft) W-SW 254 0 min 0,000 mm 0,0 UV-I 0 W/m 6,4 C 8,0 C 12,9 km/h (3 Bft) 100,00 %
22.02.2016 01:49 10,2 C 77 % 1012,9 hPa 0,0 l/m 10,4 km/h (2 Bft) W 263 0 min 0,000 mm 0,0 UV-I 0 W/m 6,4 C 7,6 C 12,9 km/h (3 Bft) 100,00 %
22.02.2016 01:50 10,2 C 78 % 1012,9 hPa 0,0 l/m 12,4 km/h (3 Bft) W-SW 242 0 min 0,000 mm 0,0 UV-I 0 W/m 6,5 C 6,5 C 14,5 km/h (3 Bft) 100,00 %
22.02.2016 01:51 10,1 C 78 % 1012,9 hPa 0,0 l/m 12,0 km/h (2 Bft) W-SW 241 0 min 0,000 mm 0,0 UV-I 0 W/m 6,4 C 6,6 C 17,7 km/h (3 Bft) 100,00 %
22.02.2016 01:52 10,1 C 78 % 1012,9 hPa 0,0 l/m 8,5 km/h (2 Bft) SW 235 0 min 0,000 mm 0,0 UV-I 0 W/m 6,4 C 8,6 C 12,9 km/h (3 Bft) 100,00 %
22.02.2016 01:53 10,0 C 78 % 1012,9 hPa 0,0 l/m 7,0 km/h (2 Bft) SW 223 0 min 0,000 mm 0,0 UV-I 0 W/m 6,3 C 9,6 C 9,7 km/h (2 Bft) 100,00 %
22.02.2016 01:54 9,8 C 78 % 1012,9 hPa 0,0 l/m 7,7 km/h (2 Bft) W-SW 246 0 min 0,000 mm 0,0 UV-I 0 W/m 6,1 C 8,9 C 11,3 km/h (2 Bft) 100,00 %
22.02.2016 01:55 9,8 C 78 % 1013,0 hPa 0,0 l/m 8,1 km/h (2 Bft) W-SW 243 0 min 0,000 mm 0,0 UV-I 0 W/m 6,1 C 8,6 C 12,9 km/h (3 Bft) 100,00 %
22.02.2016 01:56 9,7 C 78 % 1012,9 hPa 0,0 l/m 6,4 km/h (2 Bft) W-SW 254 0 min 0,000 mm 0,0 UV-I 0 W/m 6,1 C 9,7 C 11,3 km/h (2 Bft) 100,00 %
22.02.2016 01:57 9,6 C 78 % 1013,0 hPa 0,0 l/m 5,3 km/h (1 Bft) SW 219 0 min 0,000 mm 0,0 UV-I 0 W/m 6,0 C 9,6 C 6,4 km/h (2 Bft) 100,00 %
22.02.2016 01:58 9,4 C 79 % 1012,9 hPa 0,0 l/m 6,4 km/h (2 Bft) SW 234 0 min 0,000 mm 0,0 UV-I 0 W/m 5,9 C 9,4 C 8,0 km/h (2 Bft) 100,00 %
22.02.2016 01:59 9,3 C 79 % 1012,9 hPa 0,0 l/m 5,2 km/h (1 Bft) W-SW 243 0 min 0,000 mm 0,0 UV-I 0 W/m 5,8 C 9,3 C 6,4 km/h (2 Bft) 100,00 %
22.02.2016 02:00 9,2 C 79 % 1012,9 hPa 0,0 l/m 6,0 km/h (2 Bft) W-SW 255 0 min 0,000 mm 0,0 UV-I 0 W/m 5,8 C 9,2 C 8,0 km/h (2 Bft) 100,00 %
22.02.2016 02:01 9,2 C 80 % 1012,9 hPa 0,0 l/m 4,7 km/h (1 Bft) W-SW 242 0 min 0,026 mm 0,0 UV-I 0 W/m 5,9 C 9,2 C 8,0 km/h (2 Bft) 100,00 %
22.02.2016 02:02 9,1 C 80 % 1012,9 hPa 0,0 l/m 4,5 km/h (1 Bft) W-SW 254 0 min 0,000 mm 0,0 UV-I 0 W/m 5,8 C 9,1 C 6,4 km/h (2 Bft) 96,15 %
22.02.2016 02:03 9,0 C 80 % 1012,9 hPa 0,0 l/m 5,4 km/h (1 Bft) W-SW 253 0 min 0,000 mm 0,0 UV-I 0 W/m 5,7 C 9,0 C 8,0 km/h (2 Bft) 100,00 %
22.02.2016 02:04 8,9 C 80 % 1012,9 hPa 0,0 l/m 3,8 km/h (1 Bft) W-SW 253 0 min 0,000 mm 0,0 UV-I 0 W/m 5,6 C 8,9 C 4,8 km/h (1 Bft) 100,00 %
22.02.2016 02:05 8,9 C 80 % 1012,9 hPa 0,0 l/m 2,9 km/h (1 Bft) W-SW 245 0 min 0,000 mm 0,0 UV-I 0 W/m 5,6 C 8,9 C 4,8 km/h (1 Bft) 96,43 %
22.02.2016 02:06 8,8 C 80 % 1012,9 hPa 0,0 l/m 2,8 km/h (1 Bft) W-SW 245 0 min 0,000 mm 0,0 UV-I 0 W/m 5,5 C 8,8 C 4,8 km/h (1 Bft) 100,00 %
22.02.2016 02:07 8,8 C 81 % 1012,8 hPa 0,0 l/m 2,2 km/h (1 Bft) W-SW 245 0 min 0,000 mm 0,0 UV-I 0 W/m 5,7 C 8,8 C 3,2 km/h (1 Bft) 100,00 %
22.02.2016 02:08 8,7 C 81 % 1012,8 hPa 0,0 l/m 1,0 km/h (0 Bft) W-SW 245 0 min 0,000 mm 0,0 UV-I 0 W/m 5,6 C 8,7 C 1,6 km/h (1 Bft) 100,00 %
22.02.2016 02:09 8,7 C 81 % 1012,8 hPa 0,0 l/m 3,3 km/h (1 Bft) SW 232 0 min 0,000 mm 0,0 UV-I 0 W/m 5,6 C 8,7 C 4,8 km/h (1 Bft) 100,00 %
22.02.2016 02:10 8,7 C 81 % 1012,8 hPa 0,0 l/m 2,9 km/h (1 Bft) SW 236 0 min 0,000 mm 0,0 UV-I 0 W/m 5,6 C 8,7 C 4,8 km/h (1 Bft) 100,00 %
22.02.2016 02:11 8,6 C 81 % 1012,8 hPa 0,0 l/m 1,1 km/h (1 Bft) SW 236 0 min 0,000 mm 0,0 UV-I 0 W/m 5,5 C 8,6 C 1,6 km/h (1 Bft) 100,00 %
22.02.2016 02:12 8,6 C 81 % 1012,7 hPa 0,0 l/m 0,5 km/h (0 Bft) SW 236 0 min 0,000 mm 0,0 UV-I 0 W/m 5,5 C 8,6 C 1,6 km/h (1 Bft) 100,00 %
22.02.2016 02:13 8,5 C 81 % 1012,7 hPa 0,0 l/m 1,5 km/h (1 Bft) SW 236 0 min 0,000 mm 0,0 UV-I 0 W/m 5,4 C 8,5 C 3,2 km/h (1 Bft) 100,00 %
22.02.2016 02:14 8,3 C 81 % 1012,7 hPa 0,0 l/m 1,4 km/h (1 Bft) W-SW 255 0 min 0,000 mm 0,0 UV-I 0 W/m 5,2 C 8,3 C 4,8 km/h (1 Bft) 100,00 %
22.02.2016 02:15 8,3 C 82 % 1012,7 hPa 0,0 l/m 2,7 km/h (1 Bft) W-SW 255 0 min 0,000 mm 0,0 UV-I 0 W/m 5,4 C 8,3 C 4,8 km/h (1 Bft) 100,00 %
22.02.2016 02:16 8,2 C 82 % 1012,8 hPa 0,0 l/m 0,9 km/h (0 Bft) W-SW 255 0 min 0,000 mm 0,0 UV-I 0 W/m 5,3 C 8,2 C 1,6 km/h (1 Bft) 100,00 %
22.02.2016 02:17 8,2 C 83 % 1012,7 hPa 0,0 l/m 0,3 km/h (0 Bft) W-SW 255 0 min 0,000 mm 0,0 UV-I 0 W/m 5,5 C 8,2 C 1,6 km/h (1 Bft) 100,00 %
22.02.2016 02:18 8,2 C 83 % 1012,7 hPa 0,0 l/m 0,0 km/h (0 Bft) W-SW 255 0 min 0,000 mm 0,0 UV-I 0 W/m 5,5 C 8,2 C 0,0 km/h (0 Bft) 100,00 %
22.02.2016 02:19 8,2 C 83 % 1012,7 hPa 0,0 l/m 1,5 km/h (1 Bft) W-SW 255 0 min 0,000 mm 0,0 UV-I 0 W/m 5,5 C 8,2 C 3,2 km/h (1 Bft) 100,00 %
22.02.2016 02:20 8,2 C 83 % 1012,7 hPa 0,0 l/m 2,3 km/h (1 Bft) W-SW 254 0 min 0,000 mm 0,0 UV-I 0 W/m 5,5 C 8,2 C 3,2 km/h (1 Bft) 98,65 %
22.02.2016 02:21 8,2 C 83 % 1012,7 hPa 0,0 l/m 3,7 km/h (1 Bft) W-SW 240 0 min 0,000 mm 0,0 UV-I 0 W/m 5,5 C 8,2 C 4,8 km/h (1 Bft) 97,56 %
22.02.2016 02:22 8,2 C 83 % 1012,7 hPa 0,0 l/m 4,6 km/h (1 Bft) SW 232 0 min 0,000 mm 0,0 UV-I 0 W/m 5,5 C 8,2 C 6,4 km/h (2 Bft) 100,00 %
22.02.2016 02:23 8,2 C 82 % 1012,7 hPa 0,0 l/m 3,0 km/h (1 Bft) SW 217 0 min 0,000 mm 0,0 UV-I 0 W/m 5,3 C 8,2 C 4,8 km/h (1 Bft) 100,00 %
22.02.2016 02:24 8,2 C 82 % 1012,6 hPa 0,0 l/m 2,2 km/h (1 Bft) S-SW 210 0 min 0,000 mm 0,0 UV-I 0 W/m 5,3 C 8,2 C 3,2 km/h (1 Bft) 100,00 %
22.02.2016 02:25 8,1 C 82 % 1012,6 hPa 0,0 l/m 3,0 km/h (1 Bft) S-SW 211 0 min 0,000 mm 0,0 UV-I 0 W/m 5,2 C 8,1 C 4,8 km/h (1 Bft) 100,00 %
22.02.2016 02:26 8,1 C 82 % 1012,7 hPa 0,0 l/m 4,6 km/h (1 Bft) SW 217 0 min 0,000 mm 0,0 UV-I 0 W/m 5,2 C 8,1 C 4,8 km/h (1 Bft) 100,00 %
22.02.2016 02:27 8,1 C 83 % 1012,7 hPa 0,0 l/m 4,1 km/h (1 Bft) SW 217 0 min 0,000 mm 0,0 UV-I 0 W/m 5,4 C 8,1 C 4,8 km/h (1 Bft) 100,00 %
22.02.2016 02:28 8,0 C 83 % 1012,7 hPa 0,0 l/m 3,6 km/h (1 Bft) SW 217 0 min 0,000 mm 0,0 UV-I 0 W/m 5,3 C 8,0 C 4,8 km/h (1 Bft) 100,00 %
22.02.2016 02:29 8,0 C 83 % 1012,7 hPa 0,0 l/m 3,0 km/h (1 Bft) SW 217 0 min 0,000 mm 0,0 UV-I 0 W/m 5,3 C 8,0 C 3,2 km/h (1 Bft) 91,30 %
22.02.2016 02:30 7,9 C 83 % 1012,7 hPa 0,0 l/m 2,1 km/h (1 Bft) SW 217 0 min 0,000 mm 0,0 UV-I 0 W/m 5,2 C 7,9 C 4,8 km/h (1 Bft) 100,00 %
22.02.2016 02:31 7,9 C 83 % 1012,7 hPa 0,0 l/m 1,5 km/h (1 Bft) SW 217 0 min 0,000 mm 0,0 UV-I 0 W/m 5,2 C 7,9 C 3,2 km/h (1 Bft) 100,00 %
22.02.2016 02:32 7,9 C 83 % 1012,7 hPa 0,0 l/m 1,0 km/h (0 Bft) SW 216 0 min 0,000 mm 0,0 UV-I 0 W/m 5,2 C 7,9 C 1,6 km/h (1 Bft) 96,15 %
22.02.2016 02:33 7,8 C 83 % 1012,7 hPa 0,0 l/m 1,3 km/h (1 Bft) SW 216 0 min 0,000 mm 0,0 UV-I 0 W/m 5,1 C 7,8 C 1,6 km/h (1 Bft) 100,00 %
22.02.2016 02:34 7,7 C 83 % 1012,6 hPa 0,0 l/m 1,3 km/h (1 Bft) SW 216 0 min 0,000 mm 0,0 UV-I 0 W/m 5,0 C 7,7 C 1,6 km/h (1 Bft) 100,00 %
22.02.2016 02:35 7,7 C 83 % 1012,7 hPa 0,0 l/m 2,3 km/h (1 Bft) SW 216 0 min 0,000 mm 0,0 UV-I 0 W/m 5,0 C 7,7 C 3,2 km/h (1 Bft) 100,00 %
22.02.2016 02:36 7,7 C 84 % 1012,7 hPa 0,0 l/m 2,0 km/h (1 Bft) SW 216 0 min 0,000 mm 0,0 UV-I 0 W/m 5,2 C 7,7 C 3,2 km/h (1 Bft) 100,00 %
22.02.2016 02:37 7,6 C 84 % 1012,7 hPa 0,0 l/m 2,9 km/h (1 Bft) SW 216 0 min 0,000 mm 0,0 UV-I 0 W/m 5,1 C 7,6 C 3,2 km/h (1 Bft) 100,00 %
22.02.2016 02:38 7,6 C 84 % 1012,7 hPa 0,0 l/m 3,1 km/h (1 Bft) SW 216 0 min 0,000 mm 0,0 UV-I 0 W/m 5,1 C 7,6 C 4,8 km/h (1 Bft) 100,00 %
22.02.2016 02:39 7,6 C 84 % 1012,6 hPa 0,0 l/m 3,9 km/h (1 Bft) SW 227 0 min 0,000 mm 0,0 UV-I 0 W/m 5,1 C 7,6 C 4,8 km/h (1 Bft) 100,00 %
22.02.2016 02:40 7,6 C 84 % 1012,7 hPa 0,0 l/m 3,5 km/h (1 Bft) SW 227 0 min 0,000 mm 0,0 UV-I 0 W/m 5,1 C 7,6 C 4,8 km/h (1 Bft) 100,00 %
22.02.2016 02:41 7,6 C 84 % 1012,7 hPa 0,0 l/m 4,2 km/h (1 Bft) SW 222 0 min 0,000 mm 0,0 UV-I 0 W/m 5,1 C 7,6 C 4,8 km/h (1 Bft) 96,30 %
22.02.2016 02:42 7,6 C 84 % 1012,7 hPa 0,0 l/m 5,0 km/h (1 Bft) SW 216 0 min 0,000 mm 0,0 UV-I 0 W/m 5,1 C 7,6 C 6,4 km/h (2 Bft) 100,00 %
22.02.2016 02:43 7,6 C 84 % 1012,7 hPa 0,0 l/m 5,7 km/h (1 Bft) S-SW 209 0 min 0,000 mm 0,0 UV-I 0 W/m 5,1 C 7,6 C 6,4 km/h (2 Bft) 100,00 %
22.02.2016 02:44 7,6 C 84 % 1012,7 hPa 0,0 l/m 5,1 km/h (1 Bft) S-SW 209 0 min 0,000 mm 0,0 UV-I 0 W/m 5,1 C 7,6 C 6,4 km/h (2 Bft) 100,00 %
22.02.2016 02:45 7,6 C 84 % 1012,6 hPa 0,0 l/m 5,2 km/h (1 Bft) S-SW 200 0 min 0,000 mm 0,0 UV-I 0 W/m 5,1 C 7,6 C 6,4 km/h (2 Bft) 96,67 %
22.02.2016 02:46 7,5 C 83 % 1012,7 hPa 0,0 l/m 5,3 km/h (1 Bft) S-SW 206 0 min 0,000 mm 0,0 UV-I 0 W/m 4,8 C 7,5 C 6,4 km/h (2 Bft) 100,00 %
22.02.2016 02:47 7,4 C 83 % 1012,7 hPa 0,0 l/m 6,6 km/h (2 Bft) SW 215 0 min 0,000 mm 0,0 UV-I 0 W/m 4,7 C 7,3 C 9,7 km/h (2 Bft) 100,00 %
22.02.2016 02:48 7,4 C 84 % 1012,7 hPa 0,0 l/m 6,2 km/h (2 Bft) S 191 0 min 0,000 mm 0,0 UV-I 0 W/m 4,9 C 7,4 C 8,0 km/h (2 Bft) 100,00 %
22.02.2016 02:49 7,3 C 84 % 1012,6 hPa 0,0 l/m 8,6 km/h (2 Bft) S-SW 209 0 min 0,000 mm 0,0 UV-I 0 W/m 4,8 C 5,6 C 11,3 km/h (2 Bft) 100,00 %
22.02.2016 02:50 7,4 C 84 % 1012,6 hPa 0,0 l/m 7,5 km/h (2 Bft) SW 215 0 min 0,000 mm 0,0 UV-I 0 W/m 4,9 C 6,5 C 9,7 km/h (2 Bft) 96,15 %
22.02.2016 02:51 7,4 C 84 % 1012,6 hPa 0,0 l/m 8,4 km/h (2 Bft) SW 214 0 min 0,000 mm 0,0 UV-I 0 W/m 4,9 C 5,8 C 11,3 km/h (2 Bft) 100,00 %
22.02.2016 02:52 7,4 C 84 % 1012,6 hPa 0,0 l/m 7,1 km/h (2 Bft) S 190 0 min 0,000 mm 0,0 UV-I 0 W/m 4,9 C 6,8 C 9,7 km/h (2 Bft) 95,65 %
22.02.2016 02:53 7,5 C 84 % 1012,6 hPa 0,0 l/m 8,0 km/h (2 Bft) S-SW 204 0 min 0,000 mm 0,0 UV-I 0 W/m 5,0 C 6,2 C 9,7 km/h (2 Bft) 100,00 %
22.02.2016 02:54 7,6 C 83 % 1012,6 hPa 0,0 l/m 9,0 km/h (2 Bft) S-SW 210 0 min 0,000 mm 0,0 UV-I 0 W/m 4,9 C 5,6 C 11,3 km/h (2 Bft) 91,67 %
22.02.2016 02:55 7,6 C 83 % 1012,6 hPa 0,0 l/m 7,2 km/h (2 Bft) SW 223 0 min 0,000 mm 0,0 UV-I 0 W/m 4,9 C 7,0 C 9,7 km/h (2 Bft) 100,00 %
22.02.2016 02:56 7,7 C 83 % 1012,6 hPa 0,0 l/m 8,0 km/h (2 Bft) SW 229 0 min 0,000 mm 0,0 UV-I 0 W/m 5,0 C 6,4 C 11,3 km/h (2 Bft) 95,83 %
22.02.2016 02:57 7,7 C 82 % 1012,4 hPa 0,0 l/m 7,2 km/h (2 Bft) SW 234 0 min 0,000 mm 0,0 UV-I 0 W/m 4,8 C 7,1 C 9,7 km/h (2 Bft) 95,65 %
22.02.2016 02:58 7,7 C 82 % 1012,4 hPa 0,0 l/m 5,6 km/h (1 Bft) SW 224 0 min 0,000 mm 0,0 UV-I 0 W/m 4,8 C 7,7 C 8,0 km/h (2 Bft) 100,00 %
22.02.2016 02:59 7,7 C 82 % 1012,4 hPa 0,0 l/m 8,1 km/h (2 Bft) SW 229 0 min 0,000 mm 0,0 UV-I 0 W/m 4,8 C 6,4 C 12,9 km/h (3 Bft) 96,15 %
22.02.2016 03:00 7,7 C 82 % 1012,4 hPa 0,0 l/m 8,0 km/h (2 Bft) SW 227 0 min 0,000 mm 0,0 UV-I 0 W/m 4,8 C 6,4 C 9,7 km/h (2 Bft) 100,00 %
22.02.2016 03:01 7,7 C 82 % 1012,4 hPa 0,0 l/m 6,7 km/h (2 Bft) SW 229 0 min 0,000 mm 0,0 UV-I 0 W/m 4,8 C 7,5 C 8,0 km/h (2 Bft) 96,55 %
22.02.2016 03:02 7,7 C 81 % 1012,3 hPa 0,0 l/m 6,1 km/h (2 Bft) SW 232 0 min 0,000 mm 0,0 UV-I 0 W/m 4,7 C 7,7 C 8,0 km/h (2 Bft) 100,00 %
22.02.2016 03:03 7,7 C 81 % 1012,3 hPa 0,0 l/m 7,0 km/h (2 Bft) W-SW 257 0 min 0,000 mm 0,0 UV-I 0 W/m 4,7 C 7,2 C 9,7 km/h (2 Bft) 96,15 %
22.02.2016 03:04 7,7 C 81 % 1012,3 hPa 0,0 l/m 6,6 km/h (2 Bft) SW 236 0 min 0,000 mm 0,0 UV-I 0 W/m 4,7 C 7,6 C 8,0 km/h (2 Bft) 100,00 %
22.02.2016 03:05 7,7 C 81 % 1012,3 hPa 0,0 l/m 6,0 km/h (2 Bft) SW 229 0 min 0,000 mm 0,0 UV-I 0 W/m 4,7 C 7,7 C 8,0 km/h (2 Bft) 96,15 %
22.02.2016 03:06 7,7 C 81 % 1012,3 hPa 0,0 l/m 5,8 km/h (2 Bft) SW 232 0 min 0,000 mm 0,0 UV-I 0 W/m 4,7 C 7,7 C 8,0 km/h (2 Bft) 95,83 %
22.02.2016 03:07 7,7 C 81 % 1012,3 hPa 0,0 l/m 6,3 km/h (2 Bft) SW 220 0 min 0,000 mm 0,0 UV-I 0 W/m 4,7 C 7,7 C 8,0 km/h (2 Bft) 95,65 %
22.02.2016 03:08 7,6 C 81 % 1012,2 hPa 0,0 l/m 5,7 km/h (1 Bft) W-SW 238 0 min 0,000 mm 0,0 UV-I 0 W/m 4,6 C 7,6 C 8,0 km/h (2 Bft) 95,83 %
22.02.2016 03:09 7,6 C 81 % 1012,2 hPa 0,0 l/m 7,9 km/h (2 Bft) W-SW 242 0 min 0,000 mm 0,0 UV-I 0 W/m 4,6 C 6,4 C 11,3 km/h (2 Bft) 100,00 %
22.02.2016 03:10 7,6 C 81 % 1012,2 hPa 0,0 l/m 6,8 km/h (2 Bft) W-SW 254 0 min 0,000 mm 0,0 UV-I 0 W/m 4,6 C 7,3 C 8,0 km/h (2 Bft) 95,83 %
22.02.2016 03:11 7,6 C 81 % 1012,2 hPa 0,0 l/m 9,4 km/h (2 Bft) W-SW 241 0 min 0,000 mm 0,0 UV-I 0 W/m 4,6 C 5,3 C 12,9 km/h (3 Bft) 100,00 %
22.02.2016 03:12 7,7 C 81 % 1012,2 hPa 0,0 l/m 7,3 km/h (2 Bft) W-SW 248 0 min 0,000 mm 0,0 UV-I 0 W/m 4,7 C 7,0 C 9,7 km/h (2 Bft) 96,55 %
22.02.2016 03:13 7,7 C 81 % 1012,2 hPa 0,0 l/m 8,0 km/h (2 Bft) SW 234 0 min 0,000 mm 0,0 UV-I 0 W/m 4,7 C 6,4 C 11,3 km/h (2 Bft) 100,00 %
22.02.2016 03:14 7,8 C 81 % 1012,2 hPa 0,0 l/m 8,1 km/h (2 Bft) W-SW 246 0 min 0,000 mm 0,0 UV-I 0 W/m 4,7 C 6,5 C 11,3 km/h (2 Bft) 96,15 %
22.02.2016 03:15 7,8 C 81 % 1012,2 hPa 0,0 l/m 8,2 km/h (2 Bft) W-SW 249 0 min 0,000 mm 0,0 UV-I 0 W/m 4,7 C 6,4 C 12,9 km/h (3 Bft) 100,00 %
22.02.2016 03:16 7,9 C 80 % 1012,2 hPa 0,0 l/m 10,1 km/h (2 Bft) W-SW 238 0 min 0,000 mm 0,0 UV-I 0 W/m 4,7 C 5,2 C 12,9 km/h (3 Bft) 96,55 %
22.02.2016 03:17 7,9 C 80 % 1012,2 hPa 0,0 l/m 11,4 km/h (2 Bft) W-SW 239 0 min 0,000 mm 0,0 UV-I 0 W/m 4,7 C 4,4 C 16,1 km/h (3 Bft) 96,30 %
22.02.2016 03:18 8,0 C 80 % 1012,2 hPa 0,0 l/m 8,6 km/h (2 Bft) W-SW 237 0 min 0,000 mm 0,0 UV-I 0 W/m 4,8 C 6,3 C 11,3 km/h (2 Bft) 100,00 %
22.02.2016 03:19 8,1 C 80 % 1012,1 hPa 0,0 l/m 9,2 km/h (2 Bft) W-SW 251 0 min 0,000 mm 0,0 UV-I 0 W/m 4,9 C 6,0 C 12,9 km/h (3 Bft) 96,97 %
22.02.2016 03:20 8,1 C 79 % 1012,1 hPa 0,0 l/m 11,3 km/h (2 Bft) W-SW 238 0 min 0,000 mm 0,0 UV-I 0 W/m 4,7 C 4,7 C 14,5 km/h (3 Bft) 100,00 %
22.02.2016 03:21 8,2 C 79 % 1012,1 hPa 0,0 l/m 11,1 km/h (2 Bft) W-SW 254 0 min 0,000 mm 0,0 UV-I 0 W/m 4,8 C 4,9 C 14,5 km/h (3 Bft) 91,67 %
22.02.2016 03:22 8,2 C 79 % 1012,1 hPa 0,0 l/m 10,4 km/h (2 Bft) W-SW 249 0 min 0,000 mm 0,0 UV-I 0 W/m 4,8 C 5,4 C 12,9 km/h (3 Bft) 100,00 %
22.02.2016 03:23 8,2 C 79 % 1012,0 hPa 0,0 l/m 8,8 km/h (2 Bft) SW 233 0 min 0,000 mm 0,0 UV-I 0 W/m 4,8 C 6,4 C 11,3 km/h (2 Bft) 95,83 %
22.02.2016 03:24 8,2 C 79 % 1012,0 hPa 0,0 l/m 8,5 km/h (2 Bft) SW 231 0 min 0,000 mm 0,0 UV-I 0 W/m 4,8 C 6,6 C 12,9 km/h (3 Bft) 95,65 %
22.02.2016 03:25 8,2 C 79 % 1012,0 hPa 0,0 l/m 10,1 km/h (2 Bft) W 274 0 min 0,000 mm 0,0 UV-I 0 W/m 4,8 C 5,5 C 16,1 km/h (3 Bft) 100,00 %
22.02.2016 03:26 8,2 C 79 % 1012,0 hPa 0,0 l/m 10,6 km/h (2 Bft) W 261 0 min 0,000 mm 0,0 UV-I 0 W/m 4,8 C 5,2 C 17,7 km/h (3 Bft) 96,15 %
22.02.2016 03:27 8,3 C 78 % 1012,0 hPa 0,0 l/m 11,0 km/h (2 Bft) W 261 0 min 0,000 mm 0,0 UV-I 0 W/m 4,7 C 5,1 C 14,5 km/h (3 Bft) 100,00 %
22.02.2016 03:28 8,3 C 78 % 1012,0 hPa 0,0 l/m 9,1 km/h (2 Bft) W-SW 244 0 min 0,000 mm 0,0 UV-I 0 W/m 4,7 C 6,3 C 11,3 km/h (2 Bft) 93,33 %
22.02.2016 03:29 8,3 C 78 % 1012,0 hPa 0,0 l/m 10,0 km/h (2 Bft) W-SW 244 0 min 0,000 mm 0,0 UV-I 0 W/m 4,7 C 5,7 C 12,9 km/h (3 Bft) 100,00 %
22.02.2016 03:30 8,3 C 78 % 1012,0 hPa 0,0 l/m 8,2 km/h (2 Bft) W-SW 246 0 min 0,000 mm 0,0 UV-I 0 W/m 4,7 C 6,9 C 11,3 km/h (2 Bft) 96,15 %
22.02.2016 03:31 8,2 C 78 % 1012,0 hPa 0,0 l/m 8,2 km/h (2 Bft) SW 220 0 min 0,000 mm 0,0 UV-I 0 W/m 4,6 C 6,8 C 11,3 km/h (2 Bft) 96,30 %
22.02.2016 03:32 8,2 C 78 % 1012,0 hPa 0,0 l/m 9,7 km/h (2 Bft) SW 225 0 min 0,000 mm 0,0 UV-I 0 W/m 4,6 C 5,8 C 12,9 km/h (3 Bft) 100,00 %
22.02.2016 03:33 8,1 C 79 % 1012,0 hPa 0,0 l/m 7,4 km/h (2 Bft) SW 232 0 min 0,000 mm 0,0 UV-I 0 W/m 4,7 C 7,3 C 9,7 km/h (2 Bft) 100,00 %
22.02.2016 03:34 8,0 C 79 % 1012,0 hPa 0,0 l/m 8,2 km/h (2 Bft) W 260 0 min 0,000 mm 0,0 UV-I 0 W/m 4,6 C 6,6 C 11,3 km/h (2 Bft) 100,00 %
22.02.2016 03:35 7,9 C 79 % 1012,0 hPa 0,0 l/m 7,8 km/h (2 Bft) W-SW 237 0 min 0,000 mm 0,0 UV-I 0 W/m 4,5 C 6,8 C 12,9 km/h (3 Bft) 100,00 %
22.02.2016 03:36 7,8 C 79 % 1012,0 hPa 0,0 l/m 8,8 km/h (2 Bft) W-SW 246 0 min 0,000 mm 0,0 UV-I 0 W/m 4,4 C 6,0 C 12,9 km/h (3 Bft) 100,00 %
22.02.2016 03:37 7,8 C 79 % 1012,1 hPa 0,0 l/m 10,6 km/h (2 Bft) W-SW 252 0 min 0,000 mm 0,0 UV-I 0 W/m 4,4 C 4,8 C 14,5 km/h (3 Bft) 95,65 %
22.02.2016 03:38 7,8 C 79 % 1012,1 hPa 0,0 l/m 11,4 km/h (2 Bft) W-SW 250 0 min 0,000 mm 0,0 UV-I 0 W/m 4,4 C 4,3 C 14,5 km/h (3 Bft) 100,00 %
22.02.2016 03:39 7,8 C 79 % 1012,2 hPa 0,0 l/m 10,3 km/h (2 Bft) W-SW 248 0 min 0,000 mm 0,0 UV-I 0 W/m 4,4 C 5,0 C 12,9 km/h (3 Bft) 100,00 %
22.02.2016 03:40 7,8 C 79 % 1012,1 hPa 0,0 l/m 13,5 km/h (3 Bft) W-SW 254 0 min 0,000 mm 0,0 UV-I 0 W/m 4,4 C 3,2 C 17,7 km/h (3 Bft) 96,30 %
22.02.2016 03:41 7,8 C 79 % 1012,1 hPa 0,0 l/m 13,0 km/h (3 Bft) W-SW 250 0 min 0,000 mm 0,0 UV-I 0 W/m 4,4 C 3,4 C 14,5 km/h (3 Bft) 100,00 %
22.02.2016 03:42 7,9 C 79 % 1012,1 hPa 0,0 l/m 13,8 km/h (3 Bft) W-SW 246 0 min 0,000 mm 0,0 UV-I 0 W/m 4,5 C 3,2 C 17,7 km/h (3 Bft) 100,00 %
22.02.2016 03:43 8,0 C 79 % 1012,1 hPa 0,0 l/m 13,5 km/h (3 Bft) SW 229 0 min 0,000 mm 0,0 UV-I 0 W/m 4,6 C 3,4 C 17,7 km/h (3 Bft) 100,00 %
22.02.2016 03:44 8,1 C 79 % 1012,2 hPa 0,0 l/m 13,8 km/h (3 Bft) W-SW 252 0 min 0,000 mm 0,0 UV-I 0 W/m 4,7 C 3,4 C 17,7 km/h (3 Bft) 100,00 %
22.02.2016 03:45 8,2 C 78 % 1012,2 hPa 0,0 l/m 13,8 km/h (3 Bft) W-SW 242 0 min 0,000 mm 0,0 UV-I 0 W/m 4,6 C 3,5 C 17,7 km/h (3 Bft) 100,00 %
22.02.2016 03:46 8,3 C 78 % 1012,2 hPa 0,0 l/m 13,4 km/h (3 Bft) W 261 0 min 0,000 mm 0,0 UV-I 0 W/m 4,7 C 3,8 C 14,5 km/h (3 Bft) 96,15 %
22.02.2016 03:47 8,3 C 78 % 1012,2 hPa 0,0 l/m 13,8 km/h (3 Bft) W-SW 246 0 min 0,000 mm 0,0 UV-I 0 W/m 4,7 C 3,6 C 16,1 km/h (3 Bft) 100,00 %
22.02.2016 03:48 8,4 C 77 % 1012,1 hPa 0,0 l/m 15,1 km/h (3 Bft) SW 231 0 min 0,000 mm 0,0 UV-I 0 W/m 4,6 C 3,2 C 19,3 km/h (3 Bft) 98,51 %
22.02.2016 03:49 8,5 C 77 % 1012,2 hPa 0,0 l/m 13,9 km/h (3 Bft) W 268 0 min 0,000 mm 0,0 UV-I 0 W/m 4,7 C 3,8 C 17,7 km/h (3 Bft) 97,87 %
22.02.2016 03:50 8,6 C 77 % 1012,2 hPa 0,0 l/m 15,9 km/h (3 Bft) W-SW 252 0 min 0,000 mm 0,0 UV-I 0 W/m 4,8 C 3,0 C 20,9 km/h (4 Bft) 100,00 %
22.02.2016 03:51 8,7 C 76 % 1012,1 hPa 0,0 l/m 15,0 km/h (3 Bft) W-SW 250 0 min 0,000 mm 0,0 UV-I 0 W/m 4,7 C 3,6 C 19,3 km/h (3 Bft) 96,15 %
22.02.2016 03:52 8,7 C 76 % 1012,2 hPa 0,0 l/m 15,8 km/h (3 Bft) W-SW 257 0 min 0,000 mm 0,0 UV-I 0 W/m 4,7 C 3,2 C 19,3 km/h (3 Bft) 95,83 %
22.02.2016 03:53 8,8 C 76 % 1012,2 hPa 0,0 l/m 14,6 km/h (3 Bft) W-SW 255 0 min 0,000 mm 0,0 UV-I 0 W/m 4,8 C 3,9 C 17,7 km/h (3 Bft) 98,49 %
22.02.2016 03:54 8,9 C 75 % 1012,1 hPa 0,0 l/m 17,5 km/h (3 Bft) W-SW 250 0 min 0,000 mm 0,0 UV-I 0 W/m 4,7 C 2,8 C 20,9 km/h (4 Bft) 97,73 %
22.02.2016 03:55 8,9 C 75 % 1012,1 hPa 0,0 l/m 17,0 km/h (3 Bft) W-SW 253 0 min 0,000 mm 0,0 UV-I 0 W/m 4,7 C 3,0 C 20,9 km/h (4 Bft) 100,00 %
22.02.2016 03:56 9,1 C 75 % 1012,1 hPa 0,0 l/m 15,6 km/h (3 Bft) W-SW 240 0 min 0,000 mm 0,0 UV-I 0 W/m 4,9 C 3,8 C 24,1 km/h (4 Bft) 100,00 %
22.02.2016 03:57 9,1 C 74 % 1012,1 hPa 0,0 l/m 12,2 km/h (2 Bft) W-SW 248 0 min 0,000 mm 0,0 UV-I 0 W/m 4,7 C 5,4 C 14,5 km/h (3 Bft) 100,00 %
22.02.2016 03:58 9,2 C 74 % 1012,1 hPa 0,0 l/m 12,0 km/h (2 Bft) W 260 0 min 0,000 mm 0,0 UV-I 0 W/m 4,8 C 5,6 C 16,1 km/h (3 Bft) 100,00 %
22.02.2016 03:59 9,2 C 74 % 1012,1 hPa 0,0 l/m 12,6 km/h (3 Bft) W-NW 292 0 min 0,000 mm 0,0 UV-I 0 W/m 4,8 C 5,3 C 16,1 km/h (3 Bft) 100,00 %
22.02.2016 04:00 9,3 C 74 % 1012,0 hPa 0,0 l/m 11,3 km/h (2 Bft) W 261 0 min 0,000 mm 0,0 UV-I 0 W/m 4,9 C 6,1 C 14,5 km/h (3 Bft) 100,00 %
22.02.2016 04:02 9,3 C 74 % 1012,0 hPa 0,0 l/m 12,8 km/h (3 Bft) W 262 0 min 0,025 mm 0,0 UV-I 0 W/m 4,9 C 5,3 C 16,1 km/h (3 Bft) 100,00 %
22.02.2016 04:03 9,3 C 73 % 1012,0 hPa 0,0 l/m 12,7 km/h (3 Bft) W 269 0 min 0,000 mm 0,0 UV-I 0 W/m 4,7 C 5,4 C 14,5 km/h (3 Bft) 95,83 %
22.02.2016 04:04 9,3 C 73 % 1011,9 hPa 0,0 l/m 15,1 km/h (3 Bft) W-SW 250 0 min 0,000 mm 0,0 UV-I 0 W/m 4,7 C 4,2 C 24,1 km/h (4 Bft) 100,00 %
22.02.2016 04:05 9,4 C 73 % 1011,9 hPa 0,0 l/m 14,3 km/h (3 Bft) W-SW 243 0 min 0,000 mm 0,0 UV-I 0 W/m 4,8 C 4,7 C 17,7 km/h (3 Bft) 100,00 %
22.02.2016 04:06 9,4 C 73 % 1011,9 hPa 0,0 l/m 13,8 km/h (3 Bft) W-SW 257 0 min 0,000 mm 0,0 UV-I 0 W/m 4,8 C 4,9 C 17,7 km/h (3 Bft) 100,00 %
22.02.2016 04:07 9,4 C 73 % 1011,9 hPa 0,0 l/m 15,3 km/h (3 Bft) W 273 0 min 0,000 mm 0,0 UV-I 0 W/m 4,8 C 4,3 C 19,3 km/h (3 Bft) 97,56 %
22.02.2016 04:08 9,5 C 73 % 1011,9 hPa 0,0 l/m 13,1 km/h (3 Bft) W-SW 252 0 min 0,000 mm 0,0 UV-I 0 W/m 4,9 C 5,4 C 16,1 km/h (3 Bft) 100,00 %
22.02.2016 04:09 9,6 C 73 % 1011,9 hPa 0,0 l/m 16,3 km/h (3 Bft) W 265 0 min 0,000 mm 0,0 UV-I 0 W/m 5,0 C 4,1 C 17,7 km/h (3 Bft) 100,00 %
22.02.2016 04:10 9,6 C 73 % 1011,9 hPa 0,0 l/m 15,6 km/h (3 Bft) W-SW 252 0 min 0,000 mm 0,0 UV-I 0 W/m 5,0 C 4,4 C 20,9 km/h (4 Bft) 100,00 %
22.02.2016 04:11 9,6 C 72 % 1011,9 hPa 0,0 l/m 13,8 km/h (3 Bft) W-SW 252 0 min 0,000 mm 0,0 UV-I 0 W/m 4,8 C 5,2 C 20,9 km/h (4 Bft) 100,00 %
22.02.2016 04:12 9,6 C 72 % 1011,8 hPa 0,0 l/m 14,7 km/h (3 Bft) W 259 0 min 0,000 mm 0,0 UV-I 0 W/m 4,8 C 4,8 C 22,5 km/h (4 Bft) 100,00 %
22.02.2016 04:13 9,6 C 72 % 1011,9 hPa 0,0 l/m 13,2 km/h (3 Bft) W 264 0 min 0,000 mm 0,0 UV-I 0 W/m 4,8 C 5,5 C 19,3 km/h (3 Bft) 100,00 %
22.02.2016 04:14 9,6 C 72 % 1011,9 hPa 0,0 l/m 14,4 km/h (3 Bft) W-SW 257 0 min 0,000 mm 0,0 UV-I 0 W/m 4,8 C 4,9 C 19,3 km/h (3 Bft) 100,00 %
22.02.2016 04:15 9,6 C 72 % 1011,8 hPa 0,0 l/m 13,7 km/h (3 Bft) W 269 0 min 0,000 mm 0,0 UV-I 0 W/m 4,8 C 5,2 C 17,7 km/h (3 Bft) 100,00 %
22.02.2016 04:16 9,6 C 72 % 1011,8 hPa 0,0 l/m 13,1 km/h (3 Bft) W-SW 247 0 min 0,000 mm 0,0 UV-I 0 W/m 4,8 C 5,5 C 17,7 km/h (3 Bft) 100,00 %
22.02.2016 04:17 9,6 C 72 % 1011,8 hPa 0,0 l/m 10,5 km/h (2 Bft) W 273 0 min 0,000 mm 0,0 UV-I 0 W/m 4,8 C 6,9 C 16,1 km/h (3 Bft) 100,00 %
22.02.2016 04:18 9,6 C 72 % 1011,8 hPa 0,0 l/m 6,8 km/h (2 Bft) W 264 0 min 0,000 mm 0,0 UV-I 0 W/m 4,8 C 9,3 C 9,7 km/h (2 Bft) 100,00 %
22.02.2016 04:19 9,6 C 72 % 1011,8 hPa 0,0 l/m 11,7 km/h (2 Bft) W 263 0 min 0,000 mm 0,0 UV-I 0 W/m 4,8 C 6,2 C 16,1 km/h (3 Bft) 100,00 %
22.02.2016 04:20 9,6 C 72 % 1011,8 hPa 0,0 l/m 10,8 km/h (2 Bft) W 267 0 min 0,000 mm 0,0 UV-I 0 W/m 4,8 C 6,7 C 16,1 km/h (3 Bft) 100,00 %
22.02.2016 04:21 9,5 C 72 % 1011,8 hPa 0,0 l/m 9,7 km/h (2 Bft) W 278 0 min 0,000 mm 0,0 UV-I 0 W/m 4,7 C 7,2 C 12,9 km/h (3 Bft) 100,00 %
22.02.2016 04:22 9,5 C 72 % 1011,8 hPa 0,0 l/m 10,9 km/h (2 Bft) W-SW 254 0 min 0,000 mm 0,0 UV-I 0 W/m 4,7 C 6,5 C 14,5 km/h (3 Bft) 95,83 %
22.02.2016 04:23 9,4 C 72 % 1011,8 hPa 0,0 l/m 9,9 km/h (2 Bft) W 274 0 min 0,000 mm 0,0 UV-I 0 W/m 4,6 C 7,0 C 14,5 km/h (3 Bft) 100,00 %
22.02.2016 04:24 9,4 C 73 % 1011,8 hPa 0,0 l/m 9,3 km/h (2 Bft) W 271 0 min 0,000 mm 0,0 UV-I 0 W/m 4,8 C 7,4 C 12,9 km/h (3 Bft) 100,00 %
22.02.2016 04:25 9,4 C 73 % 1011,9 hPa 0,0 l/m 8,4 km/h (2 Bft) W 277 0 min 0,000 mm 0,0 UV-I 0 W/m 4,8 C 7,9 C 11,3 km/h (2 Bft) 100,00 %
22.02.2016 04:26 9,3 C 73 % 1011,9 hPa 0,0 l/m 9,9 km/h (2 Bft) W 265 0 min 0,000 mm 0,0 UV-I 0 W/m 4,7 C 6,9 C 14,5 km/h (3 Bft) 100,00 %
22.02.2016 04:27 9,3 C 73 % 1011,9 hPa 0,0 l/m 9,6 km/h (2 Bft) W-NW 286 0 min 0,000 mm 0,0 UV-I 0 W/m 4,7 C 7,1 C 14,5 km/h (3 Bft) 100,00 %
22.02.2016 04:28 9,3 C 73 % 1011,9 hPa 0,0 l/m 8,0 km/h (2 Bft) W 267 0 min 0,000 mm 0,0 UV-I 0 W/m 4,7 C 8,1 C 11,3 km/h (2 Bft) 100,00 %
22.02.2016 04:29 9,3 C 73 % 1011,9 hPa 0,0 l/m 8,2 km/h (2 Bft) W-NW 282 0 min 0,000 mm 0,0 UV-I 0 W/m 4,7 C 8,0 C 11,3 km/h (2 Bft) 100,00 %
22.02.2016 04:30 9,3 C 73 % 1011,9 hPa 0,0 l/m 8,6 km/h (2 Bft) W 271 0 min 0,000 mm 0,0 UV-I 0 W/m 4,7 C 7,7 C 11,3 km/h (2 Bft) 100,00 %
22.02.2016 04:31 9,2 C 73 % 1011,9 hPa 0,0 l/m 7,5 km/h (2 Bft) W 265 0 min 0,000 mm 0,0 UV-I 0 W/m 4,6 C 8,4 C 11,3 km/h (2 Bft) 100,00 %
22.02.2016 04:32 9,2 C 73 % 1011,9 hPa 0,0 l/m 5,6 km/h (1 Bft) W-SW 258 0 min 0,000 mm 0,0 UV-I 0 W/m 4,6 C 9,2 C 6,4 km/h (2 Bft) 100,00 %
22.02.2016 04:33 9,2 C 73 % 1011,8 hPa 0,0 l/m 6,1 km/h (2 Bft) W-NW 291 0 min 0,000 mm 0,0 UV-I 0 W/m 4,6 C 9,2 C 9,7 km/h (2 Bft) 100,00 %
22.02.2016 04:34 9,2 C 73 % 1011,9 hPa 0,0 l/m 7,1 km/h (2 Bft) W-SW 248 0 min 0,000 mm 0,0 UV-I 0 W/m 4,6 C 8,7 C 8,0 km/h (2 Bft) 100,00 %
22.02.2016 04:35 9,2 C 73 % 1011,8 hPa 0,0 l/m 6,8 km/h (2 Bft) SW 229 0 min 0,000 mm 0,0 UV-I 0 W/m 4,6 C 8,9 C 9,7 km/h (2 Bft) 100,00 %
22.02.2016 04:36 9,1 C 73 % 1011,8 hPa 0,0 l/m 6,9 km/h (2 Bft) SW 234 0 min 0,000 mm 0,0 UV-I 0 W/m 4,5 C 8,7 C 9,7 km/h (2 Bft) 100,00 %
22.02.2016 04:37 9,1 C 73 % 1011,8 hPa 0,0 l/m 6,5 km/h (2 Bft) W-SW 240 0 min 0,000 mm 0,0 UV-I 0 W/m 4,5 C 9,1 C 9,7 km/h (2 Bft) 100,00 %
22.02.2016 04:38 8,9 C 73 % 1011,8 hPa 0,0 l/m 8,1 km/h (2 Bft) SW 234 0 min 0,000 mm 0,0 UV-I 0 W/m 4,3 C 7,6 C 9,7 km/h (2 Bft) 100,00 %
22.02.2016 04:39 8,8 C 73 % 1011,9 hPa 0,0 l/m 7,2 km/h (2 Bft) SW 227 0 min 0,000 mm 0,0 UV-I 0 W/m 4,2 C 8,2 C 9,7 km/h (2 Bft) 100,00 %
22.02.2016 04:40 8,7 C 74 % 1011,9 hPa 0,0 l/m 8,0 km/h (2 Bft) S-SW 212 0 min 0,000 mm 0,0 UV-I 0 W/m 4,3 C 7,5 C 11,3 km/h (2 Bft) 100,00 %
22.02.2016 04:41 8,6 C 74 % 1011,9 hPa 0,0 l/m 6,7 km/h (2 Bft) SW 222 0 min 0,000 mm 0,0 UV-I 0 W/m 4,2 C 8,4 C 8,0 km/h (2 Bft) 100,00 %
22.02.2016 04:42 8,4 C 75 % 1012,0 hPa 0,0 l/m 5,0 km/h (1 Bft) SW 217 0 min 0,000 mm 0,0 UV-I 0 W/m 4,2 C 8,4 C 6,4 km/h (2 Bft) 100,00 %
22.02.2016 04:43 8,2 C 76 % 1011,9 hPa 0,0 l/m 5,1 km/h (1 Bft) SW 221 0 min 0,000 mm 0,0 UV-I 0 W/m 4,2 C 8,2 C 6,4 km/h (2 Bft) 100,00 %
22.02.2016 04:44 8,1 C 76 % 1011,9 hPa 0,0 l/m 6,2 km/h (2 Bft) SW 230 0 min 0,000 mm 0,0 UV-I 0 W/m 4,1 C 8,1 C 8,0 km/h (2 Bft) 100,00 %
22.02.2016 04:45 7,9 C 76 % 1011,9 hPa 0,0 l/m 5,7 km/h (1 Bft) SW 227 0 min 0,000 mm 0,0 UV-I 0 W/m 3,9 C 7,9 C 8,0 km/h (2 Bft) 100,00 %
22.02.2016 04:46 7,8 C 77 % 1011,9 hPa 0,0 l/m 7,2 km/h (2 Bft) SW 229 0 min 0,000 mm 0,0 UV-I 0 W/m 4,0 C 7,2 C 9,7 km/h (2 Bft) 100,00 %
22.02.2016 04:47 7,7 C 77 % 1011,9 hPa 0,0 l/m 7,1 km/h (2 Bft) W-SW 244 0 min 0,000 mm 0,0 UV-I 0 W/m 3,9 C 7,1 C 9,7 km/h (2 Bft) 100,00 %
22.02.2016 04:48 7,6 C 78 % 1011,9 hPa 0,0 l/m 8,1 km/h (2 Bft) S-SW 208 0 min 0,000 mm 0,0 UV-I 0 W/m 4,0 C 6,3 C 11,3 km/h (2 Bft) 91,67 %
22.02.2016 04:49 7,4 C 78 % 1011,8 hPa 0,0 l/m 6,3 km/h (2 Bft) S-SW 208 0 min 0,000 mm 0,0 UV-I 0 W/m 3,8 C 7,4 C 8,0 km/h (2 Bft) 100,00 %
22.02.2016 04:50 7,4 C 78 % 1011,8 hPa 0,0 l/m 5,7 km/h (1 Bft) W-SW 247 0 min 0,000 mm 0,0 UV-I 0 W/m 3,8 C 7,4 C 8,0 km/h (2 Bft) 100,00 %
22.02.2016 04:51 7,3 C 79 % 1011,8 hPa 0,0 l/m 5,7 km/h (1 Bft) SW 217 0 min 0,000 mm 0,0 UV-I 0 W/m 3,9 C 7,3 C 8,0 km/h (2 Bft) 100,00 %
22.02.2016 04:52 7,2 C 79 % 1011,8 hPa 0,0 l/m 5,8 km/h (2 Bft) SW 224 0 min 0,000 mm 0,0 UV-I 0 W/m 3,8 C 7,2 C 8,0 km/h (2 Bft) 100,00 %
22.02.2016 04:53 7,1 C 80 % 1011,7 hPa 0,0 l/m 6,2 km/h (2 Bft) SW 214 0 min 0,000 mm 0,0 UV-I 0 W/m 3,9 C 7,1 C 8,0 km/h (2 Bft) 100,00 %
22.02.2016 04:54 6,9 C 80 % 1011,7 hPa 0,0 l/m 5,5 km/h (1 Bft) SW 221 0 min 0,000 mm 0,0 UV-I 0 W/m 3,7 C 6,9 C 8,0 km/h (2 Bft) 100,00 %
22.02.2016 04:55 6,8 C 80 % 1011,6 hPa 0,0 l/m 5,5 km/h (1 Bft) SW 221 0 min 0,000 mm 0,0 UV-I 0 W/m 3,6 C 6,8 C 6,4 km/h (2 Bft) 100,00 %
22.02.2016 04:56 6,8 C 81 % 1011,6 hPa 0,0 l/m 4,3 km/h (1 Bft) SW 222 0 min 0,000 mm 0,0 UV-I 0 W/m 3,8 C 6,8 C 4,8 km/h (1 Bft) 100,00 %
22.02.2016 04:57 6,7 C 81 % 1011,6 hPa 0,0 l/m 5,1 km/h (1 Bft) SW 229 0 min 0,000 mm 0,0 UV-I 0 W/m 3,7 C 6,7 C 6,4 km/h (2 Bft) 100,00 %
22.02.2016 04:58 6,6 C 81 % 1011,5 hPa 0,0 l/m 5,7 km/h (1 Bft) SW 225 0 min 0,000 mm 0,0 UV-I 0 W/m 3,6 C 6,6 C 6,4 km/h (2 Bft) 100,00 %
22.02.2016 04:59 6,6 C 81 % 1011,5 hPa 0,0 l/m 4,3 km/h (1 Bft) SW 227 0 min 0,000 mm 0,0 UV-I 0 W/m 3,6 C 6,6 C 6,4 km/h (2 Bft) 100,00 %
22.02.2016 05:00 6,5 C 82 % 1011,5 hPa 0,0 l/m 5,0 km/h (1 Bft) SW 217 0 min 0,000 mm 0,0 UV-I 0 W/m 3,7 C 6,5 C 6,4 km/h (2 Bft) 100,00 %
22.02.2016 05:02 6,4 C 82 % 1011,6 hPa 0,0 l/m 4,9 km/h (1 Bft) SW 223 0 min 0,026 mm 0,0 UV-I 0 W/m 3,6 C 6,4 C 6,4 km/h (2 Bft) 100,00 %
22.02.2016 05:03 6,4 C 82 % 1011,6 hPa 0,0 l/m 5,4 km/h (1 Bft) S-SW 212 0 min 0,000 mm 0,0 UV-I 0 W/m 3,6 C 6,4 C 8,0 km/h (2 Bft) 100,00 %
22.02.2016 05:04 6,3 C 82 % 1011,6 hPa 0,0 l/m 6,0 km/h (2 Bft) S-SW 210 0 min 0,000 mm 0,0 UV-I 0 W/m 3,5 C 6,3 C 6,4 km/h (2 Bft) 100,00 %
22.02.2016 05:05 6,3 C 82 % 1011,6 hPa 0,0 l/m 6,8 km/h (2 Bft) SW 227 0 min 0,000 mm 0,0 UV-I 0 W/m 3,5 C 6,0 C 9,7 km/h (2 Bft) 100,00 %
22.02.2016 05:06 6,3 C 82 % 1011,6 hPa 0,0 l/m 7,3 km/h (2 Bft) SW 221 0 min 0,000 mm 0,0 UV-I 0 W/m 3,5 C 5,5 C 9,7 km/h (2 Bft) 96,30 %
22.02.2016 05:07 6,3 C 83 % 1011,6 hPa 0,0 l/m 7,0 km/h (2 Bft) S-SW 208 0 min 0,000 mm 0,0 UV-I 0 W/m 3,6 C 5,8 C 9,7 km/h (2 Bft) 100,00 %
22.02.2016 05:08 6,4 C 82 % 1011,6 hPa 0,0 l/m 7,6 km/h (2 Bft) S 182 0 min 0,000 mm 0,0 UV-I 0 W/m 3,6 C 5,4 C 9,7 km/h (2 Bft) 95,83 %
22.02.2016 05:09 6,4 C 82 % 1011,6 hPa 0,0 l/m 8,6 km/h (2 Bft) W-SW 241 0 min 0,000 mm 0,0 UV-I 0 W/m 3,6 C 4,6 C 11,3 km/h (2 Bft) 100,00 %
22.02.2016 05:10 6,4 C 82 % 1011,7 hPa 0,0 l/m 9,6 km/h (2 Bft) S-SW 211 0 min 0,000 mm 0,0 UV-I 0 W/m 3,6 C 3,9 C 12,9 km/h (3 Bft) 93,33 %
22.02.2016 05:11 6,5 C 82 % 1011,6 hPa 0,0 l/m 8,7 km/h (2 Bft) S-SW 200 0 min 0,000 mm 0,0 UV-I 0 W/m 3,7 C 4,6 C 11,3 km/h (2 Bft) 100,00 %
22.02.2016 05:12 6,5 C 82 % 1011,6 hPa 0,0 l/m 8,6 km/h (2 Bft) SW 221 0 min 0,000 mm 0,0 UV-I 0 W/m 3,7 C 4,7 C 11,3 km/h (2 Bft) 95,65 %
22.02.2016 05:13 6,5 C 82 % 1011,6 hPa 0,0 l/m 9,7 km/h (2 Bft) SW 229 0 min 0,000 mm 0,0 UV-I 0 W/m 3,7 C 3,9 C 12,9 km/h (3 Bft) 100,00 %
22.02.2016 05:14 6,6 C 81 % 1011,6 hPa 0,0 l/m 8,4 km/h (2 Bft) W-SW 250 0 min 0,000 mm 0,0 UV-I 0 W/m 3,6 C 5,0 C 11,3 km/h (2 Bft) 92,31 %
22.02.2016 05:15 6,5 C 81 % 1011,6 hPa 0,0 l/m 8,5 km/h (2 Bft) S-SW 203 0 min 0,000 mm 0,0 UV-I 0 W/m 3,5 C 4,8 C 11,3 km/h (2 Bft) 96,30 %
22.02.2016 05:16 6,5 C 81 % 1011,6 hPa 0,0 l/m 7,9 km/h (2 Bft) SW 236 0 min 0,000 mm 0,0 UV-I 0 W/m 3,5 C 5,3 C 11,3 km/h (2 Bft) 100,00 %
22.02.2016 05:17 6,5 C 81 % 1011,6 hPa 0,0 l/m 8,3 km/h (2 Bft) W-SW 242 0 min 0,000 mm 0,0 UV-I 0 W/m 3,5 C 4,9 C 11,3 km/h (2 Bft) 96,67 %
22.02.2016 05:18 6,4 C 81 % 1011,6 hPa 0,0 l/m 9,9 km/h (2 Bft) W-SW 242 0 min 0,000 mm 0,0 UV-I 0 W/m 3,4 C 3,7 C 14,5 km/h (3 Bft) 100,00 %
22.02.2016 05:19 6,5 C 81 % 1011,6 hPa 0,0 l/m 9,7 km/h (2 Bft) W-SW 252 0 min 0,000 mm 0,0 UV-I 0 W/m 3,5 C 3,9 C 12,9 km/h (3 Bft) 97,44 %
22.02.2016 05:20 6,5 C 81 % 1011,5 hPa 0,0 l/m 8,8 km/h (2 Bft) W-SW 254 0 min 0,000 mm 0,0 UV-I 0 W/m 3,5 C 4,6 C 12,9 km/h (3 Bft) 100,00 %
22.02.2016 05:21 6,6 C 81 % 1011,5 hPa 0,0 l/m 8,4 km/h (2 Bft) W-SW 249 0 min 0,000 mm 0,0 UV-I 0 W/m 3,6 C 5,0 C 12,9 km/h (3 Bft) 95,83 %
22.02.2016 05:22 6,6 C 81 % 1011,5 hPa 0,0 l/m 9,9 km/h (2 Bft) W 261 0 min 0,000 mm 0,0 UV-I 0 W/m 3,6 C 3,9 C 12,9 km/h (3 Bft) 90,91 %
22.02.2016 05:23 6,7 C 81 % 1011,5 hPa 0,0 l/m 9,1 km/h (2 Bft) W-SW 254 0 min 0,000 mm 0,0 UV-I 0 W/m 3,7 C 4,6 C 11,3 km/h (2 Bft) 96,67 %
22.02.2016 05:24 6,7 C 81 % 1011,5 hPa 0,0 l/m 11,4 km/h (2 Bft) W-SW 247 0 min 0,000 mm 0,0 UV-I 0 W/m 3,7 C 3,1 C 14,5 km/h (3 Bft) 95,65 %
22.02.2016 05:25 6,8 C 80 % 1011,4 hPa 0,0 l/m 9,4 km/h (2 Bft) W-SW 246 0 min 0,000 mm 0,0 UV-I 0 W/m 3,6 C 4,5 C 11,3 km/h (2 Bft) 100,00 %
22.02.2016 05:26 6,8 C 80 % 1011,4 hPa 0,0 l/m 7,8 km/h (2 Bft) W-SW 248 0 min 0,000 mm 0,0 UV-I 0 W/m 3,6 C 5,6 C 11,3 km/h (2 Bft) 94,44 %
22.02.2016 05:27 6,8 C 80 % 1011,3 hPa 0,0 l/m 6,5 km/h (2 Bft) W-SW 244 0 min 0,000 mm 0,0 UV-I 0 W/m 3,6 C 6,7 C 11,3 km/h (2 Bft) 100,00 %
22.02.2016 05:28 6,8 C 80 % 1011,3 hPa 0,0 l/m 7,1 km/h (2 Bft) W-SW 252 0 min 0,000 mm 0,0 UV-I 0 W/m 3,6 C 6,2 C 12,9 km/h (3 Bft) 95,83 %
22.02.2016 05:29 6,8 C 80 % 1011,3 hPa 0,0 l/m 9,0 km/h (2 Bft) W-SW 254 0 min 0,000 mm 0,0 UV-I 0 W/m 3,6 C 4,7 C 12,9 km/h (3 Bft) 100,00 %
22.02.2016 05:30 6,9 C 80 % 1011,3 hPa 0,0 l/m 11,3 km/h (2 Bft) W-SW 257 0 min 0,000 mm 0,0 UV-I 0 W/m 3,7 C 3,4 C 12,9 km/h (3 Bft) 96,15 %
22.02.2016 05:31 6,9 C 80 % 1011,2 hPa 0,0 l/m 10,9 km/h (2 Bft) W 275 0 min 0,000 mm 0,0 UV-I 0 W/m 3,7 C 3,6 C 12,9 km/h (3 Bft) 96,30 %
22.02.2016 05:32 7,0 C 80 % 1011,2 hPa 0,0 l/m 13,1 km/h (3 Bft) W-SW 251 0 min 0,000 mm 0,0 UV-I 0 W/m 3,8 C 2,5 C 14,5 km/h (3 Bft) 100,00 %
22.02.2016 05:33 7,1 C 79 % 1011,2 hPa 0,0 l/m 14,0 km/h (3 Bft) W-SW 249 0 min 0,000 mm 0,0 UV-I 0 W/m 3,7 C 2,1 C 17,7 km/h (3 Bft) 95,65 %
22.02.2016 05:34 7,2 C 79 % 1011,1 hPa 0,0 l/m 13,0 km/h (3 Bft) SW 234 0 min 0,000 mm 0,0 UV-I 0 W/m 3,8 C 2,7 C 16,1 km/h (3 Bft) 100,00 %
22.02.2016 05:35 7,3 C 79 % 1011,2 hPa 0,0 l/m 13,9 km/h (3 Bft) W-SW 246 0 min 0,000 mm 0,0 UV-I 0 W/m 3,9 C 2,4 C 17,7 km/h (3 Bft) 96,15 %
22.02.2016 05:36 7,3 C 78 % 1011,2 hPa 0,0 l/m 11,9 km/h (2 Bft) W-SW 258 0 min 0,000 mm 0,0 UV-I 0 W/m 3,7 C 3,5 C 16,1 km/h (3 Bft) 100,00 %
22.02.2016 05:37 7,4 C 78 % 1011,2 hPa 0,0 l/m 13,4 km/h (3 Bft) W 261 0 min 0,000 mm 0,0 UV-I 0 W/m 3,8 C 2,8 C 17,7 km/h (3 Bft) 95,65 %
22.02.2016 05:38 7,4 C 78 % 1011,2 hPa 0,0 l/m 12,2 km/h (2 Bft) W-SW 239 0 min 0,000 mm 0,0 UV-I 0 W/m 3,8 C 3,4 C 16,1 km/h (3 Bft) 92,59 %
22.02.2016 05:39 7,5 C 78 % 1011,2 hPa 0,0 l/m 11,2 km/h (2 Bft) SW 223 0 min 0,000 mm 0,0 UV-I 0 W/m 3,9 C 4,1 C 14,5 km/h (3 Bft) 100,00 %
22.02.2016 05:40 7,5 C 78 % 1011,2 hPa 0,0 l/m 9,9 km/h (2 Bft) W-SW 246 0 min 0,000 mm 0,0 UV-I 0 W/m 3,9 C 4,9 C 12,9 km/h (3 Bft) 95,83 %
22.02.2016 05:41 7,5 C 78 % 1011,2 hPa 0,0 l/m 9,2 km/h (2 Bft) W-SW 249 0 min 0,000 mm 0,0 UV-I 0 W/m 3,9 C 5,4 C 12,9 km/h (3 Bft) 100,00 %
22.02.2016 05:42 7,4 C 78 % 1011,3 hPa 0,0 l/m 10,0 km/h (2 Bft) W 261 0 min 0,000 mm 0,0 UV-I 0 W/m 3,8 C 4,7 C 12,9 km/h (3 Bft) 96,30 %
22.02.2016 05:43 7,4 C 78 % 1011,3 hPa 0,0 l/m 8,9 km/h (2 Bft) W-SW 248 0 min 0,000 mm 0,0 UV-I 0 W/m 3,8 C 5,5 C 12,9 km/h (3 Bft) 96,15 %
22.02.2016 05:44 7,4 C 78 % 1011,3 hPa 0,0 l/m 7,7 km/h (2 Bft) SW 231 0 min 0,000 mm 0,0 UV-I 0 W/m 3,8 C 6,4 C 9,7 km/h (2 Bft) 93,33 %
22.02.2016 05:45 7,3 C 78 % 1011,3 hPa 0,0 l/m 6,9 km/h (2 Bft) W-SW 248 0 min 0,000 mm 0,0 UV-I 0 W/m 3,7 C 6,9 C 9,7 km/h (2 Bft) 100,00 %
22.02.2016 05:46 7,2 C 78 % 1011,3 hPa 0,0 l/m 9,9 km/h (2 Bft) W-SW 250 0 min 0,000 mm 0,0 UV-I 0 W/m 3,6 C 4,6 C 12,9 km/h (3 Bft) 96,88 %
22.02.2016 05:47 7,2 C 78 % 1011,3 hPa 0,0 l/m 8,7 km/h (2 Bft) W-SW 242 0 min 0,000 mm 0,0 UV-I 0 W/m 3,6 C 5,4 C 12,9 km/h (3 Bft) 100,00 %
22.02.2016 05:48 7,1 C 78 % 1011,3 hPa 0,0 l/m 7,4 km/h (2 Bft) W-SW 253 0 min 0,000 mm 0,0 UV-I 0 W/m 3,5 C 6,3 C 11,3 km/h (2 Bft) 100,00 %
22.02.2016 05:49 7,1 C 79 % 1011,3 hPa 0,0 l/m 8,1 km/h (2 Bft) W-SW 254 0 min 0,000 mm 0,0 UV-I 0 W/m 3,7 C 5,7 C 12,9 km/h (3 Bft) 100,00 %
22.02.2016 05:50 7,1 C 78 % 1011,3 hPa 0,0 l/m 7,4 km/h (2 Bft) W 261 0 min 0,000 mm 0,0 UV-I 0 W/m 3,5 C 6,3 C 11,3 km/h (2 Bft) 100,00 %
22.02.2016 05:51 7,0 C 78 % 1011,3 hPa 0,0 l/m 7,1 km/h (2 Bft) W-SW 248 0 min 0,000 mm 0,0 UV-I 0 W/m 3,4 C 6,4 C 11,3 km/h (2 Bft) 100,00 %
22.02.2016 05:52 6,9 C 78 % 1011,3 hPa 0,0 l/m 7,8 km/h (2 Bft) W-SW 246 0 min 0,000 mm 0,0 UV-I 0 W/m 3,3 C 5,8 C 12,9 km/h (3 Bft) 100,00 %
22.02.2016 05:53 6,9 C 79 % 1011,3 hPa 0,0 l/m 9,6 km/h (2 Bft) W-SW 237 0 min 0,000 mm 0,0 UV-I 0 W/m 3,5 C 4,4 C 12,9 km/h (3 Bft) 100,00 %
22.02.2016 05:54 6,8 C 79 % 1011,3 hPa 0,0 l/m 9,0 km/h (2 Bft) W-SW 246 0 min 0,000 mm 0,0 UV-I 0 W/m 3,4 C 4,7 C 12,9 km/h (3 Bft) 96,88 %
22.02.2016 05:55 6,8 C 79 % 1011,3 hPa 0,0 l/m 12,5 km/h (3 Bft) W 260 0 min 0,000 mm 0,0 UV-I 0 W/m 3,4 C 2,5 C 14,5 km/h (3 Bft) 96,30 %
22.02.2016 05:56 6,9 C 79 % 1011,4 hPa 0,0 l/m 14,6 km/h (3 Bft) W 265 0 min 0,000 mm 0,0 UV-I 0 W/m 3,5 C 1,6 C 19,3 km/h (3 Bft) 100,00 %
22.02.2016 05:57 6,9 C 79 % 1011,3 hPa 0,0 l/m 13,6 km/h (3 Bft) W 263 0 min 0,000 mm 0,0 UV-I 0 W/m 3,5 C 2,1 C 16,1 km/h (3 Bft) 96,30 %
22.02.2016 05:58 7,0 C 79 % 1011,3 hPa 0,0 l/m 13,0 km/h (3 Bft) W-SW 250 0 min 0,000 mm 0,0 UV-I 0 W/m 3,6 C 2,5 C 16,1 km/h (3 Bft) 100,00 %
22.02.2016 05:59 7,1 C 78 % 1011,3 hPa 0,0 l/m 11,7 km/h (2 Bft) W-SW 240 0 min 0,000 mm 0,0 UV-I 0 W/m 3,5 C 3,3 C 16,1 km/h (3 Bft) 100,00 %
22.02.2016 06:00 7,2 C 78 % 1011,3 hPa 0,0 l/m 14,3 km/h (3 Bft) W 261 0 min 0,025 mm 0,0 UV-I 0 W/m 3,6 C 2,1 C 16,1 km/h (3 Bft) 95,65 %
22.02.2016 06:01 7,3 C 78 % 1011,3 hPa 0,0 l/m 12,7 km/h (3 Bft) W-SW 247 0 min 0,000 mm 0,0 UV-I 0 W/m 3,7 C 3,0 C 14,5 km/h (3 Bft) 100,00 %
22.02.2016 06:02 7,4 C 77 % 1011,3 hPa 0,0 l/m 10,5 km/h (2 Bft) W-SW 256 0 min 0,000 mm 0,0 UV-I 0 W/m 3,6 C 4,4 C 14,5 km/h (3 Bft) 100,00 %
22.02.2016 06:03 7,5 C 77 % 1011,3 hPa 0,0 l/m 11,4 km/h (2 Bft) W-SW 258 0 min 0,000 mm 0,0 UV-I 0 W/m 3,7 C 4,0 C 16,1 km/h (3 Bft) 100,00 %
22.02.2016 06:04 7,6 C 77 % 1011,4 hPa 0,0 l/m 9,3 km/h (2 Bft) W-SW 257 0 min 0,000 mm 0,0 UV-I 0 W/m 3,8 C 5,4 C 11,3 km/h (2 Bft) 100,00 %
22.02.2016 06:05 7,7 C 77 % 1011,4 hPa 0,0 l/m 9,2 km/h (2 Bft) W-SW 249 0 min 0,000 mm 0,0 UV-I 0 W/m 3,9 C 5,6 C 12,9 km/h (3 Bft) 100,00 %
22.02.2016 06:06 7,7 C 76 % 1011,4 hPa 0,0 l/m 9,6 km/h (2 Bft) W-SW 243 0 min 0,000 mm 0,0 UV-I 0 W/m 3,7 C 5,3 C 16,1 km/h (3 Bft) 100,00 %
22.02.2016 06:07 7,7 C 76 % 1011,4 hPa 0,0 l/m 9,3 km/h (2 Bft) W-SW 240 0 min 0,000 mm 0,0 UV-I 0 W/m 3,7 C 5,5 C 12,9 km/h (3 Bft) 100,00 %
22.02.2016 06:08 7,6 C 76 % 1011,4 hPa 0,0 l/m 12,7 km/h (3 Bft) W-SW 240 0 min 0,000 mm 0,0 UV-I 0 W/m 3,6 C 3,4 C 16,1 km/h (3 Bft) 100,00 %
22.02.2016 06:09 7,7 C 76 % 1011,4 hPa 0,0 l/m 8,1 km/h (2 Bft) W-SW 245 0 min 0,000 mm 0,0 UV-I 0 W/m 3,7 C 6,4 C 11,3 km/h (2 Bft) 100,00 %
22.02.2016 06:10 7,6 C 76 % 1011,4 hPa 0,0 l/m 12,5 km/h (3 Bft) W-SW 248 0 min 0,000 mm 0,0 UV-I 0 W/m 3,6 C 3,5 C 14,5 km/h (3 Bft) 100,00 %
22.02.2016 06:11 7,6 C 76 % 1011,4 hPa 0,0 l/m 13,1 km/h (3 Bft) W-SW 258 0 min 0,000 mm 0,0 UV-I 0 W/m 3,6 C 3,2 C 16,1 km/h (3 Bft) 100,00 %
22.02.2016 06:12 7,7 C 77 % 1011,4 hPa 0,0 l/m 7,6 km/h (2 Bft) SW 214 0 min 0,000 mm 0,0 UV-I 0 W/m 3,9 C 6,7 C 12,9 km/h (3 Bft) 100,00 %
22.02.2016 06:13 7,7 C 76 % 1011,4 hPa 0,0 l/m 9,3 km/h (2 Bft) SW 220 0 min 0,000 mm 0,0 UV-I 0 W/m 3,7 C 5,5 C 14,5 km/h (3 Bft) 100,00 %
22.02.2016 06:14 7,6 C 76 % 1011,5 hPa 0,0 l/m 12,8 km/h (3 Bft) SW 235 0 min 0,000 mm 0,0 UV-I 0 W/m 3,6 C 3,3 C 16,1 km/h (3 Bft) 96,30 %
22.02.2016 06:15 7,6 C 76 % 1011,3 hPa 0,0 l/m 8,1 km/h (2 Bft) S-SW 211 0 min 0,000 mm 0,0 UV-I 0 W/m 3,6 C 6,3 C 11,3 km/h (2 Bft) 100,00 %
22.02.2016 06:16 7,6 C 76 % 1011,3 hPa 0,0 l/m 10,3 km/h (2 Bft) SW 234 0 min 0,000 mm 0,0 UV-I 0 W/m 3,6 C 4,8 C 17,7 km/h (3 Bft) 100,00 %
22.02.2016 06:17 7,6 C 76 % 1011,4 hPa 0,0 l/m 10,5 km/h (2 Bft) SW 231 0 min 0,000 mm 0,0 UV-I 0 W/m 3,6 C 4,6 C 14,5 km/h (3 Bft) 100,00 %
22.02.2016 06:18 7,6 C 76 % 1011,4 hPa 0,0 l/m 10,3 km/h (2 Bft) SW 221 0 min 0,000 mm 0,0 UV-I 0 W/m 3,6 C 4,8 C 14,5 km/h (3 Bft) 100,00 %
22.02.2016 06:19 7,5 C 76 % 1011,3 hPa 0,0 l/m 8,5 km/h (2 Bft) W-SW 242 0 min 0,000 mm 0,0 UV-I 0 W/m 3,5 C 5,9 C 12,9 km/h (3 Bft) 100,00 %
22.02.2016 06:20 7,4 C 76 % 1011,4 hPa 0,0 l/m 9,8 km/h (2 Bft) W-SW 246 0 min 0,000 mm 0,0 UV-I 0 W/m 3,5 C 4,9 C 16,1 km/h (3 Bft) 100,00 %
22.02.2016 06:21 7,4 C 76 % 1011,5 hPa 0,0 l/m 9,7 km/h (2 Bft) SW 234 0 min 0,000 mm 0,0 UV-I 0 W/m 3,5 C 4,9 C 12,9 km/h (3 Bft) 100,00 %
22.02.2016 06:22 7,4 C 77 % 1011,6 hPa 0,0 l/m 9,8 km/h (2 Bft) W-SW 247 0 min 0,000 mm 0,0 UV-I 0 W/m 3,6 C 4,9 C 12,9 km/h (3 Bft) 100,00 %
22.02.2016 06:23 7,3 C 77 % 1011,5 hPa 0,0 l/m 9,0 km/h (2 Bft) S-SW 200 0 min 0,000 mm 0,0 UV-I 0 W/m 3,5 C 5,3 C 11,3 km/h (2 Bft) 100,00 %
22.02.2016 06:24 7,3 C 77 % 1011,5 hPa 0,0 l/m 9,1 km/h (2 Bft) S-SW 205 0 min 0,000 mm 0,0 UV-I 0 W/m 3,5 C 5,2 C 12,9 km/h (3 Bft) 96,67 %
22.02.2016 06:25 7,3 C 77 % 1011,5 hPa 0,0 l/m 6,7 km/h (2 Bft) SW 233 0 min 0,000 mm 0,0 UV-I 0 W/m 3,5 C 7,1 C 12,9 km/h (3 Bft) 100,00 %
22.02.2016 06:26 7,2 C 77 % 1011,5 hPa 0,0 l/m 9,1 km/h (2 Bft) W-SW 250 0 min 0,000 mm 0,0 UV-I 0 W/m 3,4 C 5,1 C 14,5 km/h (3 Bft) 100,00 %
22.02.2016 06:27 7,2 C 78 % 1011,5 hPa 0,0 l/m 8,7 km/h (2 Bft) W-SW 237 0 min 0,000 mm 0,0 UV-I 0 W/m 3,6 C 5,4 C 11,3 km/h (2 Bft) 100,00 %
22.02.2016 06:28 7,1 C 78 % 1011,6 hPa 0,0 l/m 12,5 km/h (3 Bft) W-SW 241 0 min 0,000 mm 0,0 UV-I 0 W/m 3,5 C 2,9 C 16,1 km/h (3 Bft) 100,00 %
22.02.2016 06:29 7,0 C 78 % 1011,6 hPa 0,0 l/m 9,0 km/h (2 Bft) SW 222 0 min 0,000 mm 0,0 UV-I 0 W/m 3,4 C 5,0 C 12,9 km/h (3 Bft) 100,00 %
22.02.2016 06:30 6,9 C 78 % 1011,6 hPa 0,0 l/m 8,6 km/h (2 Bft) SW 225 0 min 0,000 mm 0,0 UV-I 0 W/m 3,3 C 5,1 C 11,3 km/h (2 Bft) 100,00 %
22.02.2016 06:31 6,9 C 79 % 1011,6 hPa 0,0 l/m 8,6 km/h (2 Bft) SW 232 0 min 0,000 mm 0,0 UV-I 0 W/m 3,5 C 5,1 C 12,9 km/h (3 Bft) 100,00 %
22.02.2016 06:32 6,9 C 79 % 1011,5 hPa 0,0 l/m 10,3 km/h (2 Bft) SW 229 0 min 0,000 mm 0,0 UV-I 0 W/m 3,5 C 4,0 C 14,5 km/h (3 Bft) 100,00 %
22.02.2016 06:33 6,8 C 79 % 1011,5 hPa 0,0 l/m 8,8 km/h (2 Bft) SW 226 0 min 0,000 mm 0,0 UV-I 0 W/m 3,4 C 4,9 C 14,5 km/h (3 Bft) 100,00 %
22.02.2016 06:34 6,8 C 79 % 1011,5 hPa 0,0 l/m 8,0 km/h (2 Bft) S-SW 210 0 min 0,000 mm 0,0 UV-I 0 W/m 3,4 C 5,5 C 11,3 km/h (2 Bft) 100,00 %
22.02.2016 06:35 6,8 C 79 % 1011,4 hPa 0,0 l/m 7,1 km/h (2 Bft) S-SW 213 0 min 0,000 mm 0,0 UV-I 0 W/m 3,4 C 6,2 C 12,9 km/h (3 Bft) 100,00 %
22.02.2016 06:36 6,8 C 79 % 1011,5 hPa 0,0 l/m 9,6 km/h (2 Bft) SW 236 0 min 0,000 mm 0,0 UV-I 0 W/m 3,4 C 4,3 C 11,3 km/h (2 Bft) 100,00 %
22.02.2016 06:37 6,8 C 79 % 1011,4 hPa 0,0 l/m 10,5 km/h (2 Bft) SW 236 0 min 0,000 mm 0,0 UV-I 0 W/m 3,4 C 3,7 C 16,1 km/h (3 Bft) 100,00 %
22.02.2016 06:38 6,8 C 79 % 1011,4 hPa 0,0 l/m 10,3 km/h (2 Bft) SW 236 0 min 0,000 mm 0,0 UV-I 0 W/m 3,4 C 3,9 C 14,5 km/h (3 Bft) 100,00 %
22.02.2016 06:39 6,8 C 79 % 1011,4 hPa 0,0 l/m 8,5 km/h (2 Bft) SW 234 0 min 0,000 mm 0,0 UV-I 0 W/m 3,4 C 5,1 C 11,3 km/h (2 Bft) 100,00 %
22.02.2016 06:40 6,8 C 79 % 1011,4 hPa 0,0 l/m 8,4 km/h (2 Bft) SW 221 0 min 0,000 mm 0,0 UV-I 0 W/m 3,4 C 5,2 C 11,3 km/h (2 Bft) 100,00 %
22.02.2016 06:41 6,8 C 79 % 1011,4 hPa 0,0 l/m 9,5 km/h (2 Bft) SW 233 0 min 0,000 mm 0,0 UV-I 0 W/m 3,4 C 4,4 C 12,9 km/h (3 Bft) 100,00 %
22.02.2016 06:42 6,7 C 79 % 1011,5 hPa 0,0 l/m 9,9 km/h (2 Bft) SW 232 0 min 0,000 mm 0,0 UV-I 0 W/m 3,3 C 4,0 C 14,5 km/h (3 Bft) 100,00 %
22.02.2016 06:43 6,7 C 79 % 1011,4 hPa 0,0 l/m 9,8 km/h (2 Bft) SW 236 0 min 0,000 mm 0,0 UV-I 0 W/m 3,3 C 4,1 C 14,5 km/h (3 Bft) 100,00 %
22.02.2016 06:44 6,7 C 79 % 1011,4 hPa 0,0 l/m 9,8 km/h (2 Bft) SW 233 0 min 0,000 mm 0,0 UV-I 0 W/m 3,3 C 4,1 C 12,9 km/h (3 Bft) 100,00 %
22.02.2016 06:45 6,7 C 79 % 1011,4 hPa 0,0 l/m 10,8 km/h (2 Bft) W-SW 241 0 min 0,000 mm 0,0 UV-I 0 W/m 3,3 C 3,4 C 14,5 km/h (3 Bft) 100,00 %
22.02.2016 06:46 6,7 C 79 % 1011,4 hPa 0,0 l/m 10,0 km/h (2 Bft) W-SW 241 0 min 0,000 mm 0,0 UV-I 0 W/m 3,3 C 4,0 C 16,1 km/h (3 Bft) 100,00 %
22.02.2016 06:47 6,8 C 79 % 1011,4 hPa 0,0 l/m 8,3 km/h (2 Bft) SW 230 0 min 0,000 mm 0,0 UV-I 0 W/m 3,4 C 5,3 C 9,7 km/h (2 Bft) 100,00 %
22.02.2016 06:48 6,8 C 79 % 1011,4 hPa 0,0 l/m 9,5 km/h (2 Bft) SW 227 0 min 0,000 mm 0,0 UV-I 0 W/m 3,4 C 4,4 C 12,9 km/h (3 Bft) 95,65 %
22.02.2016 06:49 6,8 C 79 % 1011,4 hPa 0,0 l/m 9,7 km/h (2 Bft) SW 229 0 min 0,000 mm 0,0 UV-I 0 W/m 3,4 C 4,3 C 12,9 km/h (3 Bft) 100,00 %
22.02.2016 06:50 6,9 C 79 % 1011,4 hPa 0,0 l/m 9,6 km/h (2 Bft) SW 229 0 min 0,000 mm 0,0 UV-I 0 W/m 3,5 C 4,4 C 12,9 km/h (3 Bft) 100,00 %
22.02.2016 06:51 6,9 C 78 % 1011,4 hPa 0,0 l/m 12,1 km/h (2 Bft) SW 223 0 min 0,000 mm 0,0 UV-I 0 W/m 3,3 C 2,9 C 17,7 km/h (3 Bft) 100,00 %
22.02.2016 06:52 7,0 C 78 % 1011,3 hPa 0,0 l/m 10,7 km/h (2 Bft) SW 236 0 min 0,000 mm 0,0 UV-I 0 W/m 3,4 C 3,8 C 12,9 km/h (3 Bft) 100,00 %
22.02.2016 06:53 6,9 C 78 % 1011,3 hPa 0,0 l/m 11,2 km/h (2 Bft) SW 229 0 min 0,000 mm 0,0 UV-I 0 W/m 3,3 C 3,4 C 12,9 km/h (3 Bft) 100,00 %
22.02.2016 06:54 7,0 C 78 % 1011,3 hPa 0,0 l/m 12,2 km/h (2 Bft) SW 236 0 min 0,000 mm 0,0 UV-I 0 W/m 3,4 C 2,9 C 14,5 km/h (3 Bft) 100,00 %
22.02.2016 06:55 6,9 C 78 % 1011,2 hPa 0,0 l/m 11,9 km/h (2 Bft) SW 223 0 min 0,000 mm 0,0 UV-I 1 W/m 3,3 C 3,0 C 14,5 km/h (3 Bft) 100,00 %
22.02.2016 06:56 6,9 C 78 % 1011,2 hPa 0,0 l/m 10,3 km/h (2 Bft) SW 218 0 min 0,000 mm 0,0 UV-I 5 W/m 3,3 C 4,0 C 14,5 km/h (3 Bft) 100,00 %
22.02.2016 06:57 6,9 C 78 % 1011,2 hPa 0,0 l/m 9,2 km/h (2 Bft) SW 227 0 min 0,000 mm 0,0 UV-I 5 W/m 3,3 C 4,7 C 11,3 km/h (2 Bft) 96,15 %
22.02.2016 06:58 6,9 C 78 % 1011,2 hPa 0,0 l/m 9,5 km/h (2 Bft) SW 221 0 min 0,000 mm 0,0 UV-I 6 W/m 3,3 C 4,5 C 11,3 km/h (2 Bft) 100,00 %
22.02.2016 06:59 7,0 C 78 % 1011,2 hPa 0,0 l/m 9,0 km/h (2 Bft) SW 223 0 min 0,000 mm 0,0 UV-I 7 W/m 3,4 C 5,0 C 11,3 km/h (2 Bft) 100,00 %
22.02.2016 07:00 6,9 C 78 % 1011,2 hPa 0,0 l/m 8,8 km/h (2 Bft) SW 228 0 min 0,025 mm 0,0 UV-I 7 W/m 3,3 C 5,0 C 12,9 km/h (3 Bft) 100,00 %
22.02.2016 07:02 6,9 C 78 % 1011,2 hPa 0,0 l/m 11,1 km/h (2 Bft) W-SW 246 0 min 0,000 mm 0,0 UV-I 7 W/m 3,3 C 3,5 C 14,5 km/h (3 Bft) 100,00 %
22.02.2016 07:03 6,9 C 78 % 1011,3 hPa 0,0 l/m 11,0 km/h (2 Bft) SW 230 0 min 0,000 mm 0,0 UV-I 5 W/m 3,3 C 3,5 C 12,9 km/h (3 Bft) 100,00 %
22.02.2016 07:04 6,9 C 78 % 1011,3 hPa 0,0 l/m 9,9 km/h (2 Bft) SW 229 0 min 0,000 mm 0,0 UV-I 5 W/m 3,3 C 4,2 C 14,5 km/h (3 Bft) 100,00 %
22.02.2016 07:05 6,9 C 78 % 1011,3 hPa 0,0 l/m 10,7 km/h (2 Bft) SW 223 0 min 0,000 mm 0,0 UV-I 5 W/m 3,3 C 3,7 C 12,9 km/h (3 Bft) 91,30 %
22.02.2016 07:06 6,8 C 78 % 1011,4 hPa 0,0 l/m 8,8 km/h (2 Bft) SW 218 0 min 0,000 mm 0,0 UV-I 5 W/m 3,2 C 4,9 C 11,3 km/h (2 Bft) 100,00 %
22.02.2016 07:07 6,8 C 78 % 1011,4 hPa 0,0 l/m 10,4 km/h (2 Bft) SW 225 0 min 0,000 mm 0,0 UV-I 5 W/m 3,2 C 3,8 C 14,5 km/h (3 Bft) 100,00 %
22.02.2016 07:08 6,8 C 78 % 1011,4 hPa 0,0 l/m 9,7 km/h (2 Bft) SW 220 0 min 0,000 mm 0,0 UV-I 5 W/m 3,2 C 4,3 C 11,3 km/h (2 Bft) 96,55 %
22.02.2016 07:09 6,7 C 78 % 1011,3 hPa 0,0 l/m 8,2 km/h (2 Bft) SW 225 0 min 0,000 mm 0,0 UV-I 6 W/m 3,1 C 5,2 C 11,3 km/h (2 Bft) 100,00 %
22.02.2016 07:10 6,7 C 78 % 1011,3 hPa 0,0 l/m 7,0 km/h (2 Bft) W-SW 242 0 min 0,000 mm 0,0 UV-I 7 W/m 3,1 C 6,2 C 9,7 km/h (2 Bft) 100,00 %
22.02.2016 07:11 6,7 C 78 % 1011,3 hPa 0,0 l/m 5,7 km/h (1 Bft) W-SW 244 0 min 0,000 mm 0,0 UV-I 7 W/m 3,1 C 6,7 C 6,4 km/h (2 Bft) 100,00 %
22.02.2016 07:12 6,7 C 79 % 1011,3 hPa 0,0 l/m 7,0 km/h (2 Bft) W-SW 246 0 min 0,000 mm 0,0 UV-I 9 W/m 3,3 C 6,2 C 8,0 km/h (2 Bft) 95,65 %
22.02.2016 07:13 6,7 C 79 % 1011,3 hPa 0,0 l/m 7,5 km/h (2 Bft) SW 233 0 min 0,000 mm 0,0 UV-I 9 W/m 3,3 C 5,8 C 9,7 km/h (2 Bft) 100,00 %
22.02.2016 07:14 6,6 C 79 % 1011,4 hPa 0,0 l/m 8,4 km/h (2 Bft) SW 225 0 min 0,000 mm 0,0 UV-I 10 W/m 3,2 C 5,0 C 11,3 km/h (2 Bft) 100,00 %
22.02.2016 07:15 6,6 C 79 % 1011,4 hPa 0,0 l/m 9,8 km/h (2 Bft) SW 234 0 min 0,000 mm 0,0 UV-I 11 W/m 3,2 C 4,0 C 12,9 km/h (3 Bft) 100,00 %
22.02.2016 07:16 6,5 C 79 % 1011,4 hPa 0,0 l/m 9,4 km/h (2 Bft) W-SW 243 0 min 0,000 mm 0,0 UV-I 11 W/m 3,1 C 4,1 C 14,5 km/h (3 Bft) 100,00 %
22.02.2016 07:17 6,4 C 79 % 1011,4 hPa 0,0 l/m 9,8 km/h (2 Bft) SW 236 0 min 0,000 mm 0,0 UV-I 11 W/m 3,0 C 3,8 C 14,5 km/h (3 Bft) 100,00 %
22.02.2016 07:18 6,4 C 79 % 1011,4 hPa 0,0 l/m 8,0 km/h (2 Bft) W-SW 239 0 min 0,000 mm 0,0 UV-I 11 W/m 3,0 C 5,1 C 11,3 km/h (2 Bft) 100,00 %
22.02.2016 07:19 6,4 C 79 % 1011,4 hPa 0,0 l/m 10,1 km/h (2 Bft) S-SW 202 0 min 0,000 mm 0,0 UV-I 11 W/m 3,0 C 3,6 C 12,9 km/h (3 Bft) 96,30 %
22.02.2016 07:20 6,4 C 79 % 1011,4 hPa 0,0 l/m 8,0 km/h (2 Bft) W-SW 240 0 min 0,000 mm 0,0 UV-I 12 W/m 3,0 C 5,1 C 11,3 km/h (2 Bft) 100,00 %
22.02.2016 07:21 6,4 C 79 % 1011,4 hPa 0,0 l/m 9,6 km/h (2 Bft) W-SW 244 0 min 0,000 mm 0,0 UV-I 12 W/m 3,0 C 3,9 C 12,9 km/h (3 Bft) 100,00 %
22.02.2016 07:22 6,5 C 79 % 1011,4 hPa 0,0 l/m 11,2 km/h (2 Bft) W-SW 240 0 min 0,000 mm 0,0 UV-I 12 W/m 3,1 C 3,0 C 14,5 km/h (3 Bft) 100,00 %
22.02.2016 07:23 6,5 C 79 % 1011,3 hPa 0,0 l/m 11,6 km/h (2 Bft) SW 233 0 min 0,000 mm 0,0 UV-I 14 W/m 3,1 C 2,7 C 16,1 km/h (3 Bft) 100,00 %
22.02.2016 07:24 6,5 C 79 % 1011,4 hPa 0,0 l/m 10,2 km/h (2 Bft) SW 228 0 min 0,000 mm 0,0 UV-I 14 W/m 3,1 C 3,6 C 14,5 km/h (3 Bft) 100,00 %
22.02.2016 07:25 6,6 C 79 % 1011,4 hPa 0,0 l/m 11,0 km/h (2 Bft) SW 218 0 min 0,000 mm 0,0 UV-I 15 W/m 3,2 C 3,2 C 14,5 km/h (3 Bft) 100,00 %
22.02.2016 07:26 6,6 C 79 % 1011,4 hPa 0,0 l/m 9,2 km/h (2 Bft) W-SW 249 0 min 0,000 mm 0,0 UV-I 16 W/m 3,2 C 4,4 C 12,9 km/h (3 Bft) 96,55 %
22.02.2016 07:27 6,6 C 79 % 1011,4 hPa 0,0 l/m 11,3 km/h (2 Bft) W-SW 239 0 min 0,000 mm 0,0 UV-I 17 W/m 3,2 C 3,0 C 12,9 km/h (3 Bft) 100,00 %
22.02.2016 07:28 6,6 C 79 % 1011,4 hPa 0,0 l/m 10,8 km/h (2 Bft) SW 229 0 min 0,000 mm 0,0 UV-I 18 W/m 3,2 C 3,3 C 14,5 km/h (3 Bft) 96,30 %
22.02.2016 07:29 6,6 C 79 % 1011,4 hPa 0,0 l/m 9,9 km/h (2 Bft) SW 236 0 min 0,000 mm 0,0 UV-I 18 W/m 3,2 C 3,9 C 12,9 km/h (3 Bft) 100,00 %
22.02.2016 07:30 6,6 C 79 % 1011,4 hPa 0,0 l/m 9,3 km/h (2 Bft) W-SW 237 0 min 0,000 mm 0,0 UV-I 18 W/m 3,2 C 4,3 C 12,9 km/h (3 Bft) 93,33 %
22.02.2016 07:31 6,6 C 79 % 1011,5 hPa 0,0 l/m 9,5 km/h (2 Bft) SW 226 0 min 0,000 mm 0,0 UV-I 18 W/m 3,2 C 4,2 C 12,9 km/h (3 Bft) 100,00 %
22.02.2016 07:32 6,6 C 79 % 1011,5 hPa 0,0 l/m 8,1 km/h (2 Bft) W-SW 257 0 min 0,000 mm 0,0 UV-I 18 W/m 3,2 C 5,2 C 11,3 km/h (2 Bft) 95,83 %
22.02.2016 07:33 6,6 C 79 % 1011,4 hPa 0,0 l/m 7,3 km/h (2 Bft) W-SW 254 0 min 0,000 mm 0,0 UV-I 18 W/m 3,2 C 5,8 C 8,0 km/h (2 Bft) 96,55 %
22.02.2016 07:34 6,6 C 78 % 1011,5 hPa 0,0 l/m 7,6 km/h (2 Bft) W-SW 242 0 min 0,000 mm 0,0 UV-I 18 W/m 3,0 C 5,6 C 11,3 km/h (2 Bft) 100,00 %
22.02.2016 07:35 6,7 C 78 % 1011,5 hPa 0,0 l/m 8,6 km/h (2 Bft) W-SW 254 0 min 0,000 mm 0,0 UV-I 18 W/m 3,1 C 4,9 C 11,3 km/h (2 Bft) 96,15 %
22.02.2016 07:36 6,7 C 78 % 1011,5 hPa 0,0 l/m 6,6 km/h (2 Bft) W-SW 250 0 min 0,000 mm 0,0 UV-I 18 W/m 3,1 C 6,6 C 8,0 km/h (2 Bft) 100,00 %
22.02.2016 07:37 6,7 C 78 % 1011,5 hPa 0,0 l/m 6,6 km/h (2 Bft) W-SW 250 0 min 0,000 mm 0,0 UV-I 18 W/m 3,1 C 6,6 C 8,0 km/h (2 Bft) 92,31 %
22.02.2016 07:38 6,7 C 78 % 1011,5 hPa 0,0 l/m 7,5 km/h (2 Bft) S-SW 207 0 min 0,000 mm 0,0 UV-I 19 W/m 3,1 C 5,8 C 11,3 km/h (2 Bft) 100,00 %
22.02.2016 07:39 6,6 C 78 % 1011,5 hPa 0,0 l/m 8,9 km/h (2 Bft) S-SW 211 0 min 0,000 mm 0,0 UV-I 20 W/m 3,0 C 4,6 C 11,3 km/h (2 Bft) 96,15 %
22.02.2016 07:40 6,4 C 79 % 1011,5 hPa 0,0 l/m 8,9 km/h (2 Bft) SW 229 0 min 0,000 mm 0,0 UV-I 21 W/m 3,0 C 4,4 C 11,3 km/h (2 Bft) 100,00 %
22.02.2016 07:41 6,4 C 79 % 1011,6 hPa 0,0 l/m 8,9 km/h (2 Bft) SW 220 0 min 0,000 mm 0,0 UV-I 23 W/m 3,0 C 4,4 C 11,3 km/h (2 Bft) 94,12 %
22.02.2016 07:42 6,4 C 79 % 1011,6 hPa 0,0 l/m 8,2 km/h (2 Bft) S 188 0 min 0,000 mm 0,0 UV-I 25 W/m 3,0 C 4,9 C 11,3 km/h (2 Bft) 96,30 %
22.02.2016 07:43 6,4 C 79 % 1011,6 hPa 0,0 l/m 9,5 km/h (2 Bft) SW 216 0 min 0,000 mm 0,0 UV-I 25 W/m 3,0 C 4,0 C 12,9 km/h (3 Bft) 100,00 %
22.02.2016 07:44 6,5 C 79 % 1011,6 hPa 0,0 l/m 10,8 km/h (2 Bft) SW 229 0 min 0,000 mm 0,0 UV-I 27 W/m 3,1 C 3,2 C 12,9 km/h (3 Bft) 93,33 %
22.02.2016 07:45 6,6 C 78 % 1011,5 hPa 0,0 l/m 8,6 km/h (2 Bft) SW 222 0 min 0,000 mm 0,0 UV-I 29 W/m 3,0 C 4,8 C 9,7 km/h (2 Bft) 96,43 %
22.02.2016 07:46 6,6 C 78 % 1011,5 hPa 0,0 l/m 9,1 km/h (2 Bft) W-SW 242 0 min 0,000 mm 0,0 UV-I 30 W/m 3,0 C 4,5 C 12,9 km/h (3 Bft) 96,30 %
22.02.2016 07:47 6,6 C 78 % 1011,5 hPa 0,0 l/m 8,0 km/h (2 Bft) SW 229 0 min 0,000 mm 0,0 UV-I 32 W/m 3,0 C 5,3 C 9,7 km/h (2 Bft) 100,00 %
22.02.2016 07:48 6,6 C 78 % 1011,5 hPa 0,0 l/m 7,2 km/h (2 Bft) SW 214 0 min 0,000 mm 0,0 UV-I 32 W/m 3,0 C 5,9 C 9,7 km/h (2 Bft) 95,83 %
22.02.2016 07:49 6,6 C 78 % 1011,5 hPa 0,0 l/m 7,5 km/h (2 Bft) SW 217 0 min 0,000 mm 0,0 UV-I 32 W/m 3,0 C 5,7 C 9,7 km/h (2 Bft) 95,65 %
22.02.2016 07:50 6,6 C 78 % 1011,5 hPa 0,0 l/m 8,4 km/h (2 Bft) SW 227 0 min 0,000 mm 0,0 UV-I 32 W/m 3,0 C 5,0 C 11,3 km/h (2 Bft) 95,83 %
22.02.2016 07:51 6,6 C 78 % 1011,5 hPa 0,0 l/m 7,8 km/h (2 Bft) SW 217 0 min 0,000 mm 0,0 UV-I 33 W/m 3,0 C 5,4 C 9,7 km/h (2 Bft) 100,00 %
22.02.2016 07:52 6,6 C 78 % 1011,6 hPa 0,0 l/m 7,7 km/h (2 Bft) S-SW 207 0 min 0,000 mm 0,0 UV-I 33 W/m 3,0 C 5,5 C 9,7 km/h (2 Bft) 95,65 %
22.02.2016 07:53 6,6 C 78 % 1011,6 hPa 0,0 l/m 7,5 km/h (2 Bft) S-SW 194 0 min 0,000 mm 0,0 UV-I 35 W/m 3,0 C 5,7 C 9,7 km/h (2 Bft) 95,83 %
22.02.2016 07:54 6,6 C 78 % 1011,7 hPa 0,0 l/m 7,3 km/h (2 Bft) SW 236 0 min 0,000 mm 0,0 UV-I 42 W/m 3,0 C 5,8 C 9,7 km/h (2 Bft) 100,00 %
22.02.2016 07:55 6,6 C 78 % 1011,6 hPa 0,0 l/m 6,8 km/h (2 Bft) SW 227 0 min 0,000 mm 0,0 UV-I 45 W/m 3,0 C 6,3 C 9,7 km/h (2 Bft) 96,30 %
22.02.2016 07:56 6,7 C 78 % 1011,6 hPa 0,0 l/m 8,8 km/h (2 Bft) SW 227 0 min 0,000 mm 0,0 UV-I 46 W/m 3,1 C 4,8 C 11,3 km/h (2 Bft) 100,00 %
22.02.2016 07:57 6,7 C 78 % 1011,8 hPa 0,0 l/m 7,5 km/h (2 Bft) SW 223 0 min 0,000 mm 0,0 UV-I 54 W/m 3,1 C 5,8 C 11,3 km/h (2 Bft) 93,33 %
22.02.2016 07:58 6,7 C 78 % 1011,7 hPa 0,0 l/m 7,3 km/h (2 Bft) SW 219 0 min 0,000 mm 0,0 UV-I 52 W/m 3,1 C 6,0 C 9,7 km/h (2 Bft) 96,55 %
22.02.2016 07:59 6,7 C 78 % 1011,6 hPa 0,0 l/m 6,5 km/h (2 Bft) SW 231 0 min 0,000 mm 0,0 UV-I 51 W/m 3,1 C 6,6 C 8,0 km/h (2 Bft) 98,79 %
22.02.2016 08:00 6,6 C 78 % 1011,6 hPa 0,0 l/m 7,8 km/h (2 Bft) SW 230 0 min 0,000 mm 0,0 UV-I 54 W/m 3,0 C 5,4 C 9,7 km/h (2 Bft) 97,56 %
22.02.2016 08:01 6,6 C 78 % 1011,7 hPa 0,0 l/m 8,5 km/h (2 Bft) S-SW 207 0 min 0,026 mm 0,0 UV-I 59 W/m 3,0 C 4,9 C 11,3 km/h (2 Bft) 100,00 %
22.02.2016 08:02 6,6 C 79 % 1011,6 hPa 0,0 l/m 7,6 km/h (2 Bft) W-SW 238 0 min 0,000 mm 0,0 UV-I 71 W/m 3,2 C 5,6 C 9,7 km/h (2 Bft) 95,65 %
22.02.2016 08:03 6,6 C 79 % 1011,6 hPa 0,0 l/m 7,0 km/h (2 Bft) SW 224 0 min 0,000 mm 0,0 UV-I 69 W/m 3,2 C 6,1 C 9,7 km/h (2 Bft) 95,83 %
22.02.2016 08:04 6,6 C 79 % 1011,6 hPa 0,0 l/m 6,3 km/h (2 Bft) W-SW 244 0 min 0,000 mm 0,0 UV-I 67 W/m 3,2 C 6,6 C 11,3 km/h (2 Bft) 100,00 %
22.02.2016 08:05 6,6 C 79 % 1011,7 hPa 0,0 l/m 5,3 km/h (1 Bft) SW 232 0 min 0,000 mm 0,0 UV-I 70 W/m 3,2 C 6,6 C 8,0 km/h (2 Bft) 100,00 %
22.02.2016 08:06 6,6 C 79 % 1011,8 hPa 0,0 l/m 7,4 km/h (2 Bft) SW 228 0 min 0,000 mm 0,0 UV-I 66 W/m 3,2 C 5,8 C 9,7 km/h (2 Bft) 100,00 %
22.02.2016 08:07 6,6 C 79 % 1011,8 hPa 0,0 l/m 6,9 km/h (2 Bft) W-SW 249 0 min 0,000 mm 0,0 UV-I 41 W/m 3,2 C 6,2 C 12,9 km/h (3 Bft) 100,00 %
22.02.2016 08:08 6,6 C 79 % 1011,8 hPa 0,0 l/m 7,7 km/h (2 Bft) SW 225 0 min 0,000 mm 0,0 UV-I 52 W/m 3,2 C 5,5 C 11,3 km/h (2 Bft) 100,00 %
22.02.2016 08:09 6,6 C 79 % 1011,8 hPa 0,0 l/m 7,9 km/h (2 Bft) W-SW 246 0 min 0,000 mm 0,0 UV-I 89 W/m 3,2 C 5,4 C 14,5 km/h (3 Bft) 96,15 %
22.02.2016 08:10 6,6 C 79 % 1011,8 hPa 0,0 l/m 8,1 km/h (2 Bft) SW 223 1 min 0,000 mm 0,0 UV-I 107 W/m 3,2 C 5,2 C 11,3 km/h (2 Bft) 100,00 %
22.02.2016 08:11 6,6 C 79 % 1011,8 hPa 0,0 l/m 8,2 km/h (2 Bft) SW 234 1 min 0,000 mm 0,0 UV-I 111 W/m 3,2 C 5,1 C 11,3 km/h (2 Bft) 95,83 %
22.02.2016 08:12 6,6 C 80 % 1011,9 hPa 0,0 l/m 8,0 km/h (2 Bft) SW 232 1 min 0,000 mm 0,0 UV-I 114 W/m 3,4 C 5,3 C 11,3 km/h (2 Bft) 100,00 %
22.02.2016 08:13 6,7 C 79 % 1011,9 hPa 0,0 l/m 7,2 km/h (2 Bft) W-SW 248 1 min 0,000 mm 0,0 UV-I 117 W/m 3,3 C 6,0 C 9,7 km/h (2 Bft) 100,00 %
22.02.2016 08:14 6,8 C 79 % 1011,9 hPa 0,0 l/m 6,7 km/h (2 Bft) W-SW 252 1 min 0,000 mm 0,0 UV-I 120 W/m 3,4 C 6,6 C 8,0 km/h (2 Bft) 100,00 %
22.02.2016 08:15 6,8 C 79 % 1011,9 hPa 0,0 l/m 6,9 km/h (2 Bft) W-SW 250 1 min 0,000 mm 0,0 UV-I 121 W/m 3,4 C 6,4 C 8,0 km/h (2 Bft) 96,15 %
22.02.2016 08:16 6,9 C 79 % 1011,8 hPa 0,0 l/m 9,1 km/h (2 Bft) W 265 1 min 0,000 mm 0,0 UV-I 129 W/m 3,5 C 4,8 C 14,5 km/h (3 Bft) 100,00 %
22.02.2016 08:17 7,1 C 78 % 1011,9 hPa 0,0 l/m 8,5 km/h (2 Bft) W 261 1 min 0,000 mm 0,0 UV-I 132 W/m 3,5 C 5,4 C 11,3 km/h (2 Bft) 100,00 %
22.02.2016 08:18 7,2 C 78 % 1011,9 hPa 0,0 l/m 8,2 km/h (2 Bft) W-SW 244 1 min 0,000 mm 0,0 UV-I 134 W/m 3,6 C 5,8 C 11,3 km/h (2 Bft) 100,00 %
22.02.2016 08:19 7,3 C 78 % 1011,9 hPa 0,0 l/m 9,6 km/h (2 Bft) W-SW 244 1 min 0,000 mm 0,0 UV-I 136 W/m 3,7 C 4,9 C 14,5 km/h (3 Bft) 100,00 %
22.02.2016 08:20 7,3 C 77 % 1011,9 hPa 0,0 l/m 9,3 km/h (2 Bft) W-SW 244 1 min 0,000 mm 0,0 UV-I 139 W/m 3,5 C 5,1 C 12,9 km/h (3 Bft) 100,00 %
22.02.2016 08:21 7,4 C 77 % 1012,0 hPa 0,0 l/m 9,2 km/h (2 Bft) SW 226 1 min 0,000 mm 0,0 UV-I 140 W/m 3,6 C 5,3 C 14,5 km/h (3 Bft) 95,65 %
22.02.2016 08:22 7,5 C 77 % 1012,0 hPa 0,0 l/m 9,5 km/h (2 Bft) SW 231 1 min 0,000 mm 0,0 UV-I 141 W/m 3,7 C 5,2 C 12,9 km/h (3 Bft) 96,30 %
22.02.2016 08:23 7,6 C 77 % 1012,1 hPa 0,0 l/m 8,4 km/h (2 Bft) SW 233 1 min 0,000 mm 0,0 UV-I 149 W/m 3,8 C 6,0 C 12,9 km/h (3 Bft) 100,00 %
22.02.2016 08:24 7,6 C 77 % 1012,1 hPa 0,0 l/m 9,2 km/h (2 Bft) W-SW 250 1 min 0,000 mm 0,0 UV-I 152 W/m 3,8 C 5,5 C 12,9 km/h (3 Bft) 100,00 %
22.02.2016 08:25 7,7 C 77 % 1012,1 hPa 0,0 l/m 8,7 km/h (2 Bft) W 260 1 min 0,000 mm 0,0 UV-I 154 W/m 3,9 C 5,9 C 11,3 km/h (2 Bft) 100,00 %
22.02.2016 08:26 7,7 C 77 % 1012,1 hPa 0,0 l/m 11,1 km/h (2 Bft) W-SW 244 1 min 0,000 mm 0,0 UV-I 158 W/m 3,9 C 4,4 C 14,5 km/h (3 Bft) 100,00 %
22.02.2016 08:27 7,8 C 76 % 1012,0 hPa 0,0 l/m 7,5 km/h (2 Bft) SW 232 1 min 0,000 mm 0,0 UV-I 163 W/m 3,8 C 6,9 C 9,7 km/h (2 Bft) 100,00 %
22.02.2016 08:28 7,8 C 76 % 1012,0 hPa 0,0 l/m 8,5 km/h (2 Bft) SW 229 1 min 0,000 mm 0,0 UV-I 165 W/m 3,8 C 6,2 C 9,7 km/h (2 Bft) 100,00 %
22.02.2016 08:29 7,8 C 76 % 1012,0 hPa 0,0 l/m 10,0 km/h (2 Bft) W-SW 248 1 min 0,000 mm 0,0 UV-I 170 W/m 3,8 C 5,2 C 14,5 km/h (3 Bft) 100,00 %
22.02.2016 08:30 7,9 C 76 % 1012,0 hPa 0,0 l/m 11,5 km/h (2 Bft) W-SW 248 1 min 0,000 mm 0,0 UV-I 173 W/m 3,9 C 4,4 C 16,1 km/h (3 Bft) 100,00 %
22.02.2016 08:31 8,1 C 75 % 1012,0 hPa 0,0 l/m 14,8 km/h (3 Bft) W 260 1 min 0,000 mm 0,0 UV-I 177 W/m 3,9 C 2,9 C 17,7 km/h (3 Bft) 100,00 %
22.02.2016 08:32 8,2 C 73 % 1012,0 hPa 0,0 l/m 11,3 km/h (2 Bft) W-SW 257 1 min 0,000 mm 0,0 UV-I 182 W/m 3,7 C 4,8 C 14,5 km/h (3 Bft) 100,00 %
22.02.2016 08:33 8,4 C 73 % 1012,0 hPa 0,0 l/m 15,9 km/h (3 Bft) W-SW 257 1 min 0,000 mm 0,0 UV-I 187 W/m 3,8 C 2,8 C 20,9 km/h (4 Bft) 100,00 %
22.02.2016 08:34 8,6 C 72 % 1011,9 hPa 0,0 l/m 15,0 km/h (3 Bft) W 270 1 min 0,000 mm 0,0 UV-I 192 W/m 3,8 C 3,4 C 19,3 km/h (3 Bft) 100,00 %
22.02.2016 08:35 8,8 C 71 % 1012,0 hPa 0,0 l/m 11,1 km/h (2 Bft) W 265 1 min 0,000 mm 0,0 UV-I 196 W/m 3,8 C 5,6 C 17,7 km/h (3 Bft) 100,00 %
22.02.2016 08:36 8,9 C 70 % 1012,0 hPa 0,0 l/m 12,5 km/h (3 Bft) W 261 1 min 0,000 mm 0,0 UV-I 199 W/m 3,7 C 5,0 C 16,1 km/h (3 Bft) 95,65 %
22.02.2016 08:37 9,0 C 70 % 1012,0 hPa 0,0 l/m 12,2 km/h (2 Bft) W 261 1 min 0,000 mm 0,0 UV-I 202 W/m 3,8 C 5,3 C 16,1 km/h (3 Bft) 100,00 %
22.02.2016 08:38 9,2 C 69 % 1012,0 hPa 0,0 l/m 13,7 km/h (3 Bft) W 265 1 min 0,000 mm 0,0 UV-I 201 W/m 3,8 C 4,8 C 17,7 km/h (3 Bft) 95,65 %
22.02.2016 08:39 9,3 C 68 % 1012,0 hPa 0,0 l/m 10,7 km/h (2 Bft) W 266 1 min 0,000 mm 0,0 UV-I 179 W/m 3,7 C 6,4 C 17,7 km/h (3 Bft) 100,00 %
22.02.2016 08:40 9,4 C 68 % 1012,0 hPa 0,0 l/m 14,4 km/h (3 Bft) W-SW 243 1 min 0,000 mm 0,0 UV-I 182 W/m 3,8 C 4,7 C 22,5 km/h (4 Bft) 100,00 %
22.02.2016 08:41 9,5 C 68 % 1012,0 hPa 0,0 l/m 13,4 km/h (3 Bft) W-SW 249 0 min 0,000 mm 0,0 UV-I 131 W/m 3,9 C 5,2 C 17,7 km/h (3 Bft) 100,00 %
22.02.2016 08:42 9,6 C 67 % 1012,0 hPa 0,0 l/m 10,6 km/h (2 Bft) W-SW 246 0 min 0,000 mm 0,0 UV-I 137 W/m 3,8 C 6,8 C 14,5 km/h (3 Bft) 100,00 %
22.02.2016 08:43 9,6 C 66 % 1012,0 hPa 0,0 l/m 11,6 km/h (2 Bft) W-SW 242 0 min 0,000 mm 0,0 UV-I 128 W/m 3,6 C 6,3 C 14,5 km/h (3 Bft) 100,00 %
22.02.2016 08:44 9,7 C 66 % 1012,0 hPa 0,0 l/m 11,6 km/h (2 Bft) W 265 0 min 0,000 mm 0,0 UV-I 140 W/m 3,7 C 6,4 C 16,1 km/h (3 Bft) 100,00 %
22.02.2016 08:45 9,7 C 66 % 1012,0 hPa 0,0 l/m 8,4 km/h (2 Bft) NW 305 1 min 0,000 mm 0,0 UV-I 162 W/m 3,7 C 8,3 C 12,9 km/h (3 Bft) 96,55 %
22.02.2016 08:46 9,8 C 66 % 1012,0 hPa 0,0 l/m 9,7 km/h (2 Bft) W-NW 283 0 min 0,000 mm 0,0 UV-I 123 W/m 3,8 C 7,6 C 12,9 km/h (3 Bft) 100,00 %
22.02.2016 08:47 9,8 C 66 % 1011,9 hPa 0,0 l/m 14,3 km/h (3 Bft) W 261 0 min 0,000 mm 0,0 UV-I 138 W/m 3,8 C 5,2 C 17,7 km/h (3 Bft) 100,00 %
22.02.2016 08:48 9,8 C 66 % 1012,0 hPa 0,0 l/m 12,8 km/h (3 Bft) W-SW 244 0 min 0,000 mm 0,0 UV-I 107 W/m 3,8 C 5,9 C 16,1 km/h (3 Bft) 100,00 %
22.02.2016 08:49 9,8 C 66 % 1012,0 hPa 0,0 l/m 12,3 km/h (3 Bft) W-SW 257 0 min 0,000 mm 0,0 UV-I 148 W/m 3,8 C 6,1 C 14,5 km/h (3 Bft) 100,00 %
22.02.2016 08:50 9,8 C 65 % 1011,9 hPa 0,0 l/m 10,7 km/h (2 Bft) W 261 1 min 0,000 mm 0,0 UV-I 218 W/m 3,5 C 7,0 C 14,5 km/h (3 Bft) 100,00 %
22.02.2016 08:51 9,9 C 64 % 1011,9 hPa 0,0 l/m 10,6 km/h (2 Bft) W 263 1 min 0,000 mm 0,0 UV-I 240 W/m 3,4 C 7,1 C 16,1 km/h (3 Bft) 100,00 %
22.02.2016 08:52 9,9 C 65 % 1011,9 hPa 0,0 l/m 10,6 km/h (2 Bft) W-SW 254 1 min 0,000 mm 0,0 UV-I 243 W/m 3,6 C 7,1 C 17,7 km/h (3 Bft) 100,00 %
22.02.2016 08:53 10,1 C 65 % 1011,9 hPa 0,0 l/m 10,7 km/h (2 Bft) W-SW 237 1 min 0,000 mm 0,5 UV-I 244 W/m 3,8 C 7,3 C 16,1 km/h (3 Bft) 100,00 %
22.02.2016 08:54 10,1 C 64 % 1012,0 hPa 0,0 l/m 13,3 km/h (3 Bft) W-SW 248 1 min 0,000 mm 0,5 UV-I 244 W/m 3,6 C 6,0 C 14,5 km/h (3 Bft) 100,00 %
22.02.2016 08:55 10,2 C 64 % 1012,0 hPa 0,0 l/m 14,6 km/h (3 Bft) W-SW 238 1 min 0,000 mm 0,5 UV-I 245 W/m 3,7 C 5,5 C 17,7 km/h (3 Bft) 100,00 %
22.02.2016 08:56 10,2 C 63 % 1011,9 hPa 0,0 l/m 10,6 km/h (2 Bft) W 272 1 min 0,000 mm 0,5 UV-I 246 W/m 3,5 C 7,5 C 14,5 km/h (3 Bft) 100,00 %
22.02.2016 08:57 10,3 C 63 % 1011,9 hPa 0,0 l/m 10,9 km/h (2 Bft) W 281 1 min 0,000 mm 0,5 UV-I 250 W/m 3,6 C 7,4 C 12,9 km/h (3 Bft) 100,00 %
22.02.2016 08:58 10,3 C 63 % 1011,9 hPa 0,0 l/m 11,8 km/h (2 Bft) W-SW 258 1 min 0,000 mm 0,5 UV-I 252 W/m 3,6 C 7,0 C 16,1 km/h (3 Bft) 100,00 %
22.02.2016 08:59 10,4 C 63 % 1011,8 hPa 0,0 l/m 10,5 km/h (2 Bft) W-SW 254 1 min 0,000 mm 0,5 UV-I 255 W/m 3,7 C 7,8 C 12,9 km/h (3 Bft) 100,00 %
22.02.2016 09:00 10,4 C 63 % 1011,9 hPa 0,0 l/m 8,9 km/h (2 Bft) W 261 1 min 0,101 mm 0,5 UV-I 256 W/m 3,7 C 8,7 C 11,3 km/h (2 Bft) 100,00 %
22.02.2016 09:01 10,4 C 63 % 1011,8 hPa 0,0 l/m 10,1 km/h (2 Bft) W-SW 254 1 min 0,000 mm 0,5 UV-I 259 W/m 3,7 C 8,0 C 12,9 km/h (3 Bft) 100,00 %
22.02.2016 09:02 10,4 C 62 % 1011,8 hPa 0,0 l/m 11,5 km/h (2 Bft) W-SW 249 1 min 0,000 mm 0,5 UV-I 262 W/m 3,4 C 7,2 C 14,5 km/h (3 Bft) 100,00 %
22.02.2016 09:03 10,5 C 63 % 1011,7 hPa 0,0 l/m 10,1 km/h (2 Bft) W 259 1 min 0,000 mm 0,5 UV-I 262 W/m 3,8 C 8,1 C 14,5 km/h (3 Bft) 100,00 %
22.02.2016 09:04 10,5 C 63 % 1011,8 hPa 0,0 l/m 9,2 km/h (2 Bft) W 267 1 min 0,000 mm 0,5 UV-I 264 W/m 3,8 C 8,6 C 14,5 km/h (3 Bft) 100,00 %
22.02.2016 09:05 10,6 C 64 % 1011,8 hPa 0,0 l/m 9,3 km/h (2 Bft) W-SW 245 1 min 0,000 mm 0,5 UV-I 265 W/m 4,1 C 8,7 C 12,9 km/h (3 Bft) 100,00 %
22.02.2016 09:06 10,6 C 63 % 1011,8 hPa 0,0 l/m 9,5 km/h (2 Bft) SW 229 1 min 0,000 mm 0,5 UV-I 265 W/m 3,9 C 8,5 C 11,3 km/h (2 Bft) 100,00 %
22.02.2016 09:07 10,6 C 64 % 1011,9 hPa 0,0 l/m 13,1 km/h (3 Bft) W-SW 245 1 min 0,000 mm 0,6 UV-I 268 W/m 4,1 C 6,7 C 16,1 km/h (3 Bft) 100,00 %
22.02.2016 09:08 10,7 C 63 % 1011,9 hPa 0,0 l/m 12,5 km/h (3 Bft) SW 235 1 min 0,000 mm 0,6 UV-I 269 W/m 3,9 C 7,1 C 17,7 km/h (3 Bft) 100,00 %
22.02.2016 09:09 10,7 C 63 % 1011,9 hPa 0,0 l/m 9,0 km/h (2 Bft) W 261 1 min 0,000 mm 0,6 UV-I 272 W/m 3,9 C 9,0 C 12,9 km/h (3 Bft) 100,00 %
22.02.2016 09:10 10,7 C 63 % 1011,8 hPa 0,0 l/m 9,0 km/h (2 Bft) W-SW 250 1 min 0,000 mm 0,6 UV-I 273 W/m 3,9 C 9,0 C 12,9 km/h (3 Bft) 100,00 %
22.02.2016 09:11 10,7 C 63 % 1011,8 hPa 0,0 l/m 7,6 km/h (2 Bft) W 263 1 min 0,000 mm 0,6 UV-I 275 W/m 3,9 C 9,9 C 9,7 km/h (2 Bft) 100,00 %
22.02.2016 09:12 10,8 C 63 % 1011,8 hPa 0,0 l/m 13,1 km/h (3 Bft) W-SW 254 1 min 0,000 mm 0,6 UV-I 263 W/m 4,0 C 6,9 C 14,5 km/h (3 Bft) 100,00 %
22.02.2016 09:13 10,8 C 63 % 1011,9 hPa 0,0 l/m 13,0 km/h (3 Bft) W-SW 252 1 min 0,000 mm 0,6 UV-I 261 W/m 4,0 C 7,0 C 16,1 km/h (3 Bft) 100,00 %
22.02.2016 09:14 10,8 C 63 % 1011,8 hPa 0,0 l/m 12,0 km/h (2 Bft) W-SW 247 1 min 0,000 mm 0,6 UV-I 268 W/m 4,0 C 7,4 C 16,1 km/h (3 Bft) 100,00 %
22.02.2016 09:15 10,8 C 63 % 1011,8 hPa 0,0 l/m 11,5 km/h (2 Bft) W-SW 252 1 min 0,000 mm 0,6 UV-I 271 W/m 4,0 C 7,7 C 14,5 km/h (3 Bft) 100,00 %
22.02.2016 09:16 10,8 C 63 % 1011,9 hPa 0,0 l/m 10,4 km/h (2 Bft) W-SW 252 1 min 0,000 mm 0,6 UV-I 265 W/m 4,0 C 8,3 C 12,9 km/h (3 Bft) 95,65 %
22.02.2016 09:17 10,9 C 64 % 1011,9 hPa 0,0 l/m 11,1 km/h (2 Bft) W-SW 238 1 min 0,000 mm 0,6 UV-I 269 W/m 4,4 C 8,0 C 14,5 km/h (3 Bft) 100,00 %
22.02.2016 09:18 10,9 C 65 % 1011,9 hPa 0,0 l/m 9,1 km/h (2 Bft) S-SW 210 1 min 0,000 mm 0,6 UV-I 283 W/m 4,6 C 9,1 C 11,3 km/h (2 Bft) 100,00 %
22.02.2016 09:19 10,9 C 64 % 1011,9 hPa 0,0 l/m 9,6 km/h (2 Bft) S-SW 208 1 min 0,000 mm 0,6 UV-I 289 W/m 4,4 C 8,8 C 14,5 km/h (3 Bft) 93,33 %
22.02.2016 09:20 10,9 C 64 % 1011,9 hPa 0,0 l/m 9,1 km/h (2 Bft) W-SW 247 1 min 0,000 mm 0,7 UV-I 290 W/m 4,4 C 9,1 C 11,3 km/h (2 Bft) 100,00 %
22.02.2016 09:21 11,0 C 64 % 1012,0 hPa 0,0 l/m 11,0 km/h (2 Bft) SW 236 1 min 0,000 mm 0,7 UV-I 294 W/m 4,5 C 8,2 C 14,5 km/h (3 Bft) 96,67 %
22.02.2016 09:22 11,1 C 64 % 1012,0 hPa 0,0 l/m 11,0 km/h (2 Bft) W-SW 241 1 min 0,000 mm 0,7 UV-I 294 W/m 4,6 C 8,3 C 14,5 km/h (3 Bft) 100,00 %
22.02.2016 09:23 11,1 C 64 % 1012,1 hPa 0,0 l/m 6,6 km/h (2 Bft) W-SW 248 1 min 0,000 mm 0,7 UV-I 292 W/m 4,6 C 11,0 C 11,3 km/h (2 Bft) 96,30 %
22.02.2016 09:24 11,2 C 64 % 1012,1 hPa 0,0 l/m 6,6 km/h (2 Bft) W-SW 250 1 min 0,000 mm 0,7 UV-I 291 W/m 4,6 C 11,1 C 8,0 km/h (2 Bft) 96,55 %
22.02.2016 09:25 11,2 C 63 % 1012,1 hPa 0,0 l/m 8,9 km/h (2 Bft) SW 220 1 min 0,000 mm 0,7 UV-I 299 W/m 4,4 C 9,6 C 12,9 km/h (3 Bft) 100,00 %
22.02.2016 09:26 11,2 C 64 % 1012,1 hPa 0,0 l/m 9,8 km/h (2 Bft) S-SW 209 1 min 0,000 mm 0,7 UV-I 303 W/m 4,6 C 9,0 C 16,1 km/h (3 Bft) 96,30 %
22.02.2016 09:27 11,3 C 63 % 1012,2 hPa 0,0 l/m 6,1 km/h (2 Bft) W-SW 238 1 min 0,000 mm 0,7 UV-I 290 W/m 4,5 C 11,3 C 9,7 km/h (2 Bft) 100,00 %
22.02.2016 09:28 11,3 C 63 % 1012,2 hPa 0,0 l/m 6,5 km/h (2 Bft) W-SW 242 1 min 0,000 mm 0,7 UV-I 312 W/m 4,5 C 11,3 C 9,7 km/h (2 Bft) 96,15 %
22.02.2016 09:29 11,3 C 63 % 1012,2 hPa 0,0 l/m 8,5 km/h (2 Bft) W 264 1 min 0,000 mm 0,7 UV-I 309 W/m 4,5 C 9,9 C 12,9 km/h (3 Bft) 91,67 %
22.02.2016 09:30 11,4 C 64 % 1012,2 hPa 0,0 l/m 9,2 km/h (2 Bft) W 259 1 min 0,000 mm 0,7 UV-I 292 W/m 4,8 C 9,6 C 12,9 km/h (3 Bft) 91,67 %
22.02.2016 09:31 11,4 C 63 % 1012,1 hPa 0,0 l/m 5,9 km/h (2 Bft) W-NW 282 1 min 0,000 mm 0,7 UV-I 281 W/m 4,6 C 11,4 C 9,7 km/h (2 Bft) 100,00 %
22.02.2016 09:32 11,5 C 63 % 1012,1 hPa 0,0 l/m 7,2 km/h (2 Bft) W-NW 282 1 min 0,000 mm 0,8 UV-I 281 W/m 4,7 C 11,0 C 11,3 km/h (2 Bft) 95,83 %
22.02.2016 09:33 11,6 C 63 % 1012,1 hPa 0,0 l/m 4,7 km/h (1 Bft) W 278 1 min 0,000 mm 0,7 UV-I 303 W/m 4,8 C 11,6 C 6,4 km/h (2 Bft) 96,55 %
22.02.2016 09:34 11,6 C 63 % 1012,2 hPa 0,0 l/m 4,2 km/h (1 Bft) W-NW 282 1 min 0,000 mm 0,8 UV-I 258 W/m 4,8 C 11,6 C 4,8 km/h (1 Bft) 95,83 %
22.02.2016 09:35 11,7 C 63 % 1012,2 hPa 0,0 l/m 4,0 km/h (1 Bft) W 271 1 min 0,000 mm 0,8 UV-I 313 W/m 4,9 C 11,7 C 6,4 km/h (2 Bft) 95,65 %
22.02.2016 09:36 11,7 C 63 % 1012,2 hPa 0,0 l/m 4,5 km/h (1 Bft) W-NW 286 1 min 0,000 mm 0,8 UV-I 278 W/m 4,9 C 11,7 C 6,4 km/h (2 Bft) 100,00 %
22.02.2016 09:37 11,8 C 63 % 1012,1 hPa 0,0 l/m 6,0 km/h (2 Bft) W-SW 254 1 min 0,000 mm 0,8 UV-I 310 W/m 5,0 C 11,8 C 9,7 km/h (2 Bft) 95,65 %
22.02.2016 09:38 11,8 C 62 % 1012,1 hPa 0,0 l/m 6,4 km/h (2 Bft) W-SW 252 1 min 0,000 mm 0,8 UV-I 277 W/m 4,8 C 11,8 C 11,3 km/h (2 Bft) 100,00 %
22.02.2016 09:39 11,8 C 62 % 1012,1 hPa 0,0 l/m 6,9 km/h (2 Bft) W-NW 283 1 min 0,000 mm 0,8 UV-I 236 W/m 4,8 C 11,5 C 9,7 km/h (2 Bft) 96,15 %
22.02.2016 09:40 11,8 C 62 % 1012,1 hPa 0,0 l/m 3,1 km/h (1 Bft) W-NW 287 1 min 0,000 mm 0,8 UV-I 234 W/m 4,8 C 11,8 C 6,4 km/h (2 Bft) 100,00 %
22.02.2016 09:41 11,8 C 62 % 1012,1 hPa 0,0 l/m 2,3 km/h (1 Bft) W-NW 287 1 min 0,000 mm 0,8 UV-I 259 W/m 4,8 C 11,8 C 4,8 km/h (1 Bft) 95,65 %
22.02.2016 09:42 11,8 C 64 % 1012,1 hPa 0,0 l/m 2,4 km/h (1 Bft) W 271 1 min 0,000 mm 0,8 UV-I 293 W/m 5,2 C 11,8 C 4,8 km/h (1 Bft) 100,00 %
22.02.2016 09:43 11,8 C 63 % 1012,1 hPa 0,0 l/m 4,5 km/h (1 Bft) W 271 1 min 0,000 mm 0,9 UV-I 300 W/m 5,0 C 11,8 C 6,4 km/h (2 Bft) 95,83 %
22.02.2016 09:44 11,8 C 64 % 1012,1 hPa 0,0 l/m 1,3 km/h (1 Bft) W 271 1 min 0,000 mm 0,9 UV-I 345 W/m 5,2 C 11,8 C 3,2 km/h (1 Bft) 88,46 %
22.02.2016 09:45 11,8 C 64 % 1012,1 hPa 0,0 l/m 1,4 km/h (1 Bft) W 271 1 min 0,000 mm 0,9 UV-I 326 W/m 5,2 C 11,8 C 3,2 km/h (1 Bft) 100,00 %
22.02.2016 09:46 11,9 C 63 % 1012,1 hPa 0,0 l/m 2,3 km/h (1 Bft) W 271 1 min 0,000 mm 0,8 UV-I 260 W/m 5,1 C 11,9 C 3,2 km/h (1 Bft) 100,00 %
22.02.2016 09:47 11,9 C 63 % 1012,1 hPa 0,0 l/m 1,4 km/h (1 Bft) W 271 1 min 0,000 mm 0,9 UV-I 243 W/m 5,1 C 11,9 C 3,2 km/h (1 Bft) 100,00 %
22.02.2016 09:48 12,0 C 65 % 1012,1 hPa 0,0 l/m 1,2 km/h (1 Bft) W 271 1 min 0,000 mm 0,9 UV-I 276 W/m 5,6 C 12,0 C 3,2 km/h (1 Bft) 93,33 %
22.02.2016 09:49 12,1 C 65 % 1012,0 hPa 0,0 l/m 1,9 km/h (1 Bft) W 271 1 min 0,000 mm 0,9 UV-I 308 W/m 5,7 C 12,1 C 3,2 km/h (1 Bft) 100,00 %
22.02.2016 09:50 12,1 C 64 % 1012,0 hPa 0,0 l/m 3,7 km/h (1 Bft) NW 315 1 min 0,000 mm 0,9 UV-I 263 W/m 5,5 C 12,1 C 6,4 km/h (2 Bft) 100,00 %
22.02.2016 09:51 12,2 C 64 % 1012,0 hPa 0,0 l/m 4,0 km/h (1 Bft) W-NW 291 1 min 0,000 mm 1,0 UV-I 262 W/m 5,6 C 12,2 C 9,7 km/h (2 Bft) 100,00 %
22.02.2016 09:52 12,2 C 63 % 1012,0 hPa 0,0 l/m 3,1 km/h (1 Bft) NW 321 1 min 0,000 mm 1,0 UV-I 351 W/m 5,4 C 12,2 C 4,8 km/h (1 Bft) 100,00 %
22.02.2016 09:53 12,3 C 64 % 1012,0 hPa 0,0 l/m 1,3 km/h (1 Bft) NW 321 1 min 0,000 mm 1,0 UV-I 363 W/m 5,7 C 12,3 C 3,2 km/h (1 Bft) 100,00 %
22.02.2016 09:54 12,3 C 64 % 1012,0 hPa 0,0 l/m 1,8 km/h (1 Bft) NW 321 1 min 0,000 mm 1,0 UV-I 366 W/m 5,7 C 12,3 C 3,2 km/h (1 Bft) 100,00 %
22.02.2016 09:55 12,4 C 64 % 1011,9 hPa 0,0 l/m 2,1 km/h (1 Bft) W 273 1 min 0,000 mm 1,0 UV-I 361 W/m 5,8 C 12,4 C 4,8 km/h (1 Bft) 100,00 %
22.02.2016 09:56 12,4 C 65 % 1011,9 hPa 0,0 l/m 3,5 km/h (1 Bft) W-NW 283 1 min 0,000 mm 1,1 UV-I 370 W/m 6,0 C 12,4 C 4,8 km/h (1 Bft) 100,00 %
22.02.2016 09:57 12,5 C 63 % 1011,9 hPa 0,0 l/m 3,6 km/h (1 Bft) W 281 1 min 0,000 mm 1,1 UV-I 373 W/m 5,7 C 12,5 C 4,8 km/h (1 Bft) 100,00 %
22.02.2016 09:58 12,6 C 65 % 1011,9 hPa 0,0 l/m 1,5 km/h (1 Bft) W 281 1 min 0,000 mm 1,1 UV-I 368 W/m 6,2 C 12,6 C 3,2 km/h (1 Bft) 100,00 %
22.02.2016 09:59 12,6 C 67 % 1011,9 hPa 0,0 l/m 0,5 km/h (0 Bft) W 281 1 min 0,000 mm 1,1 UV-I 368 W/m 6,6 C 12,6 C 1,6 km/h (1 Bft) 100,00 %
22.02.2016 10:00 12,6 C 66 % 1011,9 hPa 0,0 l/m 1,3 km/h (1 Bft) W 281 1 min 0,000 mm 1,1 UV-I 377 W/m 6,4 C 12,6 C 3,2 km/h (1 Bft) 100,00 %
22.02.2016 10:01 12,6 C 64 % 1011,9 hPa 0,0 l/m 3,5 km/h (1 Bft) W-NW 300 1 min 0,178 mm 1,1 UV-I 365 W/m 6,0 C 12,6 C 6,4 km/h (2 Bft) 100,00 %
22.02.2016 10:02 12,7 C 64 % 1011,8 hPa 0,0 l/m 1,7 km/h (1 Bft) W-NW 300 1 min 0,000 mm 1,1 UV-I 353 W/m 6,1 C 12,7 C 3,2 km/h (1 Bft) 100,00 %
22.02.2016 10:03 12,7 C 66 % 1011,8 hPa 0,0 l/m 1,1 km/h (1 Bft) W-NW 300 1 min 0,000 mm 1,1 UV-I 373 W/m 6,5 C 12,7 C 3,2 km/h (1 Bft) 100,00 %
22.02.2016 10:04 12,7 C 65 % 1011,8 hPa 0,0 l/m 4,3 km/h (1 Bft) W 259 1 min 0,000 mm 1,1 UV-I 373 W/m 6,3 C 12,7 C 9,7 km/h (2 Bft) 100,00 %
22.02.2016 10:05 12,7 C 66 % 1011,8 hPa 0,0 l/m 4,7 km/h (1 Bft) W-SW 252 1 min 0,000 mm 1,2 UV-I 381 W/m 6,5 C 12,7 C 8,0 km/h (2 Bft) 100,00 %
22.02.2016 10:06 12,7 C 63 % 1011,8 hPa 0,0 l/m 10,2 km/h (2 Bft) W 275 1 min 0,000 mm 1,2 UV-I 384 W/m 5,8 C 10,5 C 12,9 km/h (3 Bft) 100,00 %
22.02.2016 10:07 12,7 C 64 % 1011,8 hPa 0,0 l/m 7,4 km/h (2 Bft) W 260 1 min 0,000 mm 1,2 UV-I 385 W/m 6,1 C 12,1 C 11,3 km/h (2 Bft) 100,00 %
22.02.2016 10:08 12,7 C 65 % 1011,8 hPa 0,0 l/m 6,0 km/h (2 Bft) W-SW 250 1 min 0,000 mm 1,2 UV-I 385 W/m 6,3 C 12,7 C 9,7 km/h (2 Bft) 100,00 %
22.02.2016 10:10 12,8 C 63 % 1011,8 hPa 0,0 l/m 6,4 km/h (2 Bft) W 270 2 min 0,000 mm 1,2 UV-I 388 W/m 5,9 C 12,8 C 12,9 km/h (3 Bft) 98,25 %
22.02.2016 10:13 12,8 C 63 % 1011,8 hPa 0,0 l/m 5,2 km/h (1 Bft) W-SW 246 3 min 0,000 mm 1,3 UV-I 394 W/m 5,9 C 12,8 C 9,7 km/h (2 Bft) 100,00 %
22.02.2016 10:14 12,9 C 64 % 1011,8 hPa 0,0 l/m 2,1 km/h (1 Bft) NW 306 1 min 0,000 mm 1,3 UV-I 396 W/m 6,3 C 12,9 C 3,2 km/h (1 Bft) 100,00 %
22.02.2016 10:15 12,9 C 64 % 1011,8 hPa 0,0 l/m 2,7 km/h (1 Bft) W-SW 253 1 min 0,000 mm 1,3 UV-I 390 W/m 6,3 C 12,9 C 6,4 km/h (2 Bft) 100,00 %
22.02.2016 10:16 13,1 C 65 % 1011,9 hPa 0,0 l/m 4,8 km/h (1 Bft) NW 320 1 min 0,000 mm 1,3 UV-I 399 W/m 6,7 C 13,1 C 9,7 km/h (2 Bft) 100,00 %
22.02.2016 10:17 13,1 C 64 % 1011,9 hPa 0,0 l/m 4,1 km/h (1 Bft) W 259 1 min 0,000 mm 1,3 UV-I 388 W/m 6,4 C 13,1 C 6,4 km/h (2 Bft) 100,00 %
22.02.2016 10:18 13,1 C 65 % 1011,9 hPa 0,0 l/m 3,4 km/h (1 Bft) W 281 1 min 0,000 mm 1,3 UV-I 341 W/m 6,7 C 13,1 C 4,8 km/h (1 Bft) 100,00 %
22.02.2016 10:19 13,1 C 65 % 1011,9 hPa 0,0 l/m 5,3 km/h (1 Bft) W-NW 290 1 min 0,000 mm 1,3 UV-I 391 W/m 6,7 C 13,1 C 9,7 km/h (2 Bft) 100,00 %
22.02.2016 10:20 13,1 C 64 % 1011,8 hPa 0,0 l/m 7,1 km/h (2 Bft) W 264 1 min 0,000 mm 1,3 UV-I 404 W/m 6,4 C 12,7 C 11,3 km/h (2 Bft) 100,00 %
22.02.2016 10:21 13,1 C 64 % 1011,8 hPa 0,0 l/m 6,8 km/h (2 Bft) W-NW 297 1 min 0,000 mm 1,3 UV-I 406 W/m 6,4 C 12,9 C 14,5 km/h (3 Bft) 100,00 %
22.02.2016 10:22 13,1 C 63 % 1011,8 hPa 0,0 l/m 5,6 km/h (1 Bft) W-NW 287 1 min 0,000 mm 1,3 UV-I 402 W/m 6,2 C 13,1 C 6,4 km/h (2 Bft) 100,00 %
22.02.2016 10:23 13,1 C 65 % 1011,8 hPa 0,0 l/m 6,3 km/h (2 Bft) W-SW 237 1 min 0,000 mm 1,3 UV-I 405 W/m 6,7 C 13,1 C 11,3 km/h (2 Bft) 100,00 %
22.02.2016 10:24 13,1 C 65 % 1011,9 hPa 0,0 l/m 6,0 km/h (2 Bft) W-NW 291 1 min 0,000 mm 1,3 UV-I 407 W/m 6,7 C 13,1 C 9,7 km/h (2 Bft) 100,00 %
22.02.2016 10:25 13,1 C 65 % 1011,8 hPa 0,0 l/m 3,8 km/h (1 Bft) W 265 1 min 0,000 mm 1,4 UV-I 408 W/m 6,7 C 13,1 C 6,4 km/h (2 Bft) 95,65 %
22.02.2016 10:26 13,1 C 65 % 1011,9 hPa 0,0 l/m 4,5 km/h (1 Bft) NW 314 1 min 0,000 mm 1,4 UV-I 412 W/m 6,7 C 13,1 C 11,3 km/h (2 Bft) 100,00 %
22.02.2016 10:27 13,1 C 66 % 1011,8 hPa 0,0 l/m 2,3 km/h (1 Bft) W 263 1 min 0,000 mm 1,4 UV-I 413 W/m 6,9 C 13,1 C 6,4 km/h (2 Bft) 100,00 %
22.02.2016 10:28 13,2 C 66 % 1011,8 hPa 0,0 l/m 3,5 km/h (1 Bft) W-NW 303 1 min 0,000 mm 1,4 UV-I 414 W/m 7,0 C 13,2 C 4,8 km/h (1 Bft) 100,00 %
22.02.2016 10:29 13,2 C 67 % 1011,8 hPa 0,0 l/m 2,7 km/h (1 Bft) W 279 1 min 0,000 mm 1,4 UV-I 415 W/m 7,2 C 13,2 C 4,8 km/h (1 Bft) 100,00 %
22.02.2016 10:30 13,3 C 65 % 1011,8 hPa 0,0 l/m 6,9 km/h (2 Bft) W 268 1 min 0,000 mm 1,4 UV-I 418 W/m 6,9 C 13,0 C 9,7 km/h (2 Bft) 100,00 %
22.02.2016 10:31 13,3 C 65 % 1011,9 hPa 0,0 l/m 5,1 km/h (1 Bft) W 273 1 min 0,000 mm 1,4 UV-I 418 W/m 6,9 C 13,3 C 6,4 km/h (2 Bft) 100,00 %
22.02.2016 10:32 13,3 C 64 % 1011,8 hPa 0,0 l/m 6,1 km/h (2 Bft) W-NW 300 1 min 0,000 mm 1,4 UV-I 418 W/m 6,6 C 13,3 C 14,5 km/h (3 Bft) 100,00 %
22.02.2016 10:33 13,3 C 67 % 1011,8 hPa 0,0 l/m 4,4 km/h (1 Bft) W-NW 294 1 min 0,000 mm 1,4 UV-I 420 W/m 7,3 C 13,3 C 11,3 km/h (2 Bft) 100,00 %
22.02.2016 10:34 13,3 C 66 % 1011,8 hPa 0,0 l/m 5,1 km/h (1 Bft) W-NW 294 1 min 0,000 mm 1,4 UV-I 423 W/m 7,1 C 13,3 C 9,7 km/h (2 Bft) 100,00 %
22.02.2016 10:35 13,4 C 65 % 1011,8 hPa 0,0 l/m 7,2 km/h (2 Bft) W-NW 285 1 min 0,000 mm 1,5 UV-I 424 W/m 7,0 C 12,9 C 11,3 km/h (2 Bft) 100,00 %
22.02.2016 10:36 13,4 C 65 % 1011,8 hPa 0,0 l/m 5,6 km/h (1 Bft) W 273 1 min 0,000 mm 1,5 UV-I 424 W/m 7,0 C 13,4 C 9,7 km/h (2 Bft) 100,00 %
22.02.2016 10:37 13,4 C 66 % 1011,7 hPa 0,0 l/m 3,3 km/h (1 Bft) W-SW 253 1 min 0,000 mm 1,5 UV-I 427 W/m 7,2 C 13,4 C 6,4 km/h (2 Bft) 100,00 %
22.02.2016 10:38 13,5 C 64 % 1011,7 hPa 0,0 l/m 4,9 km/h (1 Bft) W-SW 253 1 min 0,000 mm 1,5 UV-I 425 W/m 6,8 C 13,5 C 6,4 km/h (2 Bft) 100,00 %
22.02.2016 10:39 13,4 C 63 % 1011,7 hPa 0,0 l/m 4,7 km/h (1 Bft) NW 319 1 min 0,000 mm 1,5 UV-I 428 W/m 6,5 C 13,4 C 6,4 km/h (2 Bft) 100,00 %
22.02.2016 10:40 13,4 C 65 % 1011,7 hPa 0,0 l/m 3,7 km/h (1 Bft) W 279 1 min 0,000 mm 1,5 UV-I 430 W/m 7,0 C 13,4 C 6,4 km/h (2 Bft) 100,00 %
22.02.2016 10:41 13,5 C 64 % 1011,7 hPa 0,0 l/m 5,2 km/h (1 Bft) W 278 1 min 0,000 mm 1,5 UV-I 432 W/m 6,8 C 13,5 C 6,4 km/h (2 Bft) 100,00 %
22.02.2016 10:42 13,5 C 64 % 1011,7 hPa 0,0 l/m 4,2 km/h (1 Bft) W 267 1 min 0,000 mm 1,5 UV-I 432 W/m 6,8 C 13,5 C 6,4 km/h (2 Bft) 100,00 %
22.02.2016 10:43 13,5 C 63 % 1011,6 hPa 0,0 l/m 3,1 km/h (1 Bft) W 263 1 min 0,000 mm 1,5 UV-I 436 W/m 6,6 C 13,5 C 4,8 km/h (1 Bft) 100,00 %
22.02.2016 10:44 13,6 C 65 % 1011,6 hPa 0,0 l/m 3,4 km/h (1 Bft) W-NW 287 1 min 0,000 mm 1,5 UV-I 436 W/m 7,1 C 13,6 C 6,4 km/h (2 Bft) 100,00 %
22.02.2016 10:45 13,6 C 63 % 1011,6 hPa 0,0 l/m 8,2 km/h (2 Bft) W-NW 291 1 min 0,000 mm 1,5 UV-I 437 W/m 6,7 C 12,5 C 14,5 km/h (3 Bft) 100,00 %
22.02.2016 10:46 13,6 C 62 % 1011,6 hPa 0,0 l/m 7,8 km/h (2 Bft) W 275 1 min 0,000 mm 1,6 UV-I 438 W/m 6,5 C 12,7 C 12,9 km/h (3 Bft) 100,00 %
22.02.2016 10:47 13,6 C 63 % 1011,6 hPa 0,0 l/m 4,7 km/h (1 Bft) W-SW 244 1 min 0,000 mm 1,6 UV-I 439 W/m 6,7 C 13,6 C 6,4 km/h (2 Bft) 100,00 %
22.02.2016 10:48 13,6 C 64 % 1011,6 hPa 0,0 l/m 2,8 km/h (1 Bft) W-NW 300 1 min 0,000 mm 1,6 UV-I 439 W/m 6,9 C 13,6 C 4,8 km/h (1 Bft) 100,00 %
22.02.2016 10:49 13,7 C 64 % 1011,6 hPa 0,0 l/m 2,7 km/h (1 Bft) W-NW 297 1 min 0,000 mm 1,6 UV-I 442 W/m 7,0 C 13,7 C 4,8 km/h (1 Bft) 100,00 %
22.02.2016 10:50 13,7 C 64 % 1011,6 hPa 0,0 l/m 4,8 km/h (1 Bft) NW 325 1 min 0,000 mm 1,6 UV-I 445 W/m 7,0 C 13,7 C 9,7 km/h (2 Bft) 96,55 %
22.02.2016 10:51 13,8 C 63 % 1011,6 hPa 0,0 l/m 5,0 km/h (1 Bft) W-NW 295 1 min 0,000 mm 1,6 UV-I 446 W/m 6,9 C 13,8 C 6,4 km/h (2 Bft) 100,00 %
22.02.2016 10:52 13,8 C 63 % 1011,5 hPa 0,0 l/m 3,9 km/h (1 Bft) NW 307 1 min 0,000 mm 1,6 UV-I 448 W/m 6,9 C 13,8 C 6,4 km/h (2 Bft) 100,00 %
22.02.2016 10:53 13,8 C 64 % 1011,5 hPa 0,0 l/m 2,5 km/h (1 Bft) NW 313 1 min 0,000 mm 1,6 UV-I 450 W/m 7,1 C 13,8 C 4,8 km/h (1 Bft) 96,15 %
22.02.2016 10:54 13,9 C 64 % 1011,6 hPa 0,0 l/m 2,1 km/h (1 Bft) NW 319 1 min 0,000 mm 1,6 UV-I 452 W/m 7,2 C 13,9 C 3,2 km/h (1 Bft) 95,83 %
22.02.2016 10:55 13,9 C 65 % 1011,6 hPa 0,0 l/m 4,1 km/h (1 Bft) W-SW 247 1 min 0,000 mm 1,7 UV-I 452 W/m 7,4 C 13,9 C 11,3 km/h (2 Bft) 95,65 %
22.02.2016 10:56 14,0 C 63 % 1011,6 hPa 0,0 l/m 5,8 km/h (2 Bft) W 265 1 min 0,000 mm 1,7 UV-I 453 W/m 7,1 C 14,0 C 11,3 km/h (2 Bft) 96,30 %
22.02.2016 10:57 14,1 C 63 % 1011,6 hPa 0,0 l/m 3,9 km/h (1 Bft) W-NW 287 1 min 0,000 mm 1,7 UV-I 455 W/m 7,2 C 14,1 C 6,4 km/h (2 Bft) 100,00 %
22.02.2016 10:58 14,1 C 62 % 1011,6 hPa 0,0 l/m 1,6 km/h (1 Bft) W-NW 287 1 min 0,000 mm 1,7 UV-I 456 W/m 6,9 C 14,1 C 3,2 km/h (1 Bft) 96,30 %
22.02.2016 10:59 14,1 C 61 % 1011,6 hPa 0,0 l/m 3,3 km/h (1 Bft) W 263 1 min 0,000 mm 1,7 UV-I 456 W/m 6,7 C 14,1 C 6,4 km/h (2 Bft) 100,00 %
22.02.2016 11:00 14,1 C 61 % 1011,5 hPa 0,0 l/m 6,3 km/h (2 Bft) W 262 1 min 0,229 mm 1,7 UV-I 457 W/m 6,7 C 14,1 C 9,7 km/h (2 Bft) 96,30 %
22.02.2016 11:01 14,1 C 61 % 1011,5 hPa 0,0 l/m 2,9 km/h (1 Bft) NW 308 1 min 0,000 mm 1,7 UV-I 459 W/m 6,7 C 14,1 C 4,8 km/h (1 Bft) 95,65 %
22.02.2016 11:02 14,0 C 63 % 1011,5 hPa 0,0 l/m 3,2 km/h (1 Bft) NW 310 1 min 0,000 mm 1,7 UV-I 461 W/m 7,1 C 14,0 C 4,8 km/h (1 Bft) 100,00 %
22.02.2016 11:03 14,1 C 63 % 1011,5 hPa 0,0 l/m 3,9 km/h (1 Bft) W-NW 285 1 min 0,000 mm 1,7 UV-I 462 W/m 7,2 C 14,1 C 6,4 km/h (2 Bft) 95,65 %
22.02.2016 11:04 14,1 C 63 % 1011,5 hPa 0,0 l/m 1,4 km/h (1 Bft) W-NW 285 1 min 0,000 mm 1,7 UV-I 462 W/m 7,2 C 14,1 C 3,2 km/h (1 Bft) 100,00 %
22.02.2016 11:05 14,1 C 64 % 1011,5 hPa 0,0 l/m 1,5 km/h (1 Bft) W-NW 285 1 min 0,000 mm 1,7 UV-I 462 W/m 7,4 C 14,1 C 3,2 km/h (1 Bft) 95,65 %
22.02.2016 11:06 14,2 C 63 % 1011,5 hPa 0,0 l/m 2,3 km/h (1 Bft) N 355 1 min 0,000 mm 1,8 UV-I 464 W/m 7,3 C 14,2 C 3,2 km/h (1 Bft) 100,00 %
22.02.2016 11:07 14,3 C 63 % 1011,5 hPa 0,0 l/m 0,7 km/h (0 Bft) N-NW 343 1 min 0,000 mm 1,8 UV-I 467 W/m 7,4 C 14,3 C 1,6 km/h (1 Bft) 96,15 %
22.02.2016 11:08 14,3 C 66 % 1011,4 hPa 0,0 l/m 3,8 km/h (1 Bft) W-NW 301 1 min 0,000 mm 1,8 UV-I 466 W/m 8,0 C 14,3 C 8,0 km/h (2 Bft) 95,83 %
22.02.2016 11:09 14,3 C 63 % 1011,4 hPa 0,0 l/m 4,8 km/h (1 Bft) W 274 1 min 0,000 mm 1,8 UV-I 469 W/m 7,4 C 14,3 C 6,4 km/h (2 Bft) 95,65 %
22.02.2016 11:10 14,4 C 64 % 1011,4 hPa 0,0 l/m 3,8 km/h (1 Bft) W-SW 258 1 min 0,000 mm 1,8 UV-I 469 W/m 7,7 C 14,4 C 6,4 km/h (2 Bft) 91,67 %
22.02.2016 11:11 14,4 C 64 % 1011,4 hPa 0,0 l/m 3,1 km/h (1 Bft) N-NW 334 1 min 0,000 mm 1,8 UV-I 474 W/m 7,7 C 14,4 C 4,8 km/h (1 Bft) 100,00 %
22.02.2016 11:12 14,5 C 65 % 1011,3 hPa 0,0 l/m 3,4 km/h (1 Bft) W-NW 295 1 min 0,000 mm 1,8 UV-I 472 W/m 8,0 C 14,5 C 6,4 km/h (2 Bft) 95,83 %
22.02.2016 11:13 14,6 C 62 % 1011,3 hPa 0,0 l/m 1,2 km/h (1 Bft) W-NW 300 1 min 0,000 mm 1,8 UV-I 478 W/m 7,4 C 14,6 C 3,2 km/h (1 Bft) 100,00 %
22.02.2016 11:14 14,6 C 63 % 1011,3 hPa 0,0 l/m 4,8 km/h (1 Bft) W-SW 253 1 min 0,000 mm 1,8 UV-I 476 W/m 7,6 C 14,6 C 9,7 km/h (2 Bft) 95,83 %
22.02.2016 11:15 14,6 C 63 % 1011,3 hPa 0,0 l/m 3,3 km/h (1 Bft) W 265 1 min 0,000 mm 1,8 UV-I 477 W/m 7,6 C 14,6 C 4,8 km/h (1 Bft) 100,00 %
22.02.2016 11:18 14,8 C 62 % 1011,3 hPa 0,0 l/m 6,1 km/h (2 Bft) W 279 3 min 0,000 mm 1,8 UV-I 479 W/m 7,6 C 14,8 C 11,3 km/h (2 Bft) 97,47 %
22.02.2016 11:19 14,8 C 61 % 1011,3 hPa 0,0 l/m 3,5 km/h (1 Bft) W 259 1 min 0,000 mm 1,8 UV-I 476 W/m 7,4 C 14,8 C 4,8 km/h (1 Bft) 92,86 %
22.02.2016 11:20 14,8 C 62 % 1011,3 hPa 0,0 l/m 2,3 km/h (1 Bft) W 260 1 min 0,000 mm 1,9 UV-I 477 W/m 7,6 C 14,8 C 6,4 km/h (2 Bft) 100,00 %
22.02.2016 11:21 14,9 C 62 % 1011,3 hPa 0,0 l/m 1,8 km/h (1 Bft) W 268 1 min 0,000 mm 1,9 UV-I 479 W/m 7,7 C 14,9 C 3,2 km/h (1 Bft) 95,65 %
22.02.2016 11:22 14,9 C 62 % 1011,2 hPa 0,0 l/m 3,1 km/h (1 Bft) NW 304 1 min 0,000 mm 1,9 UV-I 480 W/m 7,7 C 14,9 C 4,8 km/h (1 Bft) 100,00 %
22.02.2016 11:23 14,9 C 61 % 1011,2 hPa 0,0 l/m 3,9 km/h (1 Bft) W-NW 290 1 min 0,000 mm 1,9 UV-I 480 W/m 7,4 C 14,9 C 6,4 km/h (2 Bft) 100,00 %
22.02.2016 11:24 14,9 C 60 % 1011,3 hPa 0,0 l/m 3,3 km/h (1 Bft) NW 313 1 min 0,000 mm 1,9 UV-I 482 W/m 7,2 C 14,9 C 6,4 km/h (2 Bft) 100,00 %
22.02.2016 11:25 15,0 C 61 % 1011,2 hPa 0,0 l/m 1,7 km/h (1 Bft) NW 313 1 min 0,000 mm 1,9 UV-I 480 W/m 7,5 C 15,0 C 4,8 km/h (1 Bft) 100,00 %
22.02.2016 11:26 15,0 C 63 % 1011,2 hPa 0,0 l/m 4,8 km/h (1 Bft) W 264 1 min 0,000 mm 1,9 UV-I 481 W/m 8,0 C 15,0 C 11,3 km/h (2 Bft) 100,00 %
22.02.2016 11:27 15,0 C 61 % 1011,1 hPa 0,0 l/m 2,3 km/h (1 Bft) W-NW 303 1 min 0,000 mm 1,9 UV-I 482 W/m 7,5 C 15,0 C 6,4 km/h (2 Bft) 92,31 %
22.02.2016 11:28 14,9 C 60 % 1011,2 hPa 0,0 l/m 7,5 km/h (2 Bft) W 265 1 min 0,000 mm 1,9 UV-I 482 W/m 7,2 C 14,3 C 12,9 km/h (3 Bft) 100,00 %
22.02.2016 11:29 14,9 C 61 % 1011,1 hPa 0,0 l/m 8,4 km/h (2 Bft) W-NW 303 1 min 0,000 mm 1,9 UV-I 485 W/m 7,4 C 13,8 C 12,9 km/h (3 Bft) 100,00 %
22.02.2016 11:30 15,1 C 61 % 1011,1 hPa 0,0 l/m 8,4 km/h (2 Bft) W-NW 291 1 min 0,000 mm 1,9 UV-I 489 W/m 7,6 C 14,0 C 11,3 km/h (2 Bft) 100,00 %
22.02.2016 11:31 15,1 C 60 % 1011,1 hPa 0,0 l/m 7,6 km/h (2 Bft) W-NW 288 1 min 0,000 mm 1,9 UV-I 485 W/m 7,4 C 14,4 C 12,9 km/h (3 Bft) 100,00 %
22.02.2016 11:32 15,1 C 60 % 1011,1 hPa 0,0 l/m 3,3 km/h (1 Bft) NW 325 1 min 0,000 mm 1,9 UV-I 486 W/m 7,4 C 15,1 C 8,0 km/h (2 Bft) 100,00 %
22.02.2016 11:33 15,1 C 60 % 1011,0 hPa 0,0 l/m 3,5 km/h (1 Bft) W 277 1 min 0,000 mm 1,9 UV-I 490 W/m 7,4 C 15,1 C 4,8 km/h (1 Bft) 100,00 %
22.02.2016 11:34 15,1 C 61 % 1011,0 hPa 0,0 l/m 2,2 km/h (1 Bft) W 278 1 min 0,000 mm 1,9 UV-I 490 W/m 7,6 C 15,1 C 3,2 km/h (1 Bft) 100,00 %
22.02.2016 11:35 15,2 C 62 % 1011,0 hPa 0,0 l/m 1,7 km/h (1 Bft) W 278 1 min 0,000 mm 1,9 UV-I 489 W/m 8,0 C 15,2 C 3,2 km/h (1 Bft) 100,00 %
22.02.2016 11:36 15,2 C 62 % 1010,9 hPa 0,0 l/m 1,4 km/h (1 Bft) W 279 1 min 0,000 mm 1,9 UV-I 492 W/m 8,0 C 15,2 C 3,2 km/h (1 Bft) 100,00 %
22.02.2016 11:37 15,2 C 61 % 1010,9 hPa 0,0 l/m 3,7 km/h (1 Bft) W-SW 250 1 min 0,000 mm 2,0 UV-I 494 W/m 7,7 C 15,2 C 6,4 km/h (2 Bft) 100,00 %
22.02.2016 11:38 15,1 C 59 % 1010,8 hPa 0,0 l/m 4,2 km/h (1 Bft) W-NW 297 1 min 0,000 mm 2,0 UV-I 494 W/m 7,1 C 15,1 C 4,8 km/h (1 Bft) 100,00 %
22.02.2016 11:39 15,2 C 60 % 1010,8 hPa 0,0 l/m 4,4 km/h (1 Bft) NW 311 1 min 0,000 mm 2,0 UV-I 494 W/m 7,5 C 15,2 C 6,4 km/h (2 Bft) 100,00 %
22.02.2016 11:40 15,2 C 61 % 1010,8 hPa 0,0 l/m 2,8 km/h (1 Bft) W-NW 287 1 min 0,000 mm 2,0 UV-I 492 W/m 7,7 C 15,2 C 4,8 km/h (1 Bft) 100,00 %
22.02.2016 11:41 15,2 C 60 % 1010,7 hPa 0,0 l/m 5,8 km/h (2 Bft) W-SW 246 1 min 0,000 mm 2,0 UV-I 496 W/m 7,5 C 15,2 C 9,7 km/h (2 Bft) 100,00 %
22.02.2016 11:42 15,3 C 61 % 1010,7 hPa 0,0 l/m 5,3 km/h (1 Bft) W-SW 237 1 min 0,000 mm 2,0 UV-I 497 W/m 7,8 C 15,3 C 6,4 km/h (2 Bft) 98,85 %
22.02.2016 11:43 15,4 C 61 % 1010,7 hPa 0,0 l/m 3,4 km/h (1 Bft) W 274 1 min 0,000 mm 2,0 UV-I 498 W/m 7,9 C 15,4 C 4,8 km/h (1 Bft) 100,00 %
22.02.2016 11:44 15,4 C 61 % 1010,7 hPa 0,0 l/m 2,8 km/h (1 Bft) W 265 1 min 0,000 mm 2,0 UV-I 498 W/m 7,9 C 15,4 C 4,8 km/h (1 Bft) 96,15 %
22.02.2016 11:45 15,4 C 59 % 1010,7 hPa 0,0 l/m 1,9 km/h (1 Bft) W 269 1 min 0,000 mm 2,0 UV-I 499 W/m 7,4 C 15,4 C 3,2 km/h (1 Bft) 100,00 %
22.02.2016 11:46 15,4 C 57 % 1010,7 hPa 0,0 l/m 3,2 km/h (1 Bft) W 265 1 min 0,000 mm 2,0 UV-I 499 W/m 6,9 C 15,4 C 6,4 km/h (2 Bft) 100,00 %
22.02.2016 11:47 15,3 C 58 % 1010,7 hPa 0,0 l/m 4,4 km/h (1 Bft) W-SW 248 1 min 0,000 mm 2,0 UV-I 501 W/m 7,1 C 15,3 C 6,4 km/h (2 Bft) 93,33 %
22.02.2016 11:48 15,3 C 58 % 1010,7 hPa 0,0 l/m 1,7 km/h (1 Bft) W-SW 250 1 min 0,000 mm 2,0 UV-I 499 W/m 7,1 C 15,3 C 3,2 km/h (1 Bft) 100,00 %
22.02.2016 11:49 15,3 C 58 % 1010,7 hPa 0,0 l/m 2,2 km/h (1 Bft) NW 317 1 min 0,000 mm 2,0 UV-I 499 W/m 7,1 C 15,3 C 3,2 km/h (1 Bft) 100,00 %
22.02.2016 11:50 15,4 C 59 % 1010,7 hPa 0,0 l/m 3,5 km/h (1 Bft) W-NW 284 1 min 0,000 mm 2,0 UV-I 500 W/m 7,4 C 15,4 C 4,8 km/h (1 Bft) 96,15 %
22.02.2016 11:51 15,4 C 62 % 1010,7 hPa 0,0 l/m 3,0 km/h (1 Bft) W-NW 299 1 min 0,000 mm 2,0 UV-I 501 W/m 8,2 C 15,4 C 6,4 km/h (2 Bft) 100,00 %
22.02.2016 11:52 15,4 C 59 % 1010,6 hPa 0,0 l/m 3,3 km/h (1 Bft) NW 316 1 min 0,000 mm 2,0 UV-I 502 W/m 7,4 C 15,4 C 6,4 km/h (2 Bft) 100,00 %
22.02.2016 11:53 15,4 C 61 % 1010,6 hPa 0,0 l/m 3,8 km/h (1 Bft) NW 308 1 min 0,000 mm 2,0 UV-I 503 W/m 7,9 C 15,4 C 4,8 km/h (1 Bft) 100,00 %
22.02.2016 11:54 15,3 C 58 % 1010,5 hPa 0,0 l/m 2,6 km/h (1 Bft) NW 306 1 min 0,000 mm 2,0 UV-I 504 W/m 7,1 C 15,3 C 4,8 km/h (1 Bft) 100,00 %
22.02.2016 11:55 15,3 C 58 % 1010,5 hPa 0,0 l/m 2,2 km/h (1 Bft) NW 309 1 min 0,000 mm 2,0 UV-I 504 W/m 7,1 C 15,3 C 4,8 km/h (1 Bft) 100,00 %
22.02.2016 11:56 15,4 C 62 % 1010,5 hPa 0,0 l/m 3,2 km/h (1 Bft) NW 308 1 min 0,000 mm 2,0 UV-I 503 W/m 8,2 C 15,4 C 4,8 km/h (1 Bft) 100,00 %
22.02.2016 11:57 15,4 C 62 % 1010,5 hPa 0,0 l/m 1,2 km/h (1 Bft) NW 305 1 min 0,000 mm 2,0 UV-I 504 W/m 8,2 C 15,4 C 3,2 km/h (1 Bft) 100,00 %
22.02.2016 11:58 15,4 C 59 % 1010,6 hPa 0,0 l/m 4,6 km/h (1 Bft) NW 319 1 min 0,000 mm 2,0 UV-I 504 W/m 7,4 C 15,4 C 6,4 km/h (2 Bft) 100,00 %
22.02.2016 11:59 15,4 C 58 % 1010,5 hPa 0,0 l/m 2,3 km/h (1 Bft) NW 323 1 min 0,000 mm 2,0 UV-I 506 W/m 7,2 C 15,4 C 3,2 km/h (1 Bft) 100,00 %
22.02.2016 12:00 15,3 C 58 % 1010,5 hPa 0,0 l/m 2,5 km/h (1 Bft) NW 313 1 min 0,000 mm 2,0 UV-I 504 W/m 7,1 C 15,3 C 6,4 km/h (2 Bft) 100,00 %
22.02.2016 12:01 15,3 C 60 % 1010,5 hPa 0,0 l/m 1,5 km/h (1 Bft) N-NW 327 1 min 0,279 mm 2,0 UV-I 504 W/m 7,6 C 15,3 C 3,2 km/h (1 Bft) 100,00 %
22.02.2016 12:02 15,3 C 59 % 1010,5 hPa 0,0 l/m 1,7 km/h (1 Bft) W-NW 297 1 min 0,000 mm 2,0 UV-I 506 W/m 7,3 C 15,3 C 3,2 km/h (1 Bft) 100,00 %
22.02.2016 12:03 15,3 C 59 % 1010,4 hPa 0,0 l/m 2,2 km/h (1 Bft) NW 306 1 min 0,000 mm 2,0 UV-I 505 W/m 7,3 C 15,3 C 3,2 km/h (1 Bft) 100,00 %
22.02.2016 12:04 15,3 C 62 % 1010,4 hPa 0,0 l/m 0,7 km/h (0 Bft) NW 306 1 min 0,000 mm 2,0 UV-I 506 W/m 8,1 C 15,3 C 1,6 km/h (1 Bft) 100,00 %
22.02.2016 12:05 15,4 C 62 % 1010,4 hPa 0,0 l/m 1,0 km/h (0 Bft) N 355 1 min 0,000 mm 2,0 UV-I 508 W/m 8,2 C 15,4 C 4,8 km/h (1 Bft) 100,00 %
22.02.2016 12:06 15,4 C 60 % 1010,4 hPa 0,0 l/m 3,9 km/h (1 Bft) N-NW 342 1 min 0,000 mm 2,0 UV-I 504 W/m 7,7 C 15,4 C 6,4 km/h (2 Bft) 100,00 %
22.02.2016 12:07 15,4 C 59 % 1010,4 hPa 0,0 l/m 1,7 km/h (1 Bft) NW 313 1 min 0,000 mm 2,0 UV-I 504 W/m 7,4 C 15,4 C 3,2 km/h (1 Bft) 100,00 %
22.02.2016 12:08 15,5 C 58 % 1010,3 hPa 0,0 l/m 1,2 km/h (1 Bft) NW 313 1 min 0,000 mm 2,0 UV-I 504 W/m 7,3 C 15,5 C 3,2 km/h (1 Bft) 100,00 %
22.02.2016 12:09 15,5 C 61 % 1010,2 hPa 0,0 l/m 1,4 km/h (1 Bft) NW 315 1 min 0,000 mm 2,0 UV-I 507 W/m 8,0 C 15,5 C 3,2 km/h (1 Bft) 100,00 %
22.02.2016 12:10 15,6 C 61 % 1010,3 hPa 0,0 l/m 1,9 km/h (1 Bft) N 350 1 min 0,000 mm 2,0 UV-I 504 W/m 8,1 C 15,6 C 4,8 km/h (1 Bft) 100,00 %
22.02.2016 12:11 15,7 C 61 % 1010,3 hPa 0,0 l/m 1,3 km/h (1 Bft) NW 325 1 min 0,000 mm 2,0 UV-I 504 W/m 8,2 C 15,7 C 3,2 km/h (1 Bft) 100,00 %
22.02.2016 12:12 15,7 C 59 % 1010,3 hPa 0,0 l/m 0,5 km/h (0 Bft) NW 325 1 min 0,000 mm 2,0 UV-I 505 W/m 7,7 C 15,7 C 1,6 km/h (1 Bft) 100,00 %
22.02.2016 12:13 15,6 C 57 % 1010,3 hPa 0,0 l/m 1,3 km/h (1 Bft) NW 325 1 min 0,000 mm 2,0 UV-I 505 W/m 7,1 C 15,6 C 3,2 km/h (1 Bft) 100,00 %
22.02.2016 12:14 15,6 C 60 % 1010,2 hPa 0,0 l/m 1,9 km/h (1 Bft) NW 325 1 min 0,000 mm 2,0 UV-I 505 W/m 7,9 C 15,6 C 3,2 km/h (1 Bft) 95,12 %
22.02.2016 12:15 15,6 C 57 % 1010,2 hPa 0,0 l/m 1,9 km/h (1 Bft) NW 325 1 min 0,000 mm 2,0 UV-I 504 W/m 7,1 C 15,6 C 3,2 km/h (1 Bft) 100,00 %
22.02.2016 12:16 15,6 C 57 % 1010,3 hPa 0,0 l/m 0,9 km/h (0 Bft) NW 325 1 min 0,000 mm 2,0 UV-I 503 W/m 7,1 C 15,6 C 1,6 km/h (1 Bft) 100,00 %
22.02.2016 12:17 15,6 C 58 % 1010,2 hPa 0,0 l/m 0,1 km/h (0 Bft) NW 325 1 min 0,000 mm 2,0 UV-I 504 W/m 7,4 C 15,6 C 1,6 km/h (1 Bft) 100,00 %
22.02.2016 12:18 15,6 C 57 % 1010,0 hPa 0,0 l/m 1,0 km/h (0 Bft) N-NW 329 1 min 0,000 mm 2,1 UV-I 509 W/m 7,1 C 15,6 C 3,2 km/h (1 Bft) 100,00 %
22.02.2016 12:19 15,5 C 57 % 1010,0 hPa 0,0 l/m 1,8 km/h (1 Bft) N-NW 331 1 min 0,000 mm 2,1 UV-I 508 W/m 7,0 C 15,5 C 3,2 km/h (1 Bft) 100,00 %
22.02.2016 12:20 15,6 C 59 % 1010,0 hPa 0,0 l/m 2,1 km/h (1 Bft) N-NW 331 1 min 0,000 mm 2,1 UV-I 505 W/m 7,6 C 15,6 C 3,2 km/h (1 Bft) 95,65 %
22.02.2016 12:21 15,6 C 58 % 1010,0 hPa 0,0 l/m 1,9 km/h (1 Bft) N-NW 331 1 min 0,000 mm 2,1 UV-I 507 W/m 7,4 C 15,6 C 3,2 km/h (1 Bft) 100,00 %
22.02.2016 12:22 15,7 C 58 % 1010,0 hPa 0,0 l/m 0,9 km/h (0 Bft) N-NW 331 1 min 0,000 mm 2,1 UV-I 504 W/m 7,5 C 15,7 C 1,6 km/h (1 Bft) 100,00 %
22.02.2016 12:23 15,8 C 61 % 1009,9 hPa 0,0 l/m 1,3 km/h (1 Bft) N-NW 327 1 min 0,000 mm 2,1 UV-I 508 W/m 8,3 C 15,8 C 3,2 km/h (1 Bft) 100,00 %
22.02.2016 12:24 15,8 C 61 % 1010,0 hPa 0,0 l/m 4,2 km/h (1 Bft) NO 52 1 min 0,000 mm 2,1 UV-I 508 W/m 8,3 C 15,8 C 8,0 km/h (2 Bft) 95,65 %
22.02.2016 12:25 15,9 C 59 % 1009,9 hPa 0,0 l/m 6,2 km/h (2 Bft) NO 37 1 min 0,000 mm 2,1 UV-I 507 W/m 7,9 C 15,9 C 8,0 km/h (2 Bft) 95,83 %
22.02.2016 12:26 15,9 C 59 % 1009,9 hPa 0,0 l/m 3,2 km/h (1 Bft) NO 36 1 min 0,000 mm 2,0 UV-I 504 W/m 7,9 C 15,9 C 6,4 km/h (2 Bft) 100,00 %
22.02.2016 12:27 15,9 C 60 % 1009,9 hPa 0,0 l/m 0,8 km/h (0 Bft) NO 34 1 min 0,000 mm 2,0 UV-I 501 W/m 8,1 C 15,9 C 1,6 km/h (1 Bft) 100,00 %
22.02.2016 12:28 15,9 C 58 % 1009,9 hPa 0,0 l/m 0,7 km/h (0 Bft) NO 34 1 min 0,000 mm 2,0 UV-I 504 W/m 7,6 C 15,9 C 1,6 km/h (1 Bft) 98,89 %
22.02.2016 12:29 16,1 C 61 % 1009,9 hPa 0,0 l/m 0,8 km/h (0 Bft) NO 34 1 min 0,000 mm 2,0 UV-I 506 W/m 8,6 C 16,1 C 3,2 km/h (1 Bft) 100,00 %
22.02.2016 12:30 16,1 C 61 % 1009,9 hPa 0,0 l/m 1,5 km/h (1 Bft) N-NW 336 1 min 0,000 mm 2,0 UV-I 503 W/m 8,6 C 16,1 C 3,2 km/h (1 Bft) 100,00 %
22.02.2016 12:31 16,1 C 59 % 1009,8 hPa 0,0 l/m 1,3 km/h (1 Bft) N-NW 334 1 min 0,000 mm 2,0 UV-I 505 W/m 8,1 C 16,1 C 3,2 km/h (1 Bft) 100,00 %
22.02.2016 12:32 16,1 C 58 % 1009,9 hPa 0,0 l/m 2,2 km/h (1 Bft) NW 321 1 min 0,000 mm 2,0 UV-I 506 W/m 7,8 C 16,1 C 3,2 km/h (1 Bft) 100,00 %
22.02.2016 12:33 16,2 C 58 % 1009,8 hPa 0,0 l/m 1,6 km/h (1 Bft) NW 321 1 min 0,000 mm 2,0 UV-I 502 W/m 7,9 C 16,2 C 3,2 km/h (1 Bft) 100,00 %
22.02.2016 12:34 16,2 C 54 % 1009,8 hPa 0,0 l/m 0,7 km/h (0 Bft) N 11 1 min 0,000 mm 2,0 UV-I 499 W/m 6,9 C 16,2 C 1,6 km/h (1 Bft) 100,00 %
22.02.2016 12:35 16,3 C 57 % 1009,7 hPa 0,0 l/m 1,4 km/h (1 Bft) N 360 1 min 0,000 mm 2,0 UV-I 504 W/m 7,8 C 16,3 C 3,2 km/h (1 Bft) 96,15 %
22.02.2016 12:36 16,3 C 56 % 1009,7 hPa 0,0 l/m 0,8 km/h (0 Bft) N 355 1 min 0,000 mm 2,0 UV-I 504 W/m 7,5 C 16,3 C 1,6 km/h (1 Bft) 100,00 %
22.02.2016 12:37 16,4 C 61 % 1009,7 hPa 0,0 l/m 0,6 km/h (0 Bft) N 355 1 min 0,000 mm 2,0 UV-I 503 W/m 8,9 C 16,4 C 1,6 km/h (1 Bft) 95,65 %
22.02.2016 12:38 16,5 C 58 % 1009,7 hPa 0,0 l/m 1,1 km/h (1 Bft) NW 306 1 min 0,000 mm 2,0 UV-I 501 W/m 8,2 C 16,5 C 3,2 km/h (1 Bft) 95,83 %
22.02.2016 12:39 16,6 C 55 % 1009,8 hPa 0,0 l/m 1,9 km/h (1 Bft) NW 307 1 min 0,000 mm 2,0 UV-I 500 W/m 7,5 C 16,6 C 3,2 km/h (1 Bft) 96,15 %
22.02.2016 12:40 16,6 C 55 % 1009,7 hPa 0,0 l/m 0,4 km/h (0 Bft) NW 307 1 min 0,000 mm 2,0 UV-I 499 W/m 7,5 C 16,6 C 1,6 km/h (1 Bft) 96,30 %
22.02.2016 12:41 16,7 C 55 % 1009,6 hPa 0,0 l/m 0,8 km/h (0 Bft) NW 307 1 min 0,000 mm 2,0 UV-I 503 W/m 7,6 C 16,7 C 1,6 km/h (1 Bft) 100,00 %
22.02.2016 12:42 16,7 C 53 % 1009,5 hPa 0,0 l/m 1,5 km/h (1 Bft) N-NW 327 1 min 0,000 mm 2,0 UV-I 502 W/m 7,1 C 16,7 C 3,2 km/h (1 Bft) 96,30 %
22.02.2016 12:43 16,7 C 55 % 1009,6 hPa 0,0 l/m 0,4 km/h (0 Bft) NW 309 1 min 0,000 mm 2,0 UV-I 498 W/m 7,6 C 16,7 C 1,6 km/h (1 Bft) 100,00 %
22.02.2016 12:44 16,7 C 56 % 1009,7 hPa 0,0 l/m 3,7 km/h (1 Bft) NW 309 1 min 0,000 mm 2,0 UV-I 497 W/m 7,9 C 16,7 C 4,8 km/h (1 Bft) 96,30 %
22.02.2016 12:45 16,7 C 55 % 1009,7 hPa 0,0 l/m 2,8 km/h (1 Bft) W-NW 284 1 min 0,000 mm 2,0 UV-I 497 W/m 7,6 C 16,7 C 6,4 km/h (2 Bft) 91,30 %
22.02.2016 12:46 16,7 C 53 % 1009,7 hPa 0,0 l/m 2,4 km/h (1 Bft) W-NW 298 1 min 0,000 mm 2,0 UV-I 495 W/m 7,1 C 16,7 C 4,8 km/h (1 Bft) 100,00 %
22.02.2016 12:47 16,7 C 55 % 1009,6 hPa 0,0 l/m 0,8 km/h (0 Bft) N-NW 331 1 min 0,000 mm 2,0 UV-I 498 W/m 7,6 C 16,7 C 1,6 km/h (1 Bft) 92,86 %
22.02.2016 12:48 16,7 C 59 % 1009,5 hPa 0,0 l/m 1,5 km/h (1 Bft) N 355 1 min 0,000 mm 2,0 UV-I 496 W/m 8,6 C 16,7 C 3,2 km/h (1 Bft) 100,00 %
22.02.2016 12:49 16,7 C 57 % 1009,5 hPa 0,0 l/m 0,7 km/h (0 Bft) NW 321 1 min 0,000 mm 2,0 UV-I 497 W/m 8,1 C 16,7 C 3,2 km/h (1 Bft) 95,83 %
22.02.2016 12:50 16,8 C 55 % 1009,5 hPa 0,0 l/m 4,8 km/h (1 Bft) W 269 1 min 0,000 mm 2,0 UV-I 497 W/m 7,7 C 16,8 C 6,4 km/h (2 Bft) 100,00 %
22.02.2016 12:51 16,9 C 53 % 1009,5 hPa 0,0 l/m 1,0 km/h (0 Bft) W 269 1 min 0,000 mm 2,0 UV-I 491 W/m 7,3 C 16,9 C 3,2 km/h (1 Bft) 96,15 %
22.02.2016 12:52 16,9 C 52 % 1009,4 hPa 0,0 l/m 1,3 km/h (1 Bft) W 275 1 min 0,000 mm 2,0 UV-I 497 W/m 7,0 C 16,9 C 1,6 km/h (1 Bft) 96,30 %
22.02.2016 12:53 17,0 C 55 % 1009,5 hPa 0,0 l/m 3,3 km/h (1 Bft) NW 311 1 min 0,000 mm 2,0 UV-I 497 W/m 7,9 C 17,0 C 6,4 km/h (2 Bft) 100,00 %
22.02.2016 12:54 17,1 C 52 % 1009,5 hPa 0,0 l/m 1,9 km/h (1 Bft) NW 311 1 min 0,000 mm 2,0 UV-I 497 W/m 7,2 C 17,1 C 3,2 km/h (1 Bft) 100,00 %
22.02.2016 12:55 17,1 C 53 % 1009,4 hPa 0,0 l/m 0,5 km/h (0 Bft) NW 311 1 min 0,000 mm 2,0 UV-I 496 W/m 7,4 C 17,1 C 3,2 km/h (1 Bft) 95,83 %
22.02.2016 12:56 17,1 C 55 % 1009,3 hPa 0,0 l/m 2,8 km/h (1 Bft) NW 311 1 min 0,000 mm 2,0 UV-I 496 W/m 8,0 C 17,1 C 4,8 km/h (1 Bft) 96,15 %
22.02.2016 12:57 17,0 C 55 % 1009,4 hPa 0,0 l/m 0,8 km/h (0 Bft) N-NW 347 1 min 0,000 mm 2,0 UV-I 497 W/m 7,9 C 17,0 C 1,6 km/h (1 Bft) 100,00 %
22.02.2016 12:58 16,9 C 56 % 1009,4 hPa 0,0 l/m 1,7 km/h (1 Bft) N 5 1 min 0,000 mm 2,0 UV-I 497 W/m 8,1 C 16,9 C 3,2 km/h (1 Bft) 95,65 %
22.02.2016 12:59 16,9 C 53 % 1009,3 hPa 0,0 l/m 1,7 km/h (1 Bft) N 5 1 min 0,000 mm 2,0 UV-I 494 W/m 7,3 C 16,9 C 3,2 km/h (1 Bft) 100,00 %
22.02.2016 13:00 16,8 C 56 % 1009,3 hPa 0,0 l/m 1,5 km/h (1 Bft) N 5 1 min 0,000 mm 2,0 UV-I 495 W/m 8,0 C 16,8 C 3,2 km/h (1 Bft) 95,65 %
22.02.2016 13:01 16,9 C 53 % 1009,2 hPa 0,0 l/m 1,5 km/h (1 Bft) N 5 1 min 0,280 mm 2,0 UV-I 496 W/m 7,3 C 16,9 C 3,2 km/h (1 Bft) 96,30 %
22.02.2016 13:02 16,9 C 56 % 1009,1 hPa 0,0 l/m 0,7 km/h (0 Bft) N-NW 334 1 min 0,000 mm 2,0 UV-I 496 W/m 8,1 C 16,9 C 3,2 km/h (1 Bft) 95,65 %
22.02.2016 13:03 17,0 C 58 % 1009,2 hPa 0,0 l/m 1,0 km/h (0 Bft) N-NW 332 1 min 0,000 mm 2,0 UV-I 494 W/m 8,7 C 17,0 C 3,2 km/h (1 Bft) 95,83 %
22.02.2016 13:04 17,1 C 52 % 1009,1 hPa 0,0 l/m 3,4 km/h (1 Bft) N-NW 338 1 min 0,000 mm 2,0 UV-I 492 W/m 7,2 C 17,1 C 4,8 km/h (1 Bft) 100,00 %
22.02.2016 13:05 17,1 C 51 % 1009,1 hPa 0,0 l/m 4,1 km/h (1 Bft) W-NW 296 1 min 0,000 mm 1,9 UV-I 491 W/m 6,9 C 17,1 C 6,4 km/h (2 Bft) 95,83 %
22.02.2016 13:06 17,1 C 51 % 1009,2 hPa 0,0 l/m 4,8 km/h (1 Bft) W-NW 288 1 min 0,000 mm 1,9 UV-I 492 W/m 6,9 C 17,1 C 6,4 km/h (2 Bft) 95,65 %
22.02.2016 13:07 17,1 C 54 % 1009,2 hPa 0,0 l/m 5,5 km/h (1 Bft) NW 319 1 min 0,000 mm 1,9 UV-I 491 W/m 7,7 C 17,1 C 9,7 km/h (2 Bft) 100,00 %
22.02.2016 13:08 17,2 C 53 % 1009,1 hPa 0,0 l/m 1,7 km/h (1 Bft) NW 318 1 min 0,000 mm 1,9 UV-I 489 W/m 7,5 C 17,2 C 4,8 km/h (1 Bft) 100,00 %
22.02.2016 13:09 17,2 C 50 % 1009,0 hPa 0,0 l/m 1,0 km/h (0 Bft) NW 319 1 min 0,000 mm 1,9 UV-I 490 W/m 6,7 C 17,2 C 3,2 km/h (1 Bft) 100,00 %
22.02.2016 13:10 17,2 C 51 % 1009,0 hPa 0,0 l/m 1,7 km/h (1 Bft) N 350 1 min 0,000 mm 1,9 UV-I 487 W/m 7,0 C 17,2 C 4,8 km/h (1 Bft) 100,00 %
22.02.2016 13:11 17,2 C 53 % 1009,1 hPa 0,0 l/m 1,4 km/h (1 Bft) N 10 1 min 0,000 mm 1,9 UV-I 486 W/m 7,5 C 17,2 C 3,2 km/h (1 Bft) 100,00 %
22.02.2016 13:12 17,2 C 50 % 1009,0 hPa 0,0 l/m 0,2 km/h (0 Bft) N 10 1 min 0,000 mm 1,9 UV-I 485 W/m 6,7 C 17,2 C 1,6 km/h (1 Bft) 100,00 %
22.02.2016 13:13 17,2 C 52 % 1009,1 hPa 0,0 l/m 0,9 km/h (0 Bft) N 10 1 min 0,000 mm 1,9 UV-I 485 W/m 7,3 C 17,2 C 1,6 km/h (1 Bft) 100,00 %
22.02.2016 13:14 17,2 C 51 % 1009,0 hPa 0,0 l/m 2,0 km/h (1 Bft) N 351 1 min 0,000 mm 1,9 UV-I 485 W/m 7,0 C 17,2 C 3,2 km/h (1 Bft) 91,67 %
22.02.2016 13:15 17,3 C 54 % 1009,0 hPa 0,0 l/m 0,9 km/h (0 Bft) N-NW 346 1 min 0,000 mm 1,9 UV-I 485 W/m 7,9 C 17,3 C 1,6 km/h (1 Bft) 97,14 %
22.02.2016 13:16 17,3 C 52 % 1009,0 hPa 0,0 l/m 1,0 km/h (0 Bft) N-NW 344 1 min 0,000 mm 1,9 UV-I 485 W/m 7,3 C 17,3 C 1,6 km/h (1 Bft) 100,00 %
22.02.2016 13:17 17,3 C 52 % 1008,9 hPa 0,0 l/m 1,1 km/h (1 Bft) N-NW 344 1 min 0,000 mm 1,9 UV-I 486 W/m 7,3 C 17,3 C 3,2 km/h (1 Bft) 98,80 %
22.02.2016 13:18 17,3 C 49 % 1008,9 hPa 0,0 l/m 1,0 km/h (0 Bft) N-NW 344 1 min 0,000 mm 1,9 UV-I 485 W/m 6,5 C 17,3 C 3,2 km/h (1 Bft) 100,00 %
22.02.2016 13:19 17,3 C 50 % 1008,9 hPa 0,0 l/m 0,4 km/h (0 Bft) N-NW 344 1 min 0,000 mm 1,9 UV-I 485 W/m 6,8 C 17,3 C 1,6 km/h (1 Bft) 100,00 %
22.02.2016 13:20 17,3 C 52 % 1008,9 hPa 0,0 l/m 0,6 km/h (0 Bft) N 360 1 min 0,000 mm 1,8 UV-I 483 W/m 7,3 C 17,3 C 3,2 km/h (1 Bft) 100,00 %
22.02.2016 13:21 17,4 C 51 % 1008,7 hPa 0,0 l/m 5,6 km/h (1 Bft) N-NO 27 1 min 0,000 mm 1,8 UV-I 482 W/m 7,2 C 17,4 C 8,0 km/h (2 Bft) 100,00 %
22.02.2016 13:22 17,6 C 50 % 1008,7 hPa 0,0 l/m 1,5 km/h (1 Bft) N-NW 328 1 min 0,000 mm 1,8 UV-I 474 W/m 7,1 C 17,6 C 4,8 km/h (1 Bft) 100,00 %
22.02.2016 13:23 17,6 C 52 % 1008,7 hPa 0,0 l/m 2,2 km/h (1 Bft) W-NW 289 1 min 0,000 mm 1,7 UV-I 466 W/m 7,6 C 17,6 C 4,8 km/h (1 Bft) 100,00 %
22.02.2016 13:24 17,7 C 54 % 1008,8 hPa 0,0 l/m 3,0 km/h (1 Bft) NW 325 1 min 0,000 mm 1,8 UV-I 474 W/m 8,3 C 17,7 C 4,8 km/h (1 Bft) 100,00 %
22.02.2016 13:25 17,7 C 50 % 1008,7 hPa 0,0 l/m 1,6 km/h (1 Bft) N-NW 328 1 min 0,000 mm 1,7 UV-I 448 W/m 7,1 C 17,7 C 3,2 km/h (1 Bft) 100,00 %
22.02.2016 13:26 17,7 C 53 % 1008,7 hPa 0,0 l/m 1,1 km/h (1 Bft) N-NW 336 1 min 0,000 mm 1,8 UV-I 468 W/m 8,0 C 17,7 C 1,6 km/h (1 Bft) 96,30 %
22.02.2016 13:27 17,8 C 54 % 1008,7 hPa 0,0 l/m 2,1 km/h (1 Bft) W-NW 294 1 min 0,000 mm 1,8 UV-I 475 W/m 8,4 C 17,8 C 4,8 km/h (1 Bft) 98,81 %
22.02.2016 13:28 17,9 C 54 % 1008,7 hPa 0,0 l/m 1,9 km/h (1 Bft) W-NW 294 1 min 0,000 mm 1,8 UV-I 476 W/m 8,5 C 17,9 C 3,2 km/h (1 Bft) 100,00 %
22.02.2016 13:29 17,9 C 48 % 1008,7 hPa 0,0 l/m 0,6 km/h (0 Bft) W-NW 294 1 min 0,000 mm 1,8 UV-I 475 W/m 6,7 C 17,9 C 1,6 km/h (1 Bft) 100,00 %
22.02.2016 13:30 18,1 C 50 % 1008,7 hPa 0,0 l/m 0,8 km/h (0 Bft) W-NW 283 1 min 0,000 mm 1,8 UV-I 466 W/m 7,5 C 18,1 C 3,2 km/h (1 Bft) 100,00 %
22.02.2016 13:31 18,2 C 46 % 1008,7 hPa 0,0 l/m 6,0 km/h (2 Bft) W 265 1 min 0,000 mm 1,7 UV-I 467 W/m 6,4 C 18,2 C 9,7 km/h (2 Bft) 100,00 %
22.02.2016 13:32 18,3 C 45 % 1008,6 hPa 0,0 l/m 3,1 km/h (1 Bft) W 269 1 min 0,000 mm 1,7 UV-I 475 W/m 6,2 C 18,3 C 6,4 km/h (2 Bft) 100,00 %
22.02.2016 13:33 18,3 C 45 % 1008,5 hPa 0,0 l/m 5,4 km/h (1 Bft) W-SW 240 1 min 0,000 mm 1,7 UV-I 460 W/m 6,2 C 18,3 C 8,0 km/h (2 Bft) 96,67 %
22.02.2016 13:34 18,4 C 46 % 1008,6 hPa 0,0 l/m 7,4 km/h (2 Bft) W-SW 254 1 min 0,000 mm 1,6 UV-I 451 W/m 6,6 C 17,9 C 11,3 km/h (2 Bft) 100,00 %
22.02.2016 13:35 18,4 C 45 % 1008,6 hPa 0,0 l/m 6,5 km/h (2 Bft) W-SW 249 1 min 0,000 mm 1,7 UV-I 466 W/m 6,3 C 18,4 C 9,7 km/h (2 Bft) 100,00 %
22.02.2016 13:36 18,4 C 45 % 1008,6 hPa 0,0 l/m 2,7 km/h (1 Bft) W-NW 284 1 min 0,000 mm 1,6 UV-I 427 W/m 6,3 C 18,4 C 6,4 km/h (2 Bft) 100,00 %
22.02.2016 13:37 18,6 C 47 % 1008,6 hPa 0,0 l/m 5,1 km/h (1 Bft) W-SW 244 1 min 0,000 mm 1,6 UV-I 409 W/m 7,1 C 18,6 C 8,0 km/h (2 Bft) 100,00 %
22.02.2016 13:38 18,6 C 45 % 1008,6 hPa 0,0 l/m 7,4 km/h (2 Bft) W-SW 257 1 min 0,000 mm 1,5 UV-I 371 W/m 6,4 C 18,1 C 14,5 km/h (3 Bft) 100,00 %
22.02.2016 13:39 18,7 C 45 % 1008,5 hPa 0,0 l/m 7,1 km/h (2 Bft) W-NW 293 1 min 0,000 mm 1,6 UV-I 402 W/m 6,5 C 18,4 C 14,5 km/h (3 Bft) 100,00 %
22.02.2016 13:40 18,6 C 46 % 1008,4 hPa 0,0 l/m 7,7 km/h (2 Bft) W 267 1 min 0,000 mm 1,6 UV-I 402 W/m 6,8 C 18,0 C 11,3 km/h (2 Bft) 100,00 %
22.02.2016 13:41 18,6 C 43 % 1008,4 hPa 0,0 l/m 5,5 km/h (1 Bft) W-SW 255 1 min 0,000 mm 1,6 UV-I 445 W/m 5,8 C 18,6 C 11,3 km/h (2 Bft) 100,00 %
22.02.2016 13:42 18,6 C 43 % 1008,5 hPa 0,0 l/m 8,3 km/h (2 Bft) W 275 1 min 0,000 mm 1,6 UV-I 454 W/m 5,8 C 17,8 C 12,9 km/h (3 Bft) 100,00 %
22.02.2016 13:43 18,6 C 44 % 1008,5 hPa 0,0 l/m 5,6 km/h (1 Bft) S-SW 213 1 min 0,000 mm 1,6 UV-I 455 W/m 6,1 C 18,6 C 9,7 km/h (2 Bft) 100,00 %
22.02.2016 13:44 18,6 C 42 % 1008,5 hPa 0,0 l/m 6,2 km/h (2 Bft) W-NW 290 1 min 0,000 mm 1,5 UV-I 405 W/m 5,4 C 18,6 C 8,0 km/h (2 Bft) 100,00 %
22.02.2016 13:45 18,6 C 42 % 1008,4 hPa 0,0 l/m 4,7 km/h (1 Bft) W-SW 250 1 min 0,000 mm 1,5 UV-I 373 W/m 5,4 C 18,6 C 8,0 km/h (2 Bft) 100,00 %
22.02.2016 13:46 18,6 C 45 % 1008,4 hPa 0,0 l/m 1,3 km/h (1 Bft) SW 223 1 min 0,000 mm 1,6 UV-I 435 W/m 6,4 C 18,6 C 3,2 km/h (1 Bft) 95,65 %
22.02.2016 13:47 18,7 C 46 % 1008,4 hPa 0,0 l/m 9,4 km/h (2 Bft) W-NW 286 1 min 0,000 mm 1,6 UV-I 449 W/m 6,8 C 17,4 C 14,5 km/h (3 Bft) 100,00 %
22.02.2016 13:48 18,7 C 41 % 1008,4 hPa 0,0 l/m 9,7 km/h (2 Bft) W 267 1 min 0,000 mm 1,6 UV-I 452 W/m 5,2 C 17,3 C 14,5 km/h (3 Bft) 100,00 %
22.02.2016 13:49 18,7 C 42 % 1008,4 hPa 0,0 l/m 11,3 km/h (2 Bft) W 261 1 min 0,000 mm 1,6 UV-I 450 W/m 5,5 C 16,8 C 14,5 km/h (3 Bft) 100,00 %
22.02.2016 13:50 18,7 C 42 % 1008,4 hPa 0,0 l/m 6,0 km/h (2 Bft) W-SW 240 1 min 0,000 mm 1,6 UV-I 448 W/m 5,5 C 18,7 C 11,3 km/h (2 Bft) 100,00 %
22.02.2016 13:51 18,8 C 44 % 1008,5 hPa 0,0 l/m 7,9 km/h (2 Bft) W-SW 247 1 min 0,000 mm 1,6 UV-I 447 W/m 6,3 C 18,1 C 12,9 km/h (3 Bft) 100,00 %
22.02.2016 13:52 18,8 C 45 % 1008,5 hPa 0,0 l/m 8,3 km/h (2 Bft) W-NW 288 1 min 0,000 mm 1,6 UV-I 444 W/m 6,6 C 18,0 C 12,9 km/h (3 Bft) 96,15 %
22.02.2016 13:53 18,8 C 44 % 1008,4 hPa 0,0 l/m 7,3 km/h (2 Bft) W-SW 241 1 min 0,000 mm 1,6 UV-I 443 W/m 6,3 C 18,4 C 12,9 km/h (3 Bft) 100,00 %
22.02.2016 13:54 18,9 C 44 % 1008,4 hPa 0,0 l/m 10,7 km/h (2 Bft) W-SW 250 1 min 0,000 mm 1,5 UV-I 442 W/m 6,4 C 17,2 C 17,7 km/h (3 Bft) 100,00 %
22.02.2016 13:55 18,9 C 42 % 1008,3 hPa 0,0 l/m 6,3 km/h (2 Bft) W 268 1 min 0,000 mm 1,5 UV-I 440 W/m 5,7 C 18,9 C 16,1 km/h (3 Bft) 100,00 %
22.02.2016 13:56 18,9 C 44 % 1008,3 hPa 0,0 l/m 10,0 km/h (2 Bft) W 266 1 min 0,000 mm 1,5 UV-I 438 W/m 6,4 C 17,4 C 12,9 km/h (3 Bft) 100,00 %
22.02.2016 13:57 18,9 C 42 % 1008,3 hPa 0,0 l/m 12,3 km/h (3 Bft) W 259 1 min 0,000 mm 1,5 UV-I 436 W/m 5,7 C 16,7 C 19,3 km/h (3 Bft) 100,00 %
22.02.2016 13:58 18,8 C 42 % 1008,3 hPa 0,0 l/m 6,0 km/h (2 Bft) NW 310 1 min 0,000 mm 1,5 UV-I 435 W/m 5,6 C 18,8 C 11,3 km/h (2 Bft) 100,00 %
22.02.2016 13:59 18,8 C 45 % 1008,3 hPa 0,0 l/m 9,2 km/h (2 Bft) W-NW 286 1 min 0,000 mm 1,5 UV-I 434 W/m 6,6 C 17,6 C 14,5 km/h (3 Bft) 92,86 %
22.02.2016 14:00 18,8 C 42 % 1008,3 hPa 0,0 l/m 18,0 km/h (3 Bft) W-SW 238 1 min 0,000 mm 1,5 UV-I 432 W/m 5,6 C 15,1 C 27,4 km/h (4 Bft) 100,00 %
22.02.2016 14:01 18,8 C 42 % 1008,2 hPa 0,0 l/m 13,4 km/h (3 Bft) W-SW 255 1 min 0,279 mm 1,5 UV-I 434 W/m 5,6 C 16,2 C 20,9 km/h (4 Bft) 100,00 %
22.02.2016 14:02 18,8 C 42 % 1008,2 hPa 0,0 l/m 8,5 km/h (2 Bft) SW 234 1 min 0,000 mm 1,5 UV-I 431 W/m 5,6 C 17,9 C 14,5 km/h (3 Bft) 100,00 %
22.02.2016 14:03 18,8 C 43 % 1008,2 hPa 0,0 l/m 8,7 km/h (2 Bft) W-NW 286 1 min 0,000 mm 1,5 UV-I 429 W/m 6,0 C 17,8 C 14,5 km/h (3 Bft) 96,15 %
22.02.2016 14:04 18,9 C 44 % 1008,1 hPa 0,0 l/m 7,9 km/h (2 Bft) W 261 1 min 0,000 mm 1,4 UV-I 428 W/m 6,4 C 18,2 C 17,7 km/h (3 Bft) 96,30 %
22.02.2016 14:05 18,8 C 43 % 1008,1 hPa 0,0 l/m 11,2 km/h (2 Bft) NW 306 1 min 0,000 mm 1,4 UV-I 429 W/m 6,0 C 16,9 C 16,1 km/h (3 Bft) 100,00 %
22.02.2016 14:06 18,9 C 43 % 1008,1 hPa 0,0 l/m 6,4 km/h (2 Bft) W 262 1 min 0,000 mm 1,4 UV-I 426 W/m 6,0 C 18,9 C 14,5 km/h (3 Bft) 100,00 %
22.02.2016 14:07 18,9 C 44 % 1008,1 hPa 0,0 l/m 7,5 km/h (2 Bft) W-SW 252 1 min 0,000 mm 1,4 UV-I 422 W/m 6,4 C 18,4 C 14,5 km/h (3 Bft) 100,00 %
22.02.2016 14:08 18,9 C 43 % 1008,1 hPa 0,0 l/m 8,4 km/h (2 Bft) W-SW 251 1 min 0,000 mm 1,4 UV-I 420 W/m 6,0 C 18,0 C 19,3 km/h (3 Bft) 100,00 %
22.02.2016 14:09 18,9 C 43 % 1008,1 hPa 0,0 l/m 8,5 km/h (2 Bft) W 259 1 min 0,000 mm 1,4 UV-I 422 W/m 6,0 C 18,0 C 14,5 km/h (3 Bft) 100,00 %
22.02.2016 14:10 18,9 C 44 % 1008,2 hPa 0,0 l/m 8,0 km/h (2 Bft) W-SW 240 1 min 0,000 mm 1,4 UV-I 423 W/m 6,4 C 18,2 C 16,1 km/h (3 Bft) 100,00 %
22.02.2016 14:11 18,9 C 42 % 1008,1 hPa 0,0 l/m 6,2 km/h (2 Bft) W 277 1 min 0,000 mm 1,4 UV-I 418 W/m 5,7 C 18,9 C 9,7 km/h (2 Bft) 94,44 %
22.02.2016 14:12 18,9 C 43 % 1008,1 hPa 0,0 l/m 6,8 km/h (2 Bft) W-SW 250 1 min 0,000 mm 1,4 UV-I 417 W/m 6,0 C 18,7 C 11,3 km/h (2 Bft) 100,00 %
22.02.2016 14:13 18,9 C 43 % 1008,2 hPa 0,0 l/m 5,9 km/h (2 Bft) W-NW 297 1 min 0,000 mm 1,4 UV-I 418 W/m 6,0 C 18,9 C 8,0 km/h (2 Bft) 100,00 %
22.02.2016 14:14 18,9 C 43 % 1008,1 hPa 0,0 l/m 9,7 km/h (2 Bft) W-SW 250 1 min 0,000 mm 1,4 UV-I 417 W/m 6,0 C 17,5 C 16,1 km/h (3 Bft) 100,00 %
22.02.2016 14:15 18,9 C 43 % 1008,2 hPa 0,0 l/m 12,4 km/h (3 Bft) W-SW 251 1 min 0,000 mm 1,3 UV-I 415 W/m 6,0 C 16,6 C 17,7 km/h (3 Bft) 100,00 %
22.02.2016 14:16 19,0 C 41 % 1008,2 hPa 0,0 l/m 14,4 km/h (3 Bft) SW 229 1 min 0,000 mm 1,3 UV-I 413 W/m 5,4 C 16,2 C 24,1 km/h (4 Bft) 100,00 %
22.02.2016 14:17 19,0 C 41 % 1008,2 hPa 0,0 l/m 14,8 km/h (3 Bft) W-SW 238 1 min 0,000 mm 1,3 UV-I 409 W/m 5,4 C 16,1 C 22,5 km/h (4 Bft) 100,00 %
22.02.2016 14:18 19,0 C 40 % 1008,2 hPa 0,0 l/m 13,7 km/h (3 Bft) W-SW 257 1 min 0,000 mm 1,3 UV-I 406 W/m 5,1 C 16,4 C 19,3 km/h (3 Bft) 100,00 %
22.02.2016 14:19 19,0 C 41 % 1008,1 hPa 0,0 l/m 14,6 km/h (3 Bft) W-NW 298 1 min 0,000 mm 1,3 UV-I 408 W/m 5,4 C 16,1 C 24,1 km/h (4 Bft) 100,00 %
22.02.2016 14:20 19,0 C 42 % 1008,2 hPa 0,0 l/m 7,2 km/h (2 Bft) W-NW 286 1 min 0,000 mm 1,3 UV-I 402 W/m 5,8 C 18,6 C 14,5 km/h (3 Bft) 96,55 %
22.02.2016 14:21 19,1 C 42 % 1008,2 hPa 0,0 l/m 6,2 km/h (2 Bft) SW 234 1 min 0,000 mm 1,3 UV-I 400 W/m 5,9 C 19,1 C 11,3 km/h (2 Bft) 100,00 %
22.02.2016 14:22 19,1 C 43 % 1008,2 hPa 0,0 l/m 11,1 km/h (2 Bft) W 259 1 min 0,000 mm 1,3 UV-I 400 W/m 6,2 C 17,3 C 16,1 km/h (3 Bft) 100,00 %
22.02.2016 14:23 19,1 C 42 % 1008,1 hPa 0,0 l/m 12,1 km/h (2 Bft) W 270 1 min 0,000 mm 1,3 UV-I 399 W/m 5,9 C 17,0 C 17,7 km/h (3 Bft) 100,00 %
22.02.2016 14:24 19,1 C 41 % 1008,0 hPa 0,0 l/m 9,1 km/h (2 Bft) W-NW 293 1 min 0,000 mm 1,3 UV-I 398 W/m 5,5 C 18,0 C 14,5 km/h (3 Bft) 100,00 %
22.02.2016 14:25 19,1 C 40 % 1008,1 hPa 0,0 l/m 9,3 km/h (2 Bft) W 264 1 min 0,000 mm 1,2 UV-I 396 W/m 5,2 C 17,9 C 14,5 km/h (3 Bft) 100,00 %
22.02.2016 14:26 19,1 C 42 % 1008,1 hPa 0,0 l/m 9,3 km/h (2 Bft) W-NW 288 1 min 0,000 mm 1,2 UV-I 393 W/m 5,9 C 17,9 C 16,1 km/h (3 Bft) 100,00 %
22.02.2016 14:27 19,1 C 43 % 1008,0 hPa 0,0 l/m 12,9 km/h (3 Bft) W-SW 253 1 min 0,000 mm 1,2 UV-I 390 W/m 6,2 C 16,7 C 17,7 km/h (3 Bft) 96,30 %
22.02.2016 14:28 19,1 C 41 % 1008,0 hPa 0,0 l/m 11,2 km/h (2 Bft) W 264 1 min 0,000 mm 1,2 UV-I 390 W/m 5,5 C 17,2 C 14,5 km/h (3 Bft) 100,00 %
22.02.2016 14:29 19,1 C 40 % 1008,0 hPa 0,0 l/m 13,8 km/h (3 Bft) W-SW 252 1 min 0,000 mm 1,2 UV-I 385 W/m 5,2 C 16,5 C 16,1 km/h (3 Bft) 96,15 %
22.02.2016 14:30 19,1 C 41 % 1008,0 hPa 0,0 l/m 10,4 km/h (2 Bft) W-NW 294 1 min 0,000 mm 1,2 UV-I 381 W/m 5,5 C 17,5 C 14,5 km/h (3 Bft) 100,00 %
22.02.2016 14:31 19,1 C 41 % 1008,0 hPa 0,0 l/m 10,1 km/h (2 Bft) W 262 1 min 0,000 mm 1,2 UV-I 381 W/m 5,5 C 17,6 C 14,5 km/h (3 Bft) 96,30 %
22.02.2016 14:32 19,1 C 41 % 1007,9 hPa 0,0 l/m 8,5 km/h (2 Bft) W 267 1 min 0,000 mm 1,2 UV-I 383 W/m 5,5 C 18,2 C 11,3 km/h (2 Bft) 93,33 %
22.02.2016 14:33 19,1 C 40 % 1007,9 hPa 0,0 l/m 10,5 km/h (2 Bft) W 274 1 min 0,000 mm 1,2 UV-I 379 W/m 5,2 C 17,5 C 14,5 km/h (3 Bft) 96,55 %
22.02.2016 14:34 19,1 C 39 % 1007,8 hPa 0,0 l/m 10,5 km/h (2 Bft) W-SW 257 1 min 0,000 mm 1,2 UV-I 377 W/m 4,8 C 17,5 C 20,9 km/h (4 Bft) 96,30 %
22.02.2016 14:35 19,1 C 39 % 1007,9 hPa 0,0 l/m 12,5 km/h (3 Bft) W 261 1 min 0,000 mm 1,1 UV-I 376 W/m 4,8 C 16,8 C 16,1 km/h (3 Bft) 95,65 %
22.02.2016 14:36 19,1 C 40 % 1007,9 hPa 0,0 l/m 14,6 km/h (3 Bft) W-SW 246 1 min 0,000 mm 1,1 UV-I 378 W/m 5,2 C 16,3 C 17,7 km/h (3 Bft) 95,83 %
22.02.2016 14:37 19,2 C 40 % 1007,8 hPa 0,0 l/m 13,3 km/h (3 Bft) W-SW 252 1 min 0,000 mm 1,1 UV-I 378 W/m 5,3 C 16,7 C 16,1 km/h (3 Bft) 100,00 %
22.02.2016 14:38 19,2 C 40 % 1007,9 hPa 0,0 l/m 12,7 km/h (3 Bft) W 261 1 min 0,000 mm 1,1 UV-I 376 W/m 5,3 C 16,9 C 14,5 km/h (3 Bft) 92,59 %
22.02.2016 14:39 19,2 C 40 % 1007,9 hPa 0,0 l/m 10,9 km/h (2 Bft) W 281 1 min 0,000 mm 1,1 UV-I 374 W/m 5,3 C 17,5 C 14,5 km/h (3 Bft) 96,15 %
22.02.2016 14:40 19,2 C 40 % 1007,9 hPa 0,0 l/m 11,0 km/h (2 Bft) W-SW 244 1 min 0,000 mm 1,1 UV-I 374 W/m 5,3 C 17,4 C 17,7 km/h (3 Bft) 96,67 %
22.02.2016 14:41 19,3 C 41 % 1007,9 hPa 0,0 l/m 12,8 km/h (3 Bft) W-NW 284 1 min 0,000 mm 1,1 UV-I 372 W/m 5,7 C 17,0 C 17,7 km/h (3 Bft) 100,00 %
22.02.2016 14:42 19,3 C 42 % 1007,9 hPa 0,0 l/m 8,0 km/h (2 Bft) W-SW 250 1 min 0,000 mm 1,1 UV-I 370 W/m 6,1 C 18,6 C 14,5 km/h (3 Bft) 96,30 %
22.02.2016 14:43 19,3 C 39 % 1007,9 hPa 0,0 l/m 10,4 km/h (2 Bft) W-SW 258 1 min 0,000 mm 1,1 UV-I 367 W/m 5,0 C 17,7 C 17,7 km/h (3 Bft) 100,00 %
22.02.2016 14:44 19,3 C 40 % 1007,9 hPa 0,0 l/m 5,8 km/h (2 Bft) W 270 1 min 0,000 mm 1,1 UV-I 366 W/m 5,4 C 19,3 C 11,3 km/h (2 Bft) 93,33 %
22.02.2016 14:45 19,3 C 43 % 1007,9 hPa 0,0 l/m 3,9 km/h (1 Bft) W-NW 284 1 min 0,000 mm 1,0 UV-I 363 W/m 6,4 C 19,3 C 6,4 km/h (2 Bft) 92,31 %
22.02.2016 14:48 19,2 C 43 % 1007,8 hPa 0,0 l/m 4,3 km/h (1 Bft) W 278 3 min 0,000 mm 1,0 UV-I 357 W/m 6,3 C 19,2 C 6,4 km/h (2 Bft) 95,89 %
22.02.2016 14:49 19,2 C 45 % 1007,8 hPa 0,0 l/m 7,8 km/h (2 Bft) W-SW 246 1 min 0,000 mm 1,0 UV-I 355 W/m 7,0 C 18,6 C 19,3 km/h (3 Bft) 96,15 %
22.02.2016 14:50 19,2 C 42 % 1007,7 hPa 0,0 l/m 9,7 km/h (2 Bft) W 279 1 min 0,000 mm 1,0 UV-I 352 W/m 6,0 C 17,9 C 14,5 km/h (3 Bft) 100,00 %
22.02.2016 14:51 19,2 C 41 % 1007,7 hPa 0,0 l/m 4,5 km/h (1 Bft) W-NW 286 1 min 0,000 mm 1,0 UV-I 347 W/m 5,6 C 19,2 C 6,4 km/h (2 Bft) 91,67 %
22.02.2016 14:52 19,2 C 43 % 1007,7 hPa 0,0 l/m 7,0 km/h (2 Bft) SW 234 1 min 0,000 mm 0,9 UV-I 338 W/m 6,3 C 18,9 C 16,1 km/h (3 Bft) 100,00 %
22.02.2016 14:53 19,2 C 43 % 1007,7 hPa 0,0 l/m 8,6 km/h (2 Bft) NW 306 1 min 0,000 mm 0,8 UV-I 229 W/m 6,3 C 18,3 C 12,9 km/h (3 Bft) 96,55 %
22.02.2016 14:54 19,1 C 43 % 1007,8 hPa 0,0 l/m 3,2 km/h (1 Bft) W-NW 291 0 min 0,000 mm 0,8 UV-I 170 W/m 6,2 C 19,1 C 4,8 km/h (1 Bft) 94,44 %
22.02.2016 14:55 19,0 C 42 % 1007,8 hPa 0,0 l/m 5,8 km/h (2 Bft) W 267 1 min 0,000 mm 0,8 UV-I 218 W/m 5,8 C 19,0 C 9,7 km/h (2 Bft) 100,00 %
22.02.2016 14:56 18,9 C 42 % 1007,8 hPa 0,0 l/m 9,5 km/h (2 Bft) W 262 1 min 0,000 mm 0,9 UV-I 241 W/m 5,7 C 17,6 C 12,9 km/h (3 Bft) 100,00 %
22.02.2016 14:57 18,9 C 45 % 1007,8 hPa 0,0 l/m 6,8 km/h (2 Bft) W-SW 253 1 min 0,000 mm 0,8 UV-I 222 W/m 6,7 C 18,7 C 14,5 km/h (3 Bft) 100,00 %
22.02.2016 14:58 18,8 C 42 % 1007,8 hPa 0,0 l/m 8,4 km/h (2 Bft) W-NW 293 1 min 0,000 mm 0,8 UV-I 221 W/m 5,6 C 17,9 C 17,7 km/h (3 Bft) 100,00 %
22.02.2016 14:59 18,8 C 41 % 1007,8 hPa 0,0 l/m 10,6 km/h (2 Bft) W 278 1 min 0,000 mm 0,7 UV-I 217 W/m 5,3 C 17,1 C 14,5 km/h (3 Bft) 100,00 %
22.02.2016 15:00 18,8 C 42 % 1007,8 hPa 0,0 l/m 4,2 km/h (1 Bft) W 281 1 min 0,000 mm 0,8 UV-I 220 W/m 5,6 C 18,8 C 8,0 km/h (2 Bft) 100,00 %
22.02.2016 15:01 18,8 C 42 % 1007,9 hPa 0,0 l/m 14,3 km/h (3 Bft) W 259 1 min 0,279 mm 0,7 UV-I 219 W/m 5,6 C 16,0 C 22,5 km/h (4 Bft) 100,00 %
22.02.2016 15:02 18,8 C 40 % 1007,8 hPa 0,0 l/m 12,9 km/h (3 Bft) W 281 1 min 0,000 mm 0,8 UV-I 300 W/m 4,9 C 16,4 C 20,9 km/h (4 Bft) 91,30 %
22.02.2016 15:03 18,8 C 41 % 1007,8 hPa 0,0 l/m 10,5 km/h (2 Bft) W-NW 293 1 min 0,000 mm 0,8 UV-I 334 W/m 5,3 C 17,1 C 17,7 km/h (3 Bft) 100,00 %
22.02.2016 15:04 18,9 C 39 % 1007,8 hPa 0,0 l/m 9,0 km/h (2 Bft) W 259 1 min 0,000 mm 0,8 UV-I 345 W/m 4,6 C 17,8 C 12,9 km/h (3 Bft) 98,77 %
22.02.2016 15:05 18,9 C 41 % 1007,8 hPa 0,0 l/m 7,6 km/h (2 Bft) W-SW 258 1 min 0,000 mm 0,8 UV-I 345 W/m 5,4 C 18,4 C 11,3 km/h (2 Bft) 100,00 %
22.02.2016 15:06 19,0 C 42 % 1007,9 hPa 0,0 l/m 9,0 km/h (2 Bft) W 259 1 min 0,000 mm 0,8 UV-I 340 W/m 5,8 C 17,9 C 12,9 km/h (3 Bft) 96,15 %
22.02.2016 15:07 19,0 C 39 % 1007,9 hPa 0,0 l/m 9,4 km/h (2 Bft) N-NW 330 1 min 0,000 mm 0,8 UV-I 339 W/m 4,7 C 17,8 C 14,5 km/h (3 Bft) 100,00 %
22.02.2016 15:08 19,1 C 41 % 1007,8 hPa 0,0 l/m 12,5 km/h (3 Bft) W-NW 291 1 min 0,000 mm 0,8 UV-I 337 W/m 5,5 C 16,8 C 16,1 km/h (3 Bft) 100,00 %
22.02.2016 15:09 19,1 C 40 % 1007,8 hPa 0,0 l/m 15,6 km/h (3 Bft) W 274 1 min 0,000 mm 0,8 UV-I 330 W/m 5,2 C 16,0 C 25,7 km/h (4 Bft) 100,00 %
22.02.2016 15:10 19,1 C 37 % 1007,8 hPa 0,0 l/m 13,8 km/h (3 Bft) W 277 1 min 0,000 mm 0,8 UV-I 324 W/m 4,1 C 16,5 C 22,5 km/h (4 Bft) 100,00 %
22.02.2016 15:11 19,2 C 39 % 1007,8 hPa 0,0 l/m 8,6 km/h (2 Bft) W-NW 299 1 min 0,000 mm 0,8 UV-I 317 W/m 4,9 C 18,3 C 12,9 km/h (3 Bft) 100,00 %
22.02.2016 15:12 19,2 C 39 % 1007,8 hPa 0,0 l/m 9,8 km/h (2 Bft) W-SW 258 1 min 0,000 mm 0,8 UV-I 314 W/m 4,9 C 17,8 C 22,5 km/h (4 Bft) 100,00 %
22.02.2016 15:13 19,2 C 39 % 1007,9 hPa 0,0 l/m 12,8 km/h (3 Bft) W 278 1 min 0,000 mm 0,7 UV-I 314 W/m 4,9 C 16,9 C 17,7 km/h (3 Bft) 100,00 %
22.02.2016 15:14 19,2 C 39 % 1007,9 hPa 0,0 l/m 10,2 km/h (2 Bft) W 277 1 min 0,000 mm 0,7 UV-I 304 W/m 4,9 C 17,7 C 12,9 km/h (3 Bft) 100,00 %
22.02.2016 15:15 19,2 C 40 % 1007,9 hPa 0,0 l/m 8,8 km/h (2 Bft) SW 235 1 min 0,000 mm 0,7 UV-I 292 W/m 5,3 C 18,2 C 17,7 km/h (3 Bft) 90,91 %
22.02.2016 15:16 19,2 C 39 % 1007,9 hPa 0,0 l/m 14,5 km/h (3 Bft) W-SW 253 1 min 0,000 mm 0,7 UV-I 297 W/m 4,9 C 16,4 C 20,9 km/h (4 Bft) 100,00 %
22.02.2016 15:17 19,2 C 38 % 1007,8 hPa 0,0 l/m 12,3 km/h (3 Bft) W-NW 288 1 min 0,000 mm 0,7 UV-I 300 W/m 4,5 C 17,0 C 16,1 km/h (3 Bft) 96,55 %
22.02.2016 15:18 19,2 C 39 % 1007,8 hPa 0,0 l/m 11,1 km/h (2 Bft) W 277 1 min 0,000 mm 0,7 UV-I 261 W/m 4,9 C 17,4 C 14,5 km/h (3 Bft) 100,00 %
22.02.2016 15:19 19,2 C 39 % 1007,9 hPa 0,0 l/m 10,4 km/h (2 Bft) W-NW 300 1 min 0,000 mm 0,7 UV-I 301 W/m 4,9 C 17,6 C 17,7 km/h (3 Bft) 100,00 %
22.02.2016 15:20 19,3 C 41 % 1007,8 hPa 0,0 l/m 3,1 km/h (1 Bft) W 281 1 min 0,000 mm 0,7 UV-I 299 W/m 5,7 C 19,3 C 4,8 km/h (1 Bft) 100,00 %
22.02.2016 15:21 19,3 C 40 % 1007,8 hPa 0,0 l/m 2,5 km/h (1 Bft) W 277 1 min 0,000 mm 0,7 UV-I 298 W/m 5,4 C 19,3 C 4,8 km/h (1 Bft) 100,00 %
22.02.2016 15:22 19,2 C 43 % 1007,8 hPa 0,0 l/m 3,9 km/h (1 Bft) W-NW 301 1 min 0,000 mm 0,7 UV-I 297 W/m 6,3 C 19,2 C 6,4 km/h (2 Bft) 100,00 %
22.02.2016 15:23 19,1 C 43 % 1007,8 hPa 0,0 l/m 7,5 km/h (2 Bft) S-SW 208 1 min 0,000 mm 0,6 UV-I 293 W/m 6,2 C 18,6 C 19,3 km/h (3 Bft) 100,00 %
22.02.2016 15:24 19,1 C 40 % 1007,8 hPa 0,0 l/m 14,7 km/h (3 Bft) W 265 1 min 0,000 mm 0,6 UV-I 206 W/m 5,2 C 16,2 C 29,0 km/h (5 Bft) 100,00 %
22.02.2016 15:25 19,0 C 40 % 1007,8 hPa 0,0 l/m 10,9 km/h (2 Bft) W-SW 250 1 min 0,000 mm 0,6 UV-I 236 W/m 5,1 C 17,2 C 14,5 km/h (3 Bft) 100,00 %
22.02.2016 15:26 19,0 C 39 % 1007,9 hPa 0,0 l/m 3,0 km/h (1 Bft) W 259 1 min 0,000 mm 0,6 UV-I 237 W/m 4,7 C 19,0 C 6,4 km/h (2 Bft) 100,00 %
22.02.2016 15:27 19,0 C 40 % 1007,8 hPa 0,0 l/m 3,8 km/h (1 Bft) W 269 1 min 0,000 mm 0,6 UV-I 205 W/m 5,1 C 19,0 C 4,8 km/h (1 Bft) 100,00 %
22.02.2016 15:28 18,9 C 41 % 1007,9 hPa 0,0 l/m 12,4 km/h (3 Bft) W 269 1 min 0,000 mm 0,6 UV-I 232 W/m 5,4 C 16,6 C 16,1 km/h (3 Bft) 100,00 %
22.02.2016 15:29 18,9 C 40 % 1007,8 hPa 0,0 l/m 14,0 km/h (3 Bft) W-SW 258 1 min 0,000 mm 0,6 UV-I 242 W/m 5,0 C 16,2 C 22,5 km/h (4 Bft) 100,00 %
22.02.2016 15:30 18,9 C 40 % 1007,9 hPa 0,0 l/m 7,7 km/h (2 Bft) W-NW 293 1 min 0,000 mm 0,5 UV-I 238 W/m 5,0 C 18,3 C 11,3 km/h (2 Bft) 100,00 %
22.02.2016 15:31 18,9 C 41 % 1007,9 hPa 0,0 l/m 19,2 km/h (3 Bft) W 263 1 min 0,000 mm 0,5 UV-I 254 W/m 5,4 C 14,9 C 27,4 km/h (4 Bft) 100,00 %
22.02.2016 15:32 18,9 C 37 % 1007,9 hPa 0,0 l/m 19,6 km/h (3 Bft) W-NW 289 1 min 0,000 mm 0,5 UV-I 257 W/m 3,9 C 14,9 C 27,4 km/h (4 Bft) 100,00 %
22.02.2016 15:33 18,9 C 37 % 1007,9 hPa 0,0 l/m 22,7 km/h (4 Bft) W-SW 257 1 min 0,000 mm 0,5 UV-I 234 W/m 3,9 C 14,3 C 29,0 km/h (5 Bft) 100,00 %
22.02.2016 15:34 19,0 C 37 % 1007,9 hPa 0,0 l/m 11,0 km/h (2 Bft) W 261 1 min 0,000 mm 0,5 UV-I 219 W/m 4,0 C 17,2 C 16,1 km/h (3 Bft) 100,00 %
22.02.2016 15:35 19,0 C 37 % 1007,9 hPa 0,0 l/m 15,1 km/h (3 Bft) W-SW 253 1 min 0,000 mm 0,5 UV-I 256 W/m 4,0 C 16,0 C 24,1 km/h (4 Bft) 100,00 %
22.02.2016 15:36 19,0 C 36 % 1007,9 hPa 0,0 l/m 19,7 km/h (3 Bft) W-SW 256 1 min 0,000 mm 0,5 UV-I 284 W/m 3,6 C 15,0 C 25,7 km/h (4 Bft) 100,00 %
22.02.2016 15:37 19,1 C 36 % 1007,9 hPa 0,0 l/m 17,5 km/h (3 Bft) NW 313 1 min 0,000 mm 0,5 UV-I 278 W/m 3,7 C 15,6 C 27,4 km/h (4 Bft) 100,00 %
22.02.2016 15:38 19,1 C 36 % 1008,0 hPa 0,0 l/m 9,4 km/h (2 Bft) W-NW 287 1 min 0,000 mm 0,5 UV-I 291 W/m 3,7 C 17,9 C 14,5 km/h (3 Bft) 94,12 %
22.02.2016 15:39 19,1 C 36 % 1008,0 hPa 0,0 l/m 14,6 km/h (3 Bft) SW 231 1 min 0,000 mm 0,5 UV-I 297 W/m 3,7 C 16,3 C 17,7 km/h (3 Bft) 100,00 %
22.02.2016 15:40 19,1 C 35 % 1007,9 hPa 0,0 l/m 20,9 km/h (4 Bft) W-SW 253 1 min 0,000 mm 0,5 UV-I 293 W/m 3,3 C 14,9 C 25,7 km/h (4 Bft) 100,00 %
22.02.2016 15:41 19,1 C 35 % 1008,0 hPa 0,0 l/m 18,6 km/h (3 Bft) W 261 1 min 0,000 mm 0,5 UV-I 284 W/m 3,3 C 15,3 C 25,7 km/h (4 Bft) 96,30 %
22.02.2016 15:42 19,1 C 34 % 1008,0 hPa 0,0 l/m 18,1 km/h (3 Bft) W-SW 252 1 min 0,000 mm 0,5 UV-I 264 W/m 2,9 C 15,4 C 22,5 km/h (4 Bft) 100,00 %
22.02.2016 15:43 19,1 C 34 % 1008,0 hPa 0,0 l/m 11,8 km/h (2 Bft) W-NW 284 1 min 0,000 mm 0,5 UV-I 225 W/m 2,9 C 17,1 C 19,3 km/h (3 Bft) 100,00 %
22.02.2016 15:44 19,1 C 36 % 1008,0 hPa 0,0 l/m 9,3 km/h (2 Bft) N-NW 333 1 min 0,000 mm 0,4 UV-I 211 W/m 3,7 C 17,9 C 16,1 km/h (3 Bft) 100,00 %
22.02.2016 15:45 19,1 C 36 % 1008,0 hPa 0,0 l/m 9,1 km/h (2 Bft) W 281 1 min 0,000 mm 0,0 UV-I 224 W/m 3,7 C 18,0 C 19,3 km/h (3 Bft) 100,00 %
22.02.2016 15:46 19,1 C 37 % 1008,0 hPa 0,0 l/m 11,3 km/h (2 Bft) W-SW 256 1 min 0,000 mm 0,0 UV-I 216 W/m 4,1 C 17,2 C 19,3 km/h (3 Bft) 100,00 %
22.02.2016 15:47 19,0 C 36 % 1008,1 hPa 0,0 l/m 15,1 km/h (3 Bft) SW 234 1 min 0,000 mm 0,0 UV-I 226 W/m 3,6 C 16,0 C 19,3 km/h (3 Bft) 91,30 %
22.02.2016 15:48 19,0 C 37 % 1008,0 hPa 0,0 l/m 9,2 km/h (2 Bft) NW 306 1 min 0,000 mm 0,0 UV-I 176 W/m 4,0 C 17,8 C 14,5 km/h (3 Bft) 100,00 %
22.02.2016 15:49 18,9 C 38 % 1008,0 hPa 0,0 l/m 7,0 km/h (2 Bft) W 261 0 min 0,000 mm 0,0 UV-I 144 W/m 4,3 C 18,6 C 11,3 km/h (2 Bft) 100,00 %
22.02.2016 15:50 18,9 C 38 % 1008,1 hPa 0,0 l/m 6,2 km/h (2 Bft) W 277 0 min 0,000 mm 0,0 UV-I 133 W/m 4,3 C 18,9 C 12,9 km/h (3 Bft) 96,15 %
22.02.2016 15:51 18,8 C 40 % 1008,0 hPa 0,0 l/m 7,4 km/h (2 Bft) W 273 1 min 0,000 mm 0,0 UV-I 148 W/m 4,9 C 18,4 C 12,9 km/h (3 Bft) 100,00 %
22.02.2016 15:52 18,7 C 39 % 1008,0 hPa 0,0 l/m 9,2 km/h (2 Bft) W-SW 250 0 min 0,000 mm 0,0 UV-I 136 W/m 4,5 C 17,5 C 14,5 km/h (3 Bft) 100,00 %
22.02.2016 15:53 18,7 C 39 % 1008,1 hPa 0,0 l/m 8,8 km/h (2 Bft) W-SW 253 0 min 0,000 mm 0,0 UV-I 110 W/m 4,5 C 17,7 C 14,5 km/h (3 Bft) 100,00 %
22.02.2016 15:54 18,6 C 41 % 1008,1 hPa 0,0 l/m 16,3 km/h (3 Bft) W 277 0 min 0,000 mm 0,0 UV-I 105 W/m 5,1 C 15,2 C 22,5 km/h (4 Bft) 98,81 %
22.02.2016 15:55 18,5 C 39 % 1008,1 hPa 0,0 l/m 13,3 km/h (3 Bft) W-NW 301 0 min 0,000 mm 0,0 UV-I 104 W/m 4,3 C 15,9 C 17,7 km/h (3 Bft) 97,56 %
22.02.2016 15:56 18,5 C 39 % 1008,1 hPa 0,0 l/m 8,4 km/h (2 Bft) W 277 0 min 0,000 mm 0,0 UV-I 101 W/m 4,3 C 17,6 C 12,9 km/h (3 Bft) 100,00 %
22.02.2016 15:57 18,4 C 39 % 1008,1 hPa 0,0 l/m 5,9 km/h (2 Bft) W-SW 257 0 min 0,000 mm 0,0 UV-I 99 W/m 4,2 C 18,4 C 9,7 km/h (2 Bft) 92,31 %
22.02.2016 15:58 18,4 C 39 % 1008,1 hPa 0,0 l/m 8,6 km/h (2 Bft) W 261 0 min 0,000 mm 0,0 UV-I 97 W/m 4,2 C 17,4 C 12,9 km/h (3 Bft) 100,00 %
22.02.2016 15:59 18,3 C 41 % 1008,1 hPa 0,0 l/m 11,3 km/h (2 Bft) NW 305 0 min 0,000 mm 0,0 UV-I 95 W/m 4,8 C 16,3 C 16,1 km/h (3 Bft) 100,00 %
22.02.2016 16:00 18,3 C 41 % 1008,1 hPa 0,0 l/m 7,0 km/h (2 Bft) W-NW 294 0 min 0,000 mm 0,0 UV-I 97 W/m 4,8 C 18,0 C 12,9 km/h (3 Bft) 100,00 %
22.02.2016 16:01 18,2 C 41 % 1008,1 hPa 0,0 l/m 10,1 km/h (2 Bft) W 271 0 min 0,229 mm 0,0 UV-I 97 W/m 4,7 C 16,6 C 14,5 km/h (3 Bft) 100,00 %
22.02.2016 16:02 18,1 C 41 % 1008,1 hPa 0,0 l/m 7,8 km/h (2 Bft) W 261 0 min 0,000 mm 0,0 UV-I 95 W/m 4,6 C 17,4 C 14,5 km/h (3 Bft) 100,00 %
22.02.2016 16:03 18,1 C 39 % 1008,1 hPa 0,0 l/m 8,0 km/h (2 Bft) W 276 0 min 0,000 mm 0,0 UV-I 97 W/m 3,9 C 17,4 C 12,9 km/h (3 Bft) 100,00 %
22.02.2016 16:04 18,0 C 42 % 1008,1 hPa 0,0 l/m 11,8 km/h (2 Bft) W-SW 257 0 min 0,000 mm 0,0 UV-I 98 W/m 4,9 C 15,8 C 16,1 km/h (3 Bft) 100,00 %
22.02.2016 16:05 17,9 C 40 % 1008,1 hPa 0,0 l/m 7,5 km/h (2 Bft) W-SW 244 0 min 0,000 mm 0,0 UV-I 98 W/m 4,1 C 17,4 C 12,9 km/h (3 Bft) 100,00 %
22.02.2016 16:06 17,9 C 42 % 1008,1 hPa 0,0 l/m 8,1 km/h (2 Bft) W 268 0 min 0,000 mm 0,0 UV-I 98 W/m 4,8 C 17,1 C 12,9 km/h (3 Bft) 100,00 %
22.02.2016 16:07 17,9 C 41 % 1008,1 hPa 0,0 l/m 10,4 km/h (2 Bft) W-SW 254 0 min 0,000 mm 0,0 UV-I 98 W/m 4,5 C 16,2 C 14,5 km/h (3 Bft) 100,00 %
22.02.2016 16:08 17,8 C 41 % 1008,1 hPa 0,0 l/m 6,7 km/h (2 Bft) W 261 0 min 0,000 mm 0,0 UV-I 96 W/m 4,4 C 17,7 C 9,7 km/h (2 Bft) 100,00 %
22.02.2016 16:09 17,8 C 42 % 1008,1 hPa 0,0 l/m 7,9 km/h (2 Bft) W-SW 257 0 min 0,000 mm 0,0 UV-I 94 W/m 4,7 C 17,1 C 11,3 km/h (2 Bft) 100,00 %
22.02.2016 16:10 17,8 C 43 % 1008,1 hPa 0,0 l/m 4,9 km/h (1 Bft) W 277 0 min 0,000 mm 0,0 UV-I 91 W/m 5,1 C 17,8 C 6,4 km/h (2 Bft) 100,00 %
22.02.2016 16:11 17,7 C 42 % 1008,1 hPa 0,0 l/m 6,6 km/h (2 Bft) W 269 0 min 0,000 mm 0,0 UV-I 86 W/m 4,6 C 17,6 C 16,1 km/h (3 Bft) 100,00 %
22.02.2016 16:12 17,6 C 44 % 1008,1 hPa 0,0 l/m 10,7 km/h (2 Bft) W-NW 293 0 min 0,000 mm 0,0 UV-I 83 W/m 5,2 C 15,7 C 14,5 km/h (3 Bft) 100,00 %
22.02.2016 16:13 17,5 C 43 % 1008,1 hPa 0,0 l/m 8,4 km/h (2 Bft) W-NW 290 0 min 0,000 mm 0,0 UV-I 78 W/m 4,8 C 16,5 C 14,5 km/h (3 Bft) 100,00 %
22.02.2016 16:14 17,4 C 42 % 1008,1 hPa 0,0 l/m 6,6 km/h (2 Bft) W 261 0 min 0,000 mm 0,0 UV-I 76 W/m 4,4 C 17,3 C 11,3 km/h (2 Bft) 100,00 %
22.02.2016 16:15 17,4 C 44 % 1008,1 hPa 0,0 l/m 6,4 km/h (2 Bft) W 273 0 min 0,000 mm 0,0 UV-I 75 W/m 5,0 C 17,4 C 12,9 km/h (3 Bft) 100,00 %
22.02.2016 16:16 17,3 C 43 % 1008,1 hPa 0,0 l/m 6,4 km/h (2 Bft) W 264 0 min 0,000 mm 0,0 UV-I 72 W/m 4,6 C 17,3 C 11,3 km/h (2 Bft) 95,65 %
22.02.2016 16:17 17,3 C 43 % 1008,1 hPa 0,0 l/m 7,5 km/h (2 Bft) W-NW 284 0 min 0,000 mm 0,0 UV-I 70 W/m 4,6 C 16,8 C 11,3 km/h (2 Bft) 95,83 %
22.02.2016 16:18 17,3 C 44 % 1008,1 hPa 0,0 l/m 7,5 km/h (2 Bft) W 264 0 min 0,000 mm 0,0 UV-I 69 W/m 4,9 C 16,8 C 12,9 km/h (3 Bft) 100,00 %
22.02.2016 16:19 17,2 C 44 % 1008,1 hPa 0,0 l/m 7,6 km/h (2 Bft) W-NW 287 0 min 0,000 mm 0,0 UV-I 69 W/m 4,8 C 16,6 C 11,3 km/h (2 Bft) 96,67 %
22.02.2016 16:20 17,2 C 43 % 1008,1 hPa 0,0 l/m 8,8 km/h (2 Bft) W 271 0 min 0,000 mm 0,0 UV-I 69 W/m 4,5 C 16,0 C 11,3 km/h (2 Bft) 100,00 %
22.02.2016 16:21 17,2 C 43 % 1008,1 hPa 0,0 l/m 7,3 km/h (2 Bft) W 269 0 min 0,000 mm 0,0 UV-I 70 W/m 4,5 C 16,8 C 11,3 km/h (2 Bft) 88,24 %
22.02.2016 16:22 17,1 C 43 % 1008,1 hPa 0,0 l/m 5,6 km/h (1 Bft) W 265 0 min 0,000 mm 0,0 UV-I 72 W/m 4,4 C 17,1 C 9,7 km/h (2 Bft) 97,37 %
22.02.2016 16:23 17,1 C 43 % 1008,1 hPa 0,0 l/m 6,0 km/h (2 Bft) W 275 0 min 0,000 mm 0,0 UV-I 72 W/m 4,4 C 17,1 C 8,0 km/h (2 Bft) 100,00 %
22.02.2016 16:24 17,1 C 43 % 1008,1 hPa 0,0 l/m 5,7 km/h (1 Bft) W-SW 255 0 min 0,000 mm 0,0 UV-I 72 W/m 4,4 C 17,1 C 9,7 km/h (2 Bft) 96,15 %
22.02.2016 16:25 17,1 C 43 % 1008,1 hPa 0,0 l/m 5,5 km/h (1 Bft) W 275 0 min 0,000 mm 0,0 UV-I 71 W/m 4,4 C 17,1 C 6,4 km/h (2 Bft) 98,80 %
22.02.2016 16:26 17,0 C 44 % 1008,1 hPa 0,0 l/m 6,2 km/h (2 Bft) W 275 0 min 0,000 mm 0,0 UV-I 69 W/m 4,7 C 17,0 C 9,7 km/h (2 Bft) 97,44 %
22.02.2016 16:27 16,9 C 44 % 1008,1 hPa 0,0 l/m 8,0 km/h (2 Bft) W-SW 253 0 min 0,000 mm 0,0 UV-I 66 W/m 4,6 C 16,1 C 12,9 km/h (3 Bft) 100,00 %
22.02.2016 16:28 16,9 C 43 % 1008,2 hPa 0,0 l/m 6,4 km/h (2 Bft) W 259 0 min 0,000 mm 0,0 UV-I 63 W/m 4,2 C 16,9 C 11,3 km/h (2 Bft) 96,15 %
22.02.2016 16:29 16,9 C 44 % 1008,1 hPa 0,0 l/m 6,2 km/h (2 Bft) W 268 0 min 0,000 mm 0,0 UV-I 60 W/m 4,6 C 16,9 C 9,7 km/h (2 Bft) 92,59 %
22.02.2016 16:30 16,9 C 44 % 1008,1 hPa 0,0 l/m 5,1 km/h (1 Bft) W 271 0 min 0,000 mm 0,0 UV-I 58 W/m 4,6 C 16,9 C 6,4 km/h (2 Bft) 100,00 %
22.02.2016 16:31 16,9 C 44 % 1008,1 hPa 0,0 l/m 7,1 km/h (2 Bft) W 279 0 min 0,000 mm 0,0 UV-I 56 W/m 4,6 C 16,5 C 9,7 km/h (2 Bft) 92,31 %
22.02.2016 16:32 16,9 C 45 % 1008,1 hPa 0,0 l/m 6,7 km/h (2 Bft) W-SW 258 0 min 0,000 mm 0,0 UV-I 54 W/m 4,9 C 16,8 C 11,3 km/h (2 Bft) 100,00 %
22.02.2016 16:33 16,9 C 44 % 1008,1 hPa 0,0 l/m 5,4 km/h (1 Bft) W 277 0 min 0,000 mm 0,0 UV-I 51 W/m 4,6 C 16,9 C 6,4 km/h (2 Bft) 96,15 %
22.02.2016 16:34 16,8 C 45 % 1008,0 hPa 0,0 l/m 4,9 km/h (1 Bft) W 273 0 min 0,000 mm 0,0 UV-I 51 W/m 4,8 C 16,8 C 6,4 km/h (2 Bft) 100,00 %
22.02.2016 16:35 16,8 C 45 % 1008,0 hPa 0,0 l/m 5,2 km/h (1 Bft) W 269 0 min 0,000 mm 0,0 UV-I 51 W/m 4,8 C 16,8 C 6,4 km/h (2 Bft) 95,65 %
22.02.2016 16:36 16,7 C 45 % 1008,0 hPa 0,0 l/m 6,5 km/h (2 Bft) W 264 0 min 0,000 mm 0,0 UV-I 49 W/m 4,7 C 16,7 C 9,7 km/h (2 Bft) 100,00 %
22.02.2016 16:37 16,7 C 44 % 1008,1 hPa 0,0 l/m 7,6 km/h (2 Bft) W 260 0 min 0,000 mm 0,0 UV-I 48 W/m 4,4 C 16,1 C 9,7 km/h (2 Bft) 96,15 %
22.02.2016 16:38 16,7 C 45 % 1008,1 hPa 0,0 l/m 7,2 km/h (2 Bft) W 267 0 min 0,000 mm 0,0 UV-I 47 W/m 4,7 C 16,3 C 12,9 km/h (3 Bft) 96,30 %
22.02.2016 16:39 16,7 C 44 % 1008,1 hPa 0,0 l/m 7,8 km/h (2 Bft) W-SW 254 0 min 0,000 mm 0,0 UV-I 46 W/m 4,4 C 16,0 C 9,7 km/h (2 Bft) 92,86 %
22.02.2016 16:40 16,7 C 44 % 1008,1 hPa 0,0 l/m 6,4 km/h (2 Bft) W 265 0 min 0,000 mm 0,0 UV-I 46 W/m 4,4 C 16,7 C 8,0 km/h (2 Bft) 96,30 %
22.02.2016 16:41 16,7 C 45 % 1008,1 hPa 0,0 l/m 6,7 km/h (2 Bft) W 267 0 min 0,000 mm 0,0 UV-I 44 W/m 4,7 C 16,6 C 9,7 km/h (2 Bft) 100,00 %
22.02.2016 16:42 16,7 C 44 % 1008,1 hPa 0,0 l/m 9,0 km/h (2 Bft) W 263 0 min 0,000 mm 0,0 UV-I 43 W/m 4,4 C 15,4 C 12,9 km/h (3 Bft) 88,89 %
22.02.2016 16:43 16,7 C 44 % 1008,1 hPa 0,0 l/m 9,3 km/h (2 Bft) W 276 0 min 0,000 mm 0,0 UV-I 40 W/m 4,4 C 15,3 C 11,3 km/h (2 Bft) 100,00 %
22.02.2016 16:44 16,7 C 46 % 1008,1 hPa 0,0 l/m 5,8 km/h (2 Bft) W 274 0 min 0,000 mm 0,0 UV-I 39 W/m 5,0 C 16,7 C 9,7 km/h (2 Bft) 96,15 %
22.02.2016 16:45 16,6 C 46 % 1008,1 hPa 0,0 l/m 7,8 km/h (2 Bft) W 264 0 min 0,000 mm 0,0 UV-I 39 W/m 4,9 C 15,9 C 11,3 km/h (2 Bft) 100,00 %
22.02.2016 16:46 16,5 C 45 % 1008,1 hPa 0,0 l/m 7,0 km/h (2 Bft) W 266 0 min 0,000 mm 0,0 UV-I 37 W/m 4,5 C 16,2 C 9,7 km/h (2 Bft) 95,83 %
22.02.2016 16:47 16,5 C 45 % 1008,1 hPa 0,0 l/m 7,2 km/h (2 Bft) W 268 0 min 0,000 mm 0,0 UV-I 35 W/m 4,5 C 16,1 C 11,3 km/h (2 Bft) 95,65 %
22.02.2016 16:48 16,4 C 45 % 1008,1 hPa 0,0 l/m 7,8 km/h (2 Bft) W 273 0 min 0,000 mm 0,0 UV-I 33 W/m 4,4 C 15,7 C 11,3 km/h (2 Bft) 100,00 %
22.02.2016 16:49 16,4 C 45 % 1008,1 hPa 0,0 l/m 6,0 km/h (2 Bft) W 273 0 min 0,000 mm 0,0 UV-I 32 W/m 4,4 C 16,4 C 9,7 km/h (2 Bft) 95,65 %
22.02.2016 16:50 16,4 C 45 % 1008,1 hPa 0,0 l/m 5,7 km/h (1 Bft) W 273 0 min 0,000 mm 0,0 UV-I 29 W/m 4,4 C 16,4 C 6,4 km/h (2 Bft) 100,00 %
22.02.2016 16:51 16,4 C 45 % 1008,1 hPa 0,0 l/m 6,1 km/h (2 Bft) W 271 0 min 0,000 mm 0,0 UV-I 27 W/m 4,4 C 16,4 C 9,7 km/h (2 Bft) 91,67 %
22.02.2016 16:52 16,3 C 46 % 1008,1 hPa 0,0 l/m 7,1 km/h (2 Bft) W 263 0 min 0,000 mm 0,0 UV-I 25 W/m 4,7 C 15,9 C 9,7 km/h (2 Bft) 100,00 %
22.02.2016 16:53 16,3 C 45 % 1008,1 hPa 0,0 l/m 5,7 km/h (1 Bft) W 264 0 min 0,000 mm 0,0 UV-I 25 W/m 4,3 C 16,3 C 9,7 km/h (2 Bft) 96,30 %
22.02.2016 16:54 16,3 C 46 % 1008,1 hPa 0,0 l/m 5,5 km/h (1 Bft) W 259 0 min 0,000 mm 0,0 UV-I 25 W/m 4,7 C 16,3 C 9,7 km/h (2 Bft) 100,00 %
22.02.2016 16:55 16,3 C 46 % 1008,2 hPa 0,0 l/m 6,0 km/h (2 Bft) W 261 0 min 0,000 mm 0,0 UV-I 25 W/m 4,7 C 16,3 C 9,7 km/h (2 Bft) 100,00 %
22.02.2016 16:56 16,3 C 45 % 1008,1 hPa 0,0 l/m 6,7 km/h (2 Bft) W 259 0 min 0,000 mm 0,0 UV-I 24 W/m 4,3 C 16,2 C 9,7 km/h (2 Bft) 100,00 %
22.02.2016 16:57 16,3 C 45 % 1008,1 hPa 0,0 l/m 6,9 km/h (2 Bft) W-SW 254 0 min 0,000 mm 0,0 UV-I 23 W/m 4,3 C 16,0 C 12,9 km/h (3 Bft) 100,00 %
22.02.2016 16:58 16,3 C 45 % 1008,1 hPa 0,0 l/m 5,8 km/h (2 Bft) W 259 0 min 0,000 mm 0,0 UV-I 21 W/m 4,3 C 16,3 C 9,7 km/h (2 Bft) 92,86 %
22.02.2016 16:59 16,3 C 45 % 1008,1 hPa 0,0 l/m 6,7 km/h (2 Bft) W 259 0 min 0,000 mm 0,0 UV-I 19 W/m 4,3 C 16,2 C 9,7 km/h (2 Bft) 100,00 %
22.02.2016 17:00 16,3 C 45 % 1008,2 hPa 0,0 l/m 6,8 km/h (2 Bft) W-SW 255 0 min 0,000 mm 0,0 UV-I 17 W/m 4,3 C 16,1 C 9,7 km/h (2 Bft) 100,00 %
22.02.2016 17:02 16,3 C 45 % 1008,2 hPa 0,0 l/m 6,5 km/h (2 Bft) W 264 0 min 0,102 mm 0,0 UV-I 15 W/m 4,3 C 16,3 C 11,3 km/h (2 Bft) 98,00 %
22.02.2016 17:03 16,3 C 45 % 1008,2 hPa 0,0 l/m 5,6 km/h (1 Bft) W-SW 248 0 min 0,000 mm 0,0 UV-I 14 W/m 4,3 C 16,3 C 9,7 km/h (2 Bft) 100,00 %
22.02.2016 17:04 16,3 C 45 % 1008,2 hPa 0,0 l/m 4,9 km/h (1 Bft) W-SW 244 0 min 0,000 mm 0,0 UV-I 16 W/m 4,3 C 16,3 C 6,4 km/h (2 Bft) 100,00 %
22.02.2016 17:05 16,3 C 45 % 1008,2 hPa 0,0 l/m 5,3 km/h (1 Bft) W-SW 252 0 min 0,000 mm 0,0 UV-I 16 W/m 4,3 C 16,3 C 8,0 km/h (2 Bft) 100,00 %
22.02.2016 17:06 16,3 C 44 % 1008,2 hPa 0,0 l/m 6,7 km/h (2 Bft) W-SW 250 0 min 0,000 mm 0,0 UV-I 16 W/m 4,0 C 16,2 C 9,7 km/h (2 Bft) 100,00 %
22.02.2016 17:07 16,3 C 45 % 1008,2 hPa 0,0 l/m 6,7 km/h (2 Bft) W-SW 257 0 min 0,000 mm 0,0 UV-I 18 W/m 4,3 C 16,2 C 8,0 km/h (2 Bft) 100,00 %
22.02.2016 17:08 16,3 C 45 % 1008,2 hPa 0,0 l/m 7,3 km/h (2 Bft) W-SW 253 0 min 0,000 mm 0,0 UV-I 18 W/m 4,3 C 15,8 C 9,7 km/h (2 Bft) 100,00 %
22.02.2016 17:09 16,3 C 45 % 1008,2 hPa 0,0 l/m 5,3 km/h (1 Bft) W-SW 252 0 min 0,000 mm 0,0 UV-I 18 W/m 4,3 C 16,3 C 6,4 km/h (2 Bft) 96,15 %
22.02.2016 17:10 16,3 C 45 % 1008,2 hPa 0,0 l/m 5,7 km/h (1 Bft) SW 230 0 min 0,000 mm 0,0 UV-I 16 W/m 4,3 C 16,3 C 6,4 km/h (2 Bft) 100,00 %
22.02.2016 17:11 16,2 C 45 % 1008,2 hPa 0,0 l/m 5,3 km/h (1 Bft) W-SW 249 0 min 0,000 mm 0,0 UV-I 16 W/m 4,3 C 16,2 C 8,0 km/h (2 Bft) 100,00 %
22.02.2016 17:12 16,2 C 45 % 1008,2 hPa 0,0 l/m 7,0 km/h (2 Bft) W-SW 249 0 min 0,000 mm 0,0 UV-I 13 W/m 4,3 C 15,9 C 8,0 km/h (2 Bft) 100,00 %
22.02.2016 17:13 16,2 C 45 % 1008,2 hPa 0,0 l/m 6,0 km/h (2 Bft) W-SW 249 0 min 0,000 mm 0,0 UV-I 12 W/m 4,3 C 16,2 C 9,7 km/h (2 Bft) 96,55 %
22.02.2016 17:14 16,2 C 45 % 1008,2 hPa 0,0 l/m 7,5 km/h (2 Bft) W-SW 255 0 min 0,000 mm 0,0 UV-I 11 W/m 4,3 C 15,6 C 11,3 km/h (2 Bft) 95,83 %
22.02.2016 17:15 16,2 C 46 % 1008,2 hPa 0,0 l/m 6,4 km/h (2 Bft) W-SW 253 0 min 0,000 mm 0,0 UV-I 11 W/m 4,6 C 16,2 C 9,7 km/h (2 Bft) 100,00 %
22.02.2016 17:16 16,1 C 45 % 1008,2 hPa 0,0 l/m 5,3 km/h (1 Bft) W-SW 243 0 min 0,000 mm 0,0 UV-I 11 W/m 4,2 C 16,1 C 6,4 km/h (2 Bft) 100,00 %
22.02.2016 17:17 16,1 C 46 % 1008,2 hPa 0,0 l/m 6,8 km/h (2 Bft) W-SW 258 0 min 0,000 mm 0,0 UV-I 9 W/m 4,5 C 15,9 C 11,3 km/h (2 Bft) 100,00 %
22.02.2016 17:18 16,1 C 45 % 1008,2 hPa 0,0 l/m 8,1 km/h (2 Bft) W-SW 257 0 min 0,000 mm 0,0 UV-I 9 W/m 4,2 C 15,2 C 11,3 km/h (2 Bft) 100,00 %
22.02.2016 17:19 16,1 C 47 % 1008,2 hPa 0,0 l/m 6,0 km/h (2 Bft) W-SW 241 0 min 0,000 mm 0,0 UV-I 9 W/m 4,8 C 16,1 C 6,4 km/h (2 Bft) 95,65 %
22.02.2016 17:20 16,0 C 46 % 1008,2 hPa 0,0 l/m 8,3 km/h (2 Bft) SW 236 0 min 0,000 mm 0,0 UV-I 9 W/m 4,4 C 15,0 C 12,9 km/h (3 Bft) 100,00 %
22.02.2016 17:21 15,9 C 46 % 1008,2 hPa 0,0 l/m 6,6 km/h (2 Bft) W-SW 248 0 min 0,000 mm 0,0 UV-I 9 W/m 4,3 C 15,8 C 8,0 km/h (2 Bft) 100,00 %
22.02.2016 17:22 15,9 C 46 % 1008,3 hPa 0,0 l/m 6,1 km/h (2 Bft) W-SW 255 0 min 0,000 mm 0,0 UV-I 9 W/m 4,3 C 15,9 C 9,7 km/h (2 Bft) 100,00 %
22.02.2016 17:23 15,9 C 46 % 1008,3 hPa 0,0 l/m 6,9 km/h (2 Bft) W 260 0 min 0,000 mm 0,0 UV-I 9 W/m 4,3 C 15,6 C 9,7 km/h (2 Bft) 100,00 %
22.02.2016 17:24 15,9 C 46 % 1008,3 hPa 0,0 l/m 5,7 km/h (1 Bft) W-SW 250 0 min 0,000 mm 0,0 UV-I 9 W/m 4,3 C 15,9 C 8,0 km/h (2 Bft) 100,00 %
22.02.2016 17:25 15,9 C 46 % 1008,3 hPa 0,0 l/m 6,4 km/h (2 Bft) W-SW 246 1 min 0,000 mm 0,0 UV-I 9 W/m 4,3 C 15,9 C 8,0 km/h (2 Bft) 96,15 %
22.02.2016 17:26 15,8 C 46 % 1008,3 hPa 0,0 l/m 6,5 km/h (2 Bft) W-SW 243 0 min 0,000 mm 0,0 UV-I 8 W/m 4,2 C 15,8 C 8,0 km/h (2 Bft) 100,00 %
22.02.2016 17:27 15,8 C 47 % 1008,3 hPa 0,0 l/m 5,8 km/h (2 Bft) S-SW 211 0 min 0,000 mm 0,0 UV-I 7 W/m 4,5 C 15,8 C 8,0 km/h (2 Bft) 95,65 %
22.02.2016 17:28 15,8 C 47 % 1008,3 hPa 0,0 l/m 8,6 km/h (2 Bft) W-SW 254 0 min 0,000 mm 0,0 UV-I 5 W/m 4,5 C 14,6 C 14,5 km/h (3 Bft) 100,00 %
22.02.2016 17:29 15,7 C 46 % 1008,3 hPa 0,0 l/m 9,4 km/h (2 Bft) SW 215 0 min 0,000 mm 0,0 UV-I 3 W/m 4,1 C 14,2 C 12,9 km/h (3 Bft) 100,00 %
22.02.2016 17:30 15,7 C 47 % 1008,3 hPa 0,0 l/m 6,6 km/h (2 Bft) SW 223 0 min 0,000 mm 0,0 UV-I 0 W/m 4,4 C 15,6 C 8,0 km/h (2 Bft) 100,00 %
22.02.2016 17:31 15,7 C 47 % 1008,3 hPa 0,0 l/m 7,4 km/h (2 Bft) SW 219 0 min 0,000 mm 0,0 UV-I 0 W/m 4,4 C 15,2 C 9,7 km/h (2 Bft) 96,67 %
22.02.2016 17:32 15,6 C 47 % 1008,2 hPa 0,0 l/m 8,2 km/h (2 Bft) SW 225 0 min 0,000 mm 0,0 UV-I 0 W/m 4,3 C 14,6 C 11,3 km/h (2 Bft) 88,46 %
22.02.2016 17:33 15,6 C 47 % 1008,3 hPa 0,0 l/m 7,3 km/h (2 Bft) SW 231 0 min 0,000 mm 0,0 UV-I 0 W/m 4,3 C 15,1 C 11,3 km/h (2 Bft) 100,00 %
22.02.2016 17:34 15,6 C 46 % 1008,3 hPa 0,0 l/m 7,5 km/h (2 Bft) SW 223 0 min 0,000 mm 0,0 UV-I 0 W/m 4,0 C 15,0 C 9,7 km/h (2 Bft) 100,00 %
22.02.2016 17:35 15,6 C 46 % 1008,3 hPa 0,0 l/m 7,8 km/h (2 Bft) SW 215 0 min 0,000 mm 0,0 UV-I 0 W/m 4,0 C 14,8 C 14,5 km/h (3 Bft) 100,00 %
22.02.2016 17:36 15,6 C 47 % 1008,3 hPa 0,0 l/m 7,5 km/h (2 Bft) SW 220 0 min 0,000 mm 0,0 UV-I 0 W/m 4,3 C 15,0 C 12,9 km/h (3 Bft) 100,00 %
22.02.2016 17:37 15,7 C 46 % 1008,3 hPa 0,0 l/m 7,6 km/h (2 Bft) SW 231 0 min 0,000 mm 0,0 UV-I 0 W/m 4,1 C 15,0 C 11,3 km/h (2 Bft) 100,00 %
22.02.2016 17:38 15,7 C 46 % 1008,3 hPa 0,0 l/m 5,9 km/h (2 Bft) W-SW 239 0 min 0,000 mm 0,0 UV-I 0 W/m 4,1 C 15,7 C 9,7 km/h (2 Bft) 96,15 %
22.02.2016 17:39 15,7 C 45 % 1008,3 hPa 0,0 l/m 9,7 km/h (2 Bft) SW 220 0 min 0,000 mm 0,0 UV-I 0 W/m 3,8 C 14,0 C 16,1 km/h (3 Bft) 100,00 %
22.02.2016 17:40 15,7 C 46 % 1008,2 hPa 0,0 l/m 8,6 km/h (2 Bft) SW 234 0 min 0,000 mm 0,0 UV-I 0 W/m 4,1 C 14,5 C 11,3 km/h (2 Bft) 100,00 %
22.02.2016 17:41 15,6 C 46 % 1008,2 hPa 0,0 l/m 6,3 km/h (2 Bft) SW 217 0 min 0,000 mm 0,0 UV-I 0 W/m 4,0 C 15,6 C 9,7 km/h (2 Bft) 100,00 %
22.02.2016 17:42 15,6 C 46 % 1008,2 hPa 0,0 l/m 7,9 km/h (2 Bft) S 188 0 min 0,000 mm 0,0 UV-I 0 W/m 4,0 C 14,8 C 11,3 km/h (2 Bft) 100,00 %
22.02.2016 17:43 15,6 C 47 % 1008,2 hPa 0,0 l/m 9,6 km/h (2 Bft) S-SW 211 0 min 0,000 mm 0,0 UV-I 0 W/m 4,3 C 14,0 C 12,9 km/h (3 Bft) 100,00 %
22.02.2016 17:44 15,6 C 46 % 1008,1 hPa 0,0 l/m 7,2 km/h (2 Bft) SW 222 0 min 0,000 mm 0,0 UV-I 0 W/m 4,0 C 15,2 C 9,7 km/h (2 Bft) 100,00 %
22.02.2016 17:45 15,6 C 46 % 1008,2 hPa 0,0 l/m 8,0 km/h (2 Bft) SW 229 0 min 0,000 mm 0,0 UV-I 0 W/m 4,0 C 14,7 C 12,9 km/h (3 Bft) 100,00 %
22.02.2016 17:46 15,6 C 46 % 1008,2 hPa 0,0 l/m 8,0 km/h (2 Bft) SW 217 0 min 0,000 mm 0,0 UV-I 0 W/m 4,0 C 14,7 C 12,9 km/h (3 Bft) 100,00 %
22.02.2016 17:47 15,6 C 45 % 1008,2 hPa 0,0 l/m 8,0 km/h (2 Bft) W 260 0 min 0,000 mm 0,0 UV-I 0 W/m 3,7 C 14,7 C 11,3 km/h (2 Bft) 100,00 %
22.02.2016 17:48 15,6 C 46 % 1008,1 hPa 0,0 l/m 7,5 km/h (2 Bft) SW 223 0 min 0,000 mm 0,0 UV-I 0 W/m 4,0 C 15,0 C 9,7 km/h (2 Bft) 100,00 %
22.02.2016 17:49 15,5 C 46 % 1008,2 hPa 0,0 l/m 7,2 km/h (2 Bft) SW 219 0 min 0,000 mm 0,0 UV-I 0 W/m 3,9 C 15,1 C 11,3 km/h (2 Bft) 100,00 %
22.02.2016 17:50 15,5 C 46 % 1008,2 hPa 0,0 l/m 7,1 km/h (2 Bft) SW 234 0 min 0,000 mm 0,0 UV-I 0 W/m 3,9 C 15,1 C 9,7 km/h (2 Bft) 100,00 %
22.02.2016 17:51 15,5 C 47 % 1008,2 hPa 0,0 l/m 7,0 km/h (2 Bft) SW 227 0 min 0,000 mm 0,0 UV-I 0 W/m 4,2 C 15,2 C 8,0 km/h (2 Bft) 100,00 %
22.02.2016 17:52 15,4 C 47 % 1008,2 hPa 0,0 l/m 7,5 km/h (2 Bft) S-SW 205 0 min 0,000 mm 0,0 UV-I 0 W/m 4,1 C 14,8 C 9,7 km/h (2 Bft) 96,30 %
22.02.2016 17:53 15,3 C 47 % 1008,2 hPa 0,0 l/m 7,1 km/h (2 Bft) S-SW 202 0 min 0,000 mm 0,0 UV-I 0 W/m 4,1 C 14,9 C 9,7 km/h (2 Bft) 96,88 %
22.02.2016 17:54 15,3 C 46 % 1008,1 hPa 0,0 l/m 8,7 km/h (2 Bft) SW 228 0 min 0,000 mm 0,0 UV-I 0 W/m 3,8 C 14,1 C 12,9 km/h (3 Bft) 100,00 %
22.02.2016 17:55 15,3 C 47 % 1008,2 hPa 0,0 l/m 8,6 km/h (2 Bft) SW 215 0 min 0,000 mm 0,0 UV-I 0 W/m 4,1 C 14,1 C 11,3 km/h (2 Bft) 100,00 %
22.02.2016 17:56 15,3 C 46 % 1008,2 hPa 0,0 l/m 8,2 km/h (2 Bft) W-SW 256 0 min 0,000 mm 0,0 UV-I 0 W/m 3,8 C 14,3 C 11,3 km/h (2 Bft) 100,00 %
22.02.2016 17:57 15,2 C 47 % 1008,2 hPa 0,0 l/m 7,2 km/h (2 Bft) SW 229 0 min 0,000 mm 0,0 UV-I 0 W/m 4,0 C 14,8 C 9,7 km/h (2 Bft) 96,15 %
22.02.2016 17:58 15,2 C 47 % 1008,1 hPa 0,0 l/m 8,2 km/h (2 Bft) S-SW 201 0 min 0,000 mm 0,0 UV-I 0 W/m 4,0 C 14,2 C 11,3 km/h (2 Bft) 100,00 %
22.02.2016 17:59 15,2 C 46 % 1008,2 hPa 0,0 l/m 9,4 km/h (2 Bft) S-SW 206 0 min 0,000 mm 0,0 UV-I 0 W/m 3,7 C 13,6 C 11,3 km/h (2 Bft) 100,00 %
22.02.2016 18:00 15,2 C 46 % 1008,1 hPa 0,0 l/m 9,2 km/h (2 Bft) SW 220 0 min 0,000 mm 0,0 UV-I 0 W/m 3,7 C 13,7 C 12,9 km/h (3 Bft) 100,00 %
22.02.2016 18:01 15,2 C 46 % 1008,2 hPa 0,0 l/m 9,1 km/h (2 Bft) S-SW 209 0 min 0,050 mm 0,0 UV-I 0 W/m 3,7 C 13,8 C 16,1 km/h (3 Bft) 100,00 %
22.02.2016 18:02 15,2 C 46 % 1008,2 hPa 0,0 l/m 9,2 km/h (2 Bft) SW 236 0 min 0,000 mm 0,0 UV-I 0 W/m 3,7 C 13,7 C 14,5 km/h (3 Bft) 100,00 %
22.02.2016 18:03 15,2 C 46 % 1008,2 hPa 0,0 l/m 10,3 km/h (2 Bft) S-SW 204 0 min 0,000 mm 0,0 UV-I 0 W/m 3,7 C 13,2 C 14,5 km/h (3 Bft) 100,00 %
22.02.2016 18:04 15,2 C 46 % 1008,2 hPa 0,0 l/m 7,0 km/h (2 Bft) SW 221 0 min 0,000 mm 0,0 UV-I 0 W/m 3,7 C 14,9 C 11,3 km/h (2 Bft) 100,00 %
22.02.2016 18:05 15,2 C 47 % 1008,2 hPa 0,0 l/m 9,7 km/h (2 Bft) SW 223 0 min 0,000 mm 0,0 UV-I 0 W/m 4,0 C 13,5 C 12,9 km/h (3 Bft) 96,30 %
22.02.2016 18:06 15,1 C 47 % 1008,2 hPa 0,0 l/m 8,9 km/h (2 Bft) SW 223 0 min 0,000 mm 0,0 UV-I 0 W/m 3,9 C 13,7 C 12,9 km/h (3 Bft) 96,15 %
22.02.2016 18:07 15,1 C 46 % 1008,2 hPa 0,0 l/m 6,8 km/h (2 Bft) SW 223 0 min 0,000 mm 0,0 UV-I 0 W/m 3,6 C 14,9 C 8,0 km/h (2 Bft) 95,83 %
22.02.2016 18:08 15,0 C 47 % 1008,2 hPa 0,0 l/m 5,0 km/h (1 Bft) SW 219 0 min 0,000 mm 0,0 UV-I 0 W/m 3,8 C 15,0 C 8,0 km/h (2 Bft) 100,00 %
22.02.2016 18:09 15,0 C 47 % 1008,2 hPa 0,0 l/m 8,2 km/h (2 Bft) S-SW 194 0 min 0,000 mm 0,0 UV-I 0 W/m 3,8 C 14,0 C 11,3 km/h (2 Bft) 100,00 %
22.02.2016 18:10 14,9 C 46 % 1008,3 hPa 0,0 l/m 7,7 km/h (2 Bft) S 182 0 min 0,000 mm 0,0 UV-I 0 W/m 3,4 C 14,2 C 11,3 km/h (2 Bft) 100,00 %
22.02.2016 18:11 14,9 C 47 % 1008,2 hPa 0,0 l/m 5,6 km/h (1 Bft) SW 215 0 min 0,000 mm 0,0 UV-I 0 W/m 3,7 C 14,9 C 8,0 km/h (2 Bft) 100,00 %
22.02.2016 18:12 14,9 C 47 % 1008,2 hPa 0,0 l/m 7,5 km/h (2 Bft) S-SW 211 0 min 0,000 mm 0,0 UV-I 0 W/m 3,7 C 14,3 C 9,7 km/h (2 Bft) 100,00 %
22.02.2016 18:13 14,9 C 47 % 1008,3 hPa 0,0 l/m 6,4 km/h (2 Bft) S-SW 202 0 min 0,000 mm 0,0 UV-I 0 W/m 3,7 C 14,9 C 8,0 km/h (2 Bft) 100,00 %
22.02.2016 18:14 14,8 C 48 % 1008,3 hPa 0,0 l/m 6,3 km/h (2 Bft) S-SW 192 0 min 0,000 mm 0,0 UV-I 0 W/m 3,9 C 14,8 C 8,0 km/h (2 Bft) 100,00 %
22.02.2016 18:15 14,8 C 48 % 1008,2 hPa 0,0 l/m 7,4 km/h (2 Bft) S-SW 194 0 min 0,000 mm 0,0 UV-I 0 W/m 3,9 C 14,2 C 8,0 km/h (2 Bft) 100,00 %
22.02.2016 18:16 14,8 C 47 % 1008,2 hPa 0,0 l/m 6,6 km/h (2 Bft) S 187 0 min 0,000 mm 0,0 UV-I 0 W/m 3,6 C 14,7 C 8,0 km/h (2 Bft) 100,00 %
22.02.2016 18:17 14,7 C 49 % 1008,2 hPa 0,0 l/m 7,2 km/h (2 Bft) S-SW 202 0 min 0,000 mm 0,0 UV-I 0 W/m 4,1 C 14,2 C 8,0 km/h (2 Bft) 96,30 %
22.02.2016 18:18 14,7 C 48 % 1008,2 hPa 0,0 l/m 6,8 km/h (2 Bft) S 187 0 min 0,000 mm 0,0 UV-I 0 W/m 3,8 C 14,5 C 9,7 km/h (2 Bft) 98,76 %
22.02.2016 18:19 14,6 C 48 % 1008,1 hPa 0,0 l/m 5,6 km/h (1 Bft) S 172 0 min 0,000 mm 0,0 UV-I 0 W/m 3,7 C 14,6 C 8,0 km/h (2 Bft) 97,73 %
22.02.2016 18:20 14,6 C 47 % 1008,1 hPa 0,0 l/m 6,1 km/h (2 Bft) S-SW 200 0 min 0,000 mm 0,0 UV-I 0 W/m 3,4 C 14,6 C 9,7 km/h (2 Bft) 100,00 %
22.02.2016 18:21 14,6 C 48 % 1008,1 hPa 0,0 l/m 6,7 km/h (2 Bft) S-SW 194 0 min 0,000 mm 0,0 UV-I 0 W/m 3,7 C 14,4 C 9,7 km/h (2 Bft) 97,56 %
22.02.2016 18:22 14,6 C 48 % 1008,2 hPa 0,0 l/m 7,1 km/h (2 Bft) S 191 0 min 0,000 mm 0,0 UV-I 0 W/m 3,7 C 14,2 C 9,7 km/h (2 Bft) 100,00 %
22.02.2016 18:23 14,6 C 48 % 1008,1 hPa 0,0 l/m 6,4 km/h (2 Bft) S-SW 192 0 min 0,000 mm 0,0 UV-I 0 W/m 3,7 C 14,6 C 9,7 km/h (2 Bft) 85,71 %
22.02.2016 18:24 14,5 C 47 % 1008,1 hPa 0,0 l/m 7,5 km/h (2 Bft) S 185 0 min 0,000 mm 0,0 UV-I 0 W/m 3,3 C 13,9 C 9,7 km/h (2 Bft) 97,73 %
22.02.2016 18:25 14,5 C 47 % 1008,1 hPa 0,0 l/m 7,0 km/h (2 Bft) S-SW 197 0 min 0,000 mm 0,0 UV-I 0 W/m 3,3 C 14,2 C 8,0 km/h (2 Bft) 100,00 %
22.02.2016 18:26 14,5 C 47 % 1008,1 hPa 0,0 l/m 8,2 km/h (2 Bft) S-SW 204 0 min 0,000 mm 0,0 UV-I 0 W/m 3,3 C 13,5 C 9,7 km/h (2 Bft) 96,67 %
22.02.2016 18:27 14,5 C 47 % 1008,1 hPa 0,0 l/m 7,9 km/h (2 Bft) S 188 0 min 0,000 mm 0,0 UV-I 0 W/m 3,3 C 13,6 C 12,9 km/h (3 Bft) 95,65 %
22.02.2016 18:28 14,5 C 46 % 1008,2 hPa 0,0 l/m 5,1 km/h (1 Bft) S-SW 205 0 min 0,000 mm 0,0 UV-I 0 W/m 3,0 C 14,5 C 6,4 km/h (2 Bft) 96,30 %
22.02.2016 18:29 14,5 C 44 % 1008,2 hPa 0,0 l/m 9,1 km/h (2 Bft) S 172 0 min 0,000 mm 0,0 UV-I 0 W/m 2,4 C 13,0 C 12,9 km/h (3 Bft) 96,15 %
22.02.2016 18:30 14,5 C 44 % 1008,1 hPa 0,0 l/m 7,0 km/h (2 Bft) SW 223 0 min 0,000 mm 0,0 UV-I 0 W/m 2,4 C 14,2 C 14,5 km/h (3 Bft) 100,00 %
22.02.2016 18:31 14,6 C 45 % 1008,2 hPa 0,0 l/m 7,8 km/h (2 Bft) S-SW 196 0 min 0,000 mm 0,0 UV-I 0 W/m 2,8 C 13,8 C 11,3 km/h (2 Bft) 96,55 %
22.02.2016 18:32 14,6 C 45 % 1008,2 hPa 0,0 l/m 6,7 km/h (2 Bft) SW 217 0 min 0,000 mm 0,0 UV-I 0 W/m 2,8 C 14,4 C 8,0 km/h (2 Bft) 100,00 %
22.02.2016 18:33 14,5 C 45 % 1008,2 hPa 0,0 l/m 7,1 km/h (2 Bft) SW 225 0 min 0,000 mm 0,0 UV-I 0 W/m 2,7 C 14,1 C 8,0 km/h (2 Bft) 96,15 %
22.02.2016 18:34 14,5 C 45 % 1008,1 hPa 0,0 l/m 6,2 km/h (2 Bft) SW 224 0 min 0,000 mm 0,0 UV-I 0 W/m 2,7 C 14,5 C 9,7 km/h (2 Bft) 100,00 %
22.02.2016 18:35 14,4 C 45 % 1008,1 hPa 0,0 l/m 4,5 km/h (1 Bft) SW 223 0 min 0,000 mm 0,0 UV-I 0 W/m 2,6 C 14,4 C 6,4 km/h (2 Bft) 95,65 %
22.02.2016 18:36 14,4 C 45 % 1008,1 hPa 0,0 l/m 5,5 km/h (1 Bft) SW 214 0 min 0,000 mm 0,0 UV-I 0 W/m 2,6 C 14,4 C 8,0 km/h (2 Bft) 100,00 %
22.02.2016 18:37 14,4 C 44 % 1008,2 hPa 0,0 l/m 5,1 km/h (1 Bft) W-SW 237 0 min 0,000 mm 0,0 UV-I 0 W/m 2,3 C 14,4 C 6,4 km/h (2 Bft) 92,86 %
22.02.2016 18:38 14,3 C 45 % 1008,1 hPa 0,0 l/m 3,6 km/h (1 Bft) SW 230 0 min 0,000 mm 0,0 UV-I 0 W/m 2,5 C 14,3 C 4,8 km/h (1 Bft) 100,00 %
22.02.2016 18:39 14,3 C 45 % 1008,1 hPa 0,0 l/m 3,9 km/h (1 Bft) W-SW 248 0 min 0,000 mm 0,0 UV-I 0 W/m 2,5 C 14,3 C 4,8 km/h (1 Bft) 95,65 %
22.02.2016 18:40 14,3 C 45 % 1008,1 hPa 0,0 l/m 2,9 km/h (1 Bft) W-SW 247 0 min 0,000 mm 0,0 UV-I 0 W/m 2,5 C 14,3 C 3,2 km/h (1 Bft) 96,30 %
22.02.2016 18:41 14,3 C 45 % 1008,2 hPa 0,0 l/m 5,7 km/h (1 Bft) W-SW 245 0 min 0,000 mm 0,0 UV-I 0 W/m 2,5 C 14,3 C 8,0 km/h (2 Bft) 100,00 %
22.02.2016 18:42 14,3 C 46 % 1008,1 hPa 0,0 l/m 3,1 km/h (1 Bft) W-SW 245 0 min 0,000 mm 0,0 UV-I 0 W/m 2,8 C 14,3 C 4,8 km/h (1 Bft) 95,83 %
22.02.2016 18:43 14,2 C 46 % 1008,2 hPa 0,0 l/m 4,3 km/h (1 Bft) SW 236 0 min 0,000 mm 0,0 UV-I 0 W/m 2,8 C 14,2 C 6,4 km/h (2 Bft) 96,15 %
22.02.2016 18:44 14,2 C 45 % 1008,2 hPa 0,0 l/m 5,4 km/h (1 Bft) SW 231 0 min 0,000 mm 0,0 UV-I 0 W/m 2,4 C 14,2 C 8,0 km/h (2 Bft) 95,83 %
22.02.2016 18:45 14,1 C 47 % 1008,2 hPa 0,0 l/m 5,0 km/h (1 Bft) SW 230 0 min 0,000 mm 0,0 UV-I 0 W/m 3,0 C 14,1 C 6,4 km/h (2 Bft) 93,33 %
22.02.2016 18:46 13,9 C 47 % 1008,2 hPa 0,0 l/m 5,3 km/h (1 Bft) SW 227 0 min 0,000 mm 0,0 UV-I 0 W/m 2,8 C 13,9 C 6,4 km/h (2 Bft) 96,15 %
22.02.2016 18:47 13,8 C 47 % 1008,2 hPa 0,0 l/m 6,9 km/h (2 Bft) SW 229 0 min 0,000 mm 0,0 UV-I 0 W/m 2,7 C 13,5 C 9,7 km/h (2 Bft) 100,00 %
22.02.2016 18:48 13,7 C 47 % 1008,2 hPa 0,0 l/m 6,8 km/h (2 Bft) SW 229 0 min 0,000 mm 0,0 UV-I 0 W/m 2,6 C 13,5 C 9,7 km/h (2 Bft) 95,65 %
22.02.2016 18:49 13,7 C 46 % 1008,2 hPa 0,0 l/m 7,6 km/h (2 Bft) SW 234 0 min 0,000 mm 0,0 UV-I 0 W/m 2,3 C 13,0 C 9,7 km/h (2 Bft) 100,00 %
22.02.2016 18:50 13,7 C 47 % 1008,3 hPa 0,0 l/m 9,4 km/h (2 Bft) SW 220 0 min 0,000 mm 0,0 UV-I 0 W/m 2,6 C 12,0 C 12,9 km/h (3 Bft) 96,55 %
22.02.2016 18:51 13,6 C 47 % 1008,3 hPa 0,0 l/m 7,2 km/h (2 Bft) S-SW 198 0 min 0,000 mm 0,0 UV-I 0 W/m 2,5 C 13,1 C 9,7 km/h (2 Bft) 96,67 %
22.02.2016 18:52 13,6 C 46 % 1008,3 hPa 0,0 l/m 9,6 km/h (2 Bft) SW 219 0 min 0,000 mm 0,0 UV-I 0 W/m 2,2 C 11,8 C 14,5 km/h (3 Bft) 100,00 %
22.02.2016 18:53 13,6 C 45 % 1008,3 hPa 0,0 l/m 9,8 km/h (2 Bft) W-SW 247 0 min 0,000 mm 0,0 UV-I 0 W/m 1,9 C 11,7 C 14,5 km/h (3 Bft) 96,30 %
22.02.2016 18:54 13,7 C 45 % 1008,3 hPa 0,0 l/m 11,3 km/h (2 Bft) W-SW 243 0 min 0,000 mm 0,0 UV-I 0 W/m 2,0 C 11,1 C 16,1 km/h (3 Bft) 98,69 %
22.02.2016 18:55 13,8 C 45 % 1008,2 hPa 0,0 l/m 10,1 km/h (2 Bft) SW 229 0 min 0,000 mm 0,0 UV-I 0 W/m 2,1 C 11,7 C 14,5 km/h (3 Bft) 97,73 %
22.02.2016 18:56 13,8 C 46 % 1008,2 hPa 0,0 l/m 13,0 km/h (3 Bft) W-SW 242 0 min 0,000 mm 0,0 UV-I 0 W/m 2,4 C 10,5 C 16,1 km/h (3 Bft) 100,00 %
22.02.2016 18:57 13,7 C 47 % 1008,2 hPa 0,0 l/m 12,2 km/h (2 Bft) SW 233 0 min 0,000 mm 0,0 UV-I 0 W/m 2,6 C 10,7 C 16,1 km/h (3 Bft) 91,67 %
22.02.2016 18:58 13,7 C 46 % 1008,1 hPa 0,0 l/m 10,8 km/h (2 Bft) S-SW 213 0 min 0,000 mm 0,0 UV-I 0 W/m 2,3 C 11,3 C 17,7 km/h (3 Bft) 100,00 %
22.02.2016 18:59 13,7 C 45 % 1008,1 hPa 0,0 l/m 13,3 km/h (3 Bft) W-SW 248 0 min 0,000 mm 0,0 UV-I 0 W/m 2,0 C 10,2 C 20,9 km/h (4 Bft) 100,00 %
22.02.2016 19:00 13,7 C 44 % 1008,1 hPa 0,0 l/m 12,3 km/h (3 Bft) SW 226 0 min 0,000 mm 0,0 UV-I 0 W/m 1,7 C 10,6 C 16,1 km/h (3 Bft) 100,00 %
22.02.2016 19:01 13,7 C 45 % 1008,1 hPa 0,0 l/m 15,1 km/h (3 Bft) SW 226 0 min 0,051 mm 0,0 UV-I 0 W/m 2,0 C 9,6 C 20,9 km/h (4 Bft) 100,00 %
22.02.2016 19:02 13,7 C 45 % 1008,1 hPa 0,0 l/m 15,8 km/h (3 Bft) W-SW 247 0 min 0,000 mm 0,0 UV-I 0 W/m 2,0 C 9,3 C 19,3 km/h (3 Bft) 100,00 %
22.02.2016 19:03 13,7 C 45 % 1008,2 hPa 0,0 l/m 13,2 km/h (3 Bft) SW 227 0 min 0,000 mm 0,0 UV-I 0 W/m 2,0 C 10,3 C 17,7 km/h (3 Bft) 100,00 %
22.02.2016 19:04 13,7 C 44 % 1008,2 hPa 0,0 l/m 13,8 km/h (3 Bft) W-SW 252 0 min 0,000 mm 0,0 UV-I 0 W/m 1,7 C 10,1 C 19,3 km/h (3 Bft) 93,33 %
22.02.2016 19:05 13,7 C 44 % 1008,3 hPa 0,0 l/m 11,1 km/h (2 Bft) W-SW 252 0 min 0,000 mm 0,0 UV-I 0 W/m 1,7 C 11,2 C 17,7 km/h (3 Bft) 100,00 %
22.02.2016 19:06 13,7 C 44 % 1008,3 hPa 0,0 l/m 11,2 km/h (2 Bft) W 270 0 min 0,000 mm 0,0 UV-I 0 W/m 1,7 C 11,1 C 14,5 km/h (3 Bft) 96,30 %
22.02.2016 19:07 13,7 C 45 % 1008,3 hPa 0,0 l/m 10,0 km/h (2 Bft) W-SW 252 0 min 0,000 mm 0,0 UV-I 0 W/m 2,0 C 11,7 C 12,9 km/h (3 Bft) 100,00 %
22.02.2016 19:08 13,7 C 44 % 1008,3 hPa 0,0 l/m 8,8 km/h (2 Bft) W-SW 250 0 min 0,000 mm 0,0 UV-I 0 W/m 1,7 C 12,3 C 12,9 km/h (3 Bft) 100,00 %
22.02.2016 19:09 13,7 C 45 % 1008,4 hPa 0,0 l/m 10,1 km/h (2 Bft) W-SW 254 0 min 0,000 mm 0,0 UV-I 0 W/m 2,0 C 11,6 C 14,5 km/h (3 Bft) 96,15 %
22.02.2016 19:10 13,7 C 45 % 1008,4 hPa 0,0 l/m 9,9 km/h (2 Bft) S-SW 213 0 min 0,000 mm 0,0 UV-I 0 W/m 2,0 C 11,7 C 12,9 km/h (3 Bft) 100,00 %
22.02.2016 19:11 13,7 C 44 % 1008,4 hPa 0,0 l/m 14,3 km/h (3 Bft) W-SW 246 0 min 0,000 mm 0,0 UV-I 0 W/m 1,7 C 9,9 C 20,9 km/h (4 Bft) 100,00 %
22.02.2016 19:12 13,7 C 45 % 1008,4 hPa 0,0 l/m 8,6 km/h (2 Bft) SW 227 0 min 0,000 mm 0,0 UV-I 0 W/m 2,0 C 12,4 C 12,9 km/h (3 Bft) 95,83 %
22.02.2016 19:13 13,6 C 45 % 1008,4 hPa 0,0 l/m 15,8 km/h (3 Bft) SW 226 0 min 0,000 mm 0,0 UV-I 0 W/m 1,9 C 9,2 C 22,5 km/h (4 Bft) 100,00 %
22.02.2016 19:14 13,6 C 44 % 1008,5 hPa 0,0 l/m 14,7 km/h (3 Bft) SW 229 0 min 0,000 mm 0,0 UV-I 0 W/m 1,6 C 9,6 C 19,3 km/h (3 Bft) 96,30 %
22.02.2016 19:15 13,7 C 44 % 1008,5 hPa 0,0 l/m 12,5 km/h (3 Bft) W-SW 238 0 min 0,000 mm 0,0 UV-I 0 W/m 1,7 C 10,6 C 19,3 km/h (3 Bft) 100,00 %
22.02.2016 19:16 13,7 C 44 % 1008,5 hPa 0,0 l/m 12,2 km/h (2 Bft) SW 226 0 min 0,000 mm 0,0 UV-I 0 W/m 1,7 C 10,7 C 17,7 km/h (3 Bft) 100,00 %
22.02.2016 19:17 13,7 C 43 % 1008,5 hPa 0,0 l/m 16,0 km/h (3 Bft) W-SW 238 0 min 0,000 mm 0,0 UV-I 0 W/m 1,4 C 9,3 C 24,1 km/h (4 Bft) 100,00 %
22.02.2016 19:18 13,8 C 43 % 1008,5 hPa 0,0 l/m 15,6 km/h (3 Bft) W-SW 252 0 min 0,000 mm 0,0 UV-I 0 W/m 1,4 C 9,5 C 22,5 km/h (4 Bft) 100,00 %
22.02.2016 19:19 13,8 C 42 % 1008,4 hPa 0,0 l/m 18,7 km/h (3 Bft) SW 232 0 min 0,000 mm 0,0 UV-I 0 W/m 1,1 C 8,6 C 29,0 km/h (5 Bft) 98,70 %
22.02.2016 19:20 13,9 C 42 % 1008,4 hPa 0,0 l/m 13,5 km/h (3 Bft) W-SW 238 0 min 0,000 mm 0,0 UV-I 0 W/m 1,2 C 10,4 C 22,5 km/h (4 Bft) 98,21 %
22.02.2016 19:21 14,0 C 42 % 1008,4 hPa 0,0 l/m 13,8 km/h (3 Bft) SW 222 0 min 0,000 mm 0,0 UV-I 0 W/m 1,3 C 10,4 C 17,7 km/h (3 Bft) 100,00 %
22.02.2016 19:22 14,1 C 42 % 1008,4 hPa 0,0 l/m 11,5 km/h (2 Bft) W-SW 238 0 min 0,000 mm 0,0 UV-I 0 W/m 1,4 C 11,4 C 12,9 km/h (3 Bft) 100,00 %
22.02.2016 19:23 14,1 C 42 % 1008,4 hPa 0,0 l/m 8,6 km/h (2 Bft) SW 233 0 min 0,000 mm 0,0 UV-I 0 W/m 1,4 C 12,8 C 16,1 km/h (3 Bft) 96,15 %
22.02.2016 19:24 14,1 C 42 % 1008,4 hPa 0,0 l/m 7,5 km/h (2 Bft) W-SW 243 0 min 0,000 mm 0,0 UV-I 0 W/m 1,4 C 13,4 C 11,3 km/h (2 Bft) 100,00 %
22.02.2016 19:25 14,1 C 42 % 1008,4 hPa 0,0 l/m 8,4 km/h (2 Bft) SW 233 0 min 0,000 mm 0,0 UV-I 0 W/m 1,4 C 12,9 C 12,9 km/h (3 Bft) 95,65 %
22.02.2016 19:26 14,1 C 42 % 1008,4 hPa 0,0 l/m 6,6 km/h (2 Bft) SW 217 0 min 0,000 mm 0,0 UV-I 0 W/m 1,4 C 14,0 C 9,7 km/h (2 Bft) 100,00 %
22.02.2016 19:27 14,1 C 42 % 1008,4 hPa 0,0 l/m 8,6 km/h (2 Bft) SW 224 0 min 0,000 mm 0,0 UV-I 0 W/m 1,4 C 12,8 C 11,3 km/h (2 Bft) 100,00 %
22.02.2016 19:28 14,1 C 42 % 1008,5 hPa 0,0 l/m 7,8 km/h (2 Bft) SW 217 0 min 0,000 mm 0,0 UV-I 0 W/m 1,4 C 13,3 C 9,7 km/h (2 Bft) 100,00 %
22.02.2016 19:29 14,0 C 42 % 1008,5 hPa 0,0 l/m 8,2 km/h (2 Bft) SW 217 0 min 0,000 mm 0,0 UV-I 0 W/m 1,3 C 12,9 C 12,9 km/h (3 Bft) 95,83 %
22.02.2016 19:30 14,0 C 42 % 1008,5 hPa 0,0 l/m 9,5 km/h (2 Bft) S-SW 203 0 min 0,000 mm 0,0 UV-I 0 W/m 1,3 C 12,3 C 12,9 km/h (3 Bft) 100,00 %
22.02.2016 19:31 14,0 C 42 % 1008,6 hPa 0,0 l/m 8,0 km/h (2 Bft) S-SW 193 0 min 0,000 mm 0,0 UV-I 0 W/m 1,3 C 13,1 C 12,9 km/h (3 Bft) 100,00 %
22.02.2016 19:32 13,9 C 42 % 1008,6 hPa 0,0 l/m 10,1 km/h (2 Bft) W-SW 240 0 min 0,000 mm 0,0 UV-I 0 W/m 1,2 C 11,9 C 12,9 km/h (3 Bft) 98,70 %
22.02.2016 19:33 13,9 C 42 % 1008,6 hPa 0,0 l/m 8,3 km/h (2 Bft) SW 224 0 min 0,000 mm 0,0 UV-I 0 W/m 1,2 C 12,8 C 12,9 km/h (3 Bft) 100,00 %
22.02.2016 19:34 13,9 C 43 % 1008,6 hPa 0,0 l/m 8,9 km/h (2 Bft) W-SW 240 0 min 0,000 mm 0,0 UV-I 0 W/m 1,5 C 12,5 C 12,9 km/h (3 Bft) 100,00 %
22.02.2016 19:35 13,8 C 42 % 1008,6 hPa 0,0 l/m 8,8 km/h (2 Bft) S-SW 198 0 min 0,000 mm 0,0 UV-I 0 W/m 1,1 C 12,4 C 14,5 km/h (3 Bft) 100,00 %
22.02.2016 19:36 13,8 C 42 % 1008,7 hPa 0,0 l/m 8,3 km/h (2 Bft) S-SW 208 0 min 0,000 mm 0,0 UV-I 0 W/m 1,1 C 12,7 C 9,7 km/h (2 Bft) 100,00 %
22.02.2016 19:37 13,8 C 43 % 1008,7 hPa 0,0 l/m 8,6 km/h (2 Bft) S-SW 207 0 min 0,000 mm 0,0 UV-I 0 W/m 1,4 C 12,5 C 11,3 km/h (2 Bft) 100,00 %
22.02.2016 19:38 13,8 C 42 % 1008,6 hPa 0,0 l/m 9,2 km/h (2 Bft) S-SW 206 0 min 0,000 mm 0,0 UV-I 0 W/m 1,1 C 12,2 C 11,3 km/h (2 Bft) 100,00 %
22.02.2016 19:39 13,8 C 43 % 1008,6 hPa 0,0 l/m 6,8 km/h (2 Bft) SW 225 0 min 0,000 mm 0,0 UV-I 0 W/m 1,4 C 13,6 C 9,7 km/h (2 Bft) 100,00 %
22.02.2016 19:40 13,8 C 43 % 1008,6 hPa 0,0 l/m 6,3 km/h (2 Bft) SW 217 0 min 0,000 mm 0,0 UV-I 0 W/m 1,4 C 13,8 C 9,7 km/h (2 Bft) 100,00 %
22.02.2016 19:41 13,7 C 43 % 1008,6 hPa 0,0 l/m 5,7 km/h (1 Bft) SW 220 0 min 0,000 mm 0,0 UV-I 0 W/m 1,4 C 13,7 C 8,0 km/h (2 Bft) 100,00 %
22.02.2016 19:42 13,7 C 43 % 1008,6 hPa 0,0 l/m 6,3 km/h (2 Bft) SW 233 0 min 0,000 mm 0,0 UV-I 0 W/m 1,4 C 13,7 C 8,0 km/h (2 Bft) 100,00 %
22.02.2016 19:43 13,6 C 43 % 1008,6 hPa 0,0 l/m 5,7 km/h (1 Bft) S-SW 200 0 min 0,000 mm 0,0 UV-I 0 W/m 1,3 C 13,6 C 9,7 km/h (2 Bft) 100,00 %
22.02.2016 19:44 13,6 C 43 % 1008,6 hPa 0,0 l/m 6,6 km/h (2 Bft) SW 221 0 min 0,000 mm 0,0 UV-I 0 W/m 1,3 C 13,5 C 8,0 km/h (2 Bft) 100,00 %
22.02.2016 19:45 13,5 C 44 % 1008,6 hPa 0,0 l/m 7,3 km/h (2 Bft) S-SW 202 0 min 0,000 mm 0,0 UV-I 0 W/m 1,5 C 12,9 C 9,7 km/h (2 Bft) 100,00 %
22.02.2016 19:46 13,4 C 44 % 1008,6 hPa 0,0 l/m 6,3 km/h (2 Bft) S-SW 205 0 min 0,000 mm 0,0 UV-I 0 W/m 1,4 C 13,4 C 8,0 km/h (2 Bft) 100,00 %
22.02.2016 19:47 13,4 C 45 % 1008,6 hPa 0,0 l/m 5,5 km/h (1 Bft) SW 216 0 min 0,000 mm 0,0 UV-I 0 W/m 1,7 C 13,4 C 8,0 km/h (2 Bft) 100,00 %
22.02.2016 19:48 13,3 C 45 % 1008,6 hPa 0,0 l/m 6,1 km/h (2 Bft) S-SW 208 0 min 0,000 mm 0,0 UV-I 0 W/m 1,6 C 13,3 C 8,0 km/h (2 Bft) 100,00 %
22.02.2016 19:49 13,3 C 44 % 1008,6 hPa 0,0 l/m 5,5 km/h (1 Bft) S-SW 200 0 min 0,000 mm 0,0 UV-I 0 W/m 1,3 C 13,3 C 6,4 km/h (2 Bft) 100,00 %
22.02.2016 19:50 13,3 C 44 % 1008,6 hPa 0,0 l/m 4,7 km/h (1 Bft) S-SW 209 0 min 0,000 mm 0,0 UV-I 0 W/m 1,3 C 13,3 C 6,4 km/h (2 Bft) 100,00 %
22.02.2016 19:51 13,2 C 44 % 1008,6 hPa 0,0 l/m 6,0 km/h (2 Bft) S-SW 205 0 min 0,000 mm 0,0 UV-I 0 W/m 1,2 C 13,2 C 9,7 km/h (2 Bft) 100,00 %
22.02.2016 19:52 13,2 C 44 % 1008,7 hPa 0,0 l/m 8,4 km/h (2 Bft) S-SW 205 0 min 0,000 mm 0,0 UV-I 0 W/m 1,2 C 12,0 C 9,7 km/h (2 Bft) 100,00 %
22.02.2016 19:53 13,2 C 45 % 1008,6 hPa 0,0 l/m 6,9 km/h (2 Bft) S-SW 202 0 min 0,000 mm 0,0 UV-I 0 W/m 1,5 C 12,9 C 8,0 km/h (2 Bft) 100,00 %
22.02.2016 19:54 13,2 C 45 % 1008,6 hPa 0,0 l/m 7,3 km/h (2 Bft) S 179 0 min 0,000 mm 0,0 UV-I 0 W/m 1,5 C 12,6 C 9,7 km/h (2 Bft) 100,00 %
22.02.2016 19:55 13,1 C 45 % 1008,5 hPa 0,0 l/m 7,2 km/h (2 Bft) S-SW 194 0 min 0,000 mm 0,0 UV-I 0 W/m 1,4 C 12,6 C 9,7 km/h (2 Bft) 95,65 %
22.02.2016 19:56 13,1 C 45 % 1008,6 hPa 0,0 l/m 6,5 km/h (2 Bft) S-SW 198 0 min 0,000 mm 0,0 UV-I 0 W/m 1,4 C 13,1 C 8,0 km/h (2 Bft) 96,30 %
22.02.2016 19:57 12,9 C 45 % 1008,6 hPa 0,0 l/m 6,7 km/h (2 Bft) S-SW 198 0 min 0,000 mm 0,0 UV-I 0 W/m 1,3 C 12,7 C 9,7 km/h (2 Bft) 96,15 %
22.02.2016 19:58 12,9 C 45 % 1008,6 hPa 0,0 l/m 8,9 km/h (2 Bft) S 189 0 min 0,000 mm 0,0 UV-I 0 W/m 1,3 C 11,4 C 12,9 km/h (3 Bft) 96,30 %
22.02.2016 19:59 12,9 C 44 % 1008,5 hPa 0,0 l/m 13,0 km/h (3 Bft) S-SW 211 0 min 0,000 mm 0,0 UV-I 0 W/m 1,0 C 9,4 C 20,9 km/h (4 Bft) 100,00 %
22.02.2016 20:00 13,1 C 43 % 1008,5 hPa 0,0 l/m 11,7 km/h (2 Bft) W 263 0 min 0,000 mm 0,0 UV-I 0 W/m 0,8 C 10,2 C 16,1 km/h (3 Bft) 100,00 %
22.02.2016 20:01 13,1 C 42 % 1008,5 hPa 0,0 l/m 18,2 km/h (3 Bft) SW 222 0 min 0,076 mm 0,0 UV-I 0 W/m 0,5 C 7,8 C 24,1 km/h (4 Bft) 100,00 %
22.02.2016 20:02 13,3 C 41 % 1008,5 hPa 0,0 l/m 14,8 km/h (3 Bft) SW 226 0 min 0,000 mm 0,0 UV-I 0 W/m 0,3 C 9,2 C 19,3 km/h (3 Bft) 100,00 %
22.02.2016 20:03 13,4 C 43 % 1008,4 hPa 0,0 l/m 14,2 km/h (3 Bft) W-SW 250 0 min 0,000 mm 0,0 UV-I 0 W/m 1,1 C 9,5 C 20,9 km/h (4 Bft) 100,00 %
22.02.2016 20:04 13,4 C 43 % 1008,5 hPa 0,0 l/m 14,8 km/h (3 Bft) SW 228 0 min 0,000 mm 0,0 UV-I 0 W/m 1,1 C 9,3 C 19,3 km/h (3 Bft) 100,00 %
22.02.2016 20:05 13,4 C 44 % 1008,5 hPa 0,0 l/m 12,1 km/h (2 Bft) SW 229 0 min 0,000 mm 0,0 UV-I 0 W/m 1,4 C 10,4 C 16,1 km/h (3 Bft) 100,00 %
22.02.2016 20:06 13,4 C 43 % 1008,5 hPa 0,0 l/m 11,6 km/h (2 Bft) S-SW 209 0 min 0,000 mm 0,0 UV-I 0 W/m 1,1 C 10,6 C 17,7 km/h (3 Bft) 100,00 %
22.02.2016 20:07 13,4 C 42 % 1008,5 hPa 0,0 l/m 13,8 km/h (3 Bft) SW 229 0 min 0,000 mm 0,0 UV-I 0 W/m 0,8 C 9,7 C 25,7 km/h (4 Bft) 100,00 %
22.02.2016 20:08 13,4 C 42 % 1008,4 hPa 0,0 l/m 15,2 km/h (3 Bft) S-SW 199 0 min 0,000 mm 0,0 UV-I 0 W/m 0,8 C 9,2 C 20,9 km/h (4 Bft) 100,00 %
22.02.2016 20:09 13,5 C 42 % 1008,4 hPa 0,0 l/m 16,2 km/h (3 Bft) S-SW 209 0 min 0,000 mm 0,0 UV-I 0 W/m 0,8 C 9,0 C 20,9 km/h (4 Bft) 96,30 %
22.02.2016 20:10 13,6 C 42 % 1008,4 hPa 0,0 l/m 13,3 km/h (3 Bft) S-SW 196 0 min 0,000 mm 0,0 UV-I 0 W/m 0,9 C 10,1 C 19,3 km/h (3 Bft) 100,00 %
22.02.2016 20:11 13,6 C 41 % 1008,3 hPa 0,0 l/m 13,3 km/h (3 Bft) S-SW 208 0 min 0,000 mm 0,0 UV-I 0 W/m 0,6 C 10,1 C 19,3 km/h (3 Bft) 100,00 %
22.02.2016 20:12 13,7 C 42 % 1008,3 hPa 0,0 l/m 12,1 km/h (2 Bft) S-SW 196 0 min 0,000 mm 0,0 UV-I 0 W/m 1,0 C 10,7 C 16,1 km/h (3 Bft) 100,00 %
22.02.2016 20:13 13,7 C 41 % 1008,3 hPa 0,0 l/m 12,1 km/h (2 Bft) S-SW 196 0 min 0,000 mm 0,0 UV-I 0 W/m 0,7 C 10,7 C 16,1 km/h (3 Bft) 95,83 %
22.02.2016 20:14 13,7 C 41 % 1008,3 hPa 0,0 l/m 11,2 km/h (2 Bft) S-SW 198 0 min 0,000 mm 0,0 UV-I 0 W/m 0,7 C 11,1 C 16,1 km/h (3 Bft) 95,65 %
22.02.2016 20:15 13,7 C 42 % 1008,3 hPa 0,0 l/m 10,7 km/h (2 Bft) W-SW 237 0 min 0,000 mm 0,0 UV-I 0 W/m 1,0 C 11,3 C 16,1 km/h (3 Bft) 100,00 %
22.02.2016 20:16 13,7 C 42 % 1008,3 hPa 0,0 l/m 10,1 km/h (2 Bft) W-SW 249 0 min 0,000 mm 0,0 UV-I 0 W/m 1,0 C 11,6 C 14,5 km/h (3 Bft) 100,00 %
22.02.2016 20:17 13,7 C 42 % 1008,3 hPa 0,0 l/m 11,0 km/h (2 Bft) S-SW 208 0 min 0,000 mm 0,0 UV-I 0 W/m 1,0 C 11,2 C 12,9 km/h (3 Bft) 100,00 %
22.02.2016 20:18 13,7 C 42 % 1008,3 hPa 0,0 l/m 10,8 km/h (2 Bft) S-SW 198 0 min 0,000 mm 0,0 UV-I 0 W/m 1,0 C 11,3 C 16,1 km/h (3 Bft) 100,00 %
22.02.2016 20:19 13,7 C 42 % 1008,3 hPa 0,0 l/m 10,1 km/h (2 Bft) W-SW 238 0 min 0,000 mm 0,0 UV-I 0 W/m 1,0 C 11,6 C 12,9 km/h (3 Bft) 100,00 %
22.02.2016 20:20 13,7 C 42 % 1008,2 hPa 0,0 l/m 10,3 km/h (2 Bft) S-SW 206 0 min 0,000 mm 0,0 UV-I 0 W/m 1,0 C 11,5 C 17,7 km/h (3 Bft) 100,00 %
22.02.2016 20:21 13,7 C 42 % 1008,2 hPa 0,0 l/m 10,2 km/h (2 Bft) W-SW 252 0 min 0,000 mm 0,0 UV-I 0 W/m 1,0 C 11,6 C 14,5 km/h (3 Bft) 100,00 %
22.02.2016 20:22 13,7 C 42 % 1008,3 hPa 0,0 l/m 9,7 km/h (2 Bft) SW 215 0 min 0,000 mm 0,0 UV-I 0 W/m 1,0 C 11,8 C 12,9 km/h (3 Bft) 100,00 %
22.02.2016 20:23 13,6 C 43 % 1008,2 hPa 0,0 l/m 11,7 km/h (2 Bft) SW 215 0 min 0,000 mm 0,0 UV-I 0 W/m 1,3 C 10,8 C 14,5 km/h (3 Bft) 100,00 %
22.02.2016 20:24 13,5 C 43 % 1008,2 hPa 0,0 l/m 11,8 km/h (2 Bft) SW 231 0 min 0,000 mm 0,0 UV-I 0 W/m 1,2 C 10,6 C 16,1 km/h (3 Bft) 100,00 %
22.02.2016 20:25 13,4 C 44 % 1008,2 hPa 0,0 l/m 12,1 km/h (2 Bft) SW 232 0 min 0,000 mm 0,0 UV-I 0 W/m 1,4 C 10,4 C 17,7 km/h (3 Bft) 100,00 %
22.02.2016 20:26 13,3 C 44 % 1008,1 hPa 0,0 l/m 13,4 km/h (3 Bft) SW 218 0 min 0,000 mm 0,0 UV-I 0 W/m 1,3 C 9,7 C 17,7 km/h (3 Bft) 91,67 %
22.02.2016 20:27 13,2 C 44 % 1008,2 hPa 0,0 l/m 12,9 km/h (3 Bft) SW 227 0 min 0,000 mm 0,0 UV-I 0 W/m 1,2 C 9,8 C 17,7 km/h (3 Bft) 100,00 %
22.02.2016 20:28 13,2 C 44 % 1008,1 hPa 0,0 l/m 11,6 km/h (2 Bft) SW 217 0 min 0,000 mm 0,0 UV-I 0 W/m 1,2 C 10,4 C 17,7 km/h (3 Bft) 95,83 %
22.02.2016 20:29 13,1 C 44 % 1008,1 hPa 0,0 l/m 13,6 km/h (3 Bft) SW 219 0 min 0,000 mm 0,0 UV-I 0 W/m 1,1 C 9,4 C 16,1 km/h (3 Bft) 100,00 %
22.02.2016 20:30 13,1 C 44 % 1008,1 hPa 0,0 l/m 13,0 km/h (3 Bft) SW 232 0 min 0,000 mm 0,0 UV-I 0 W/m 1,1 C 9,7 C 17,7 km/h (3 Bft) 95,83 %
22.02.2016 20:31 13,0 C 45 % 1008,1 hPa 0,0 l/m 13,6 km/h (3 Bft) W-SW 254 0 min 0,000 mm 0,0 UV-I 0 W/m 1,4 C 9,3 C 16,1 km/h (3 Bft) 96,15 %
22.02.2016 20:32 13,0 C 45 % 1008,2 hPa 0,0 l/m 10,5 km/h (2 Bft) SW 229 0 min 0,000 mm 0,0 UV-I 0 W/m 1,4 C 10,7 C 16,1 km/h (3 Bft) 100,00 %
22.02.2016 20:33 12,9 C 45 % 1008,2 hPa 0,0 l/m 9,5 km/h (2 Bft) SW 231 0 min 0,000 mm 0,0 UV-I 0 W/m 1,3 C 11,1 C 12,9 km/h (3 Bft) 96,55 %
22.02.2016 20:34 12,9 C 45 % 1008,2 hPa 0,0 l/m 9,5 km/h (2 Bft) SW 232 0 min 0,000 mm 0,0 UV-I 0 W/m 1,3 C 11,1 C 14,5 km/h (3 Bft) 100,00 %
22.02.2016 20:35 12,9 C 45 % 1008,2 hPa 0,0 l/m 8,4 km/h (2 Bft) W-SW 237 0 min 0,000 mm 0,0 UV-I 0 W/m 1,3 C 11,7 C 11,3 km/h (2 Bft) 95,65 %
22.02.2016 20:36 12,9 C 45 % 1008,1 hPa 0,0 l/m 8,4 km/h (2 Bft) SW 214 0 min 0,000 mm 0,0 UV-I 0 W/m 1,3 C 11,7 C 9,7 km/h (2 Bft) 100,00 %
22.02.2016 20:37 12,9 C 45 % 1008,2 hPa 0,0 l/m 12,9 km/h (3 Bft) W-SW 254 0 min 0,000 mm 0,0 UV-I 0 W/m 1,3 C 9,5 C 17,7 km/h (3 Bft) 92,86 %
22.02.2016 20:38 12,9 C 45 % 1008,2 hPa 0,0 l/m 11,6 km/h (2 Bft) W-SW 248 0 min 0,000 mm 0,0 UV-I 0 W/m 1,3 C 10,0 C 17,7 km/h (3 Bft) 100,00 %
22.02.2016 20:39 12,9 C 45 % 1008,2 hPa 0,0 l/m 8,4 km/h (2 Bft) SW 215 0 min 0,000 mm 0,0 UV-I 0 W/m 1,3 C 11,7 C 12,9 km/h (3 Bft) 95,65 %
22.02.2016 20:40 12,9 C 45 % 1008,2 hPa 0,0 l/m 10,2 km/h (2 Bft) SW 229 0 min 0,000 mm 0,0 UV-I 0 W/m 1,3 C 10,7 C 16,1 km/h (3 Bft) 95,83 %
22.02.2016 20:41 12,9 C 46 % 1008,3 hPa 0,0 l/m 9,3 km/h (2 Bft) SW 228 0 min 0,000 mm 0,0 UV-I 0 W/m 1,6 C 11,2 C 14,5 km/h (3 Bft) 100,00 %
22.02.2016 20:42 12,9 C 46 % 1008,2 hPa 0,0 l/m 7,0 km/h (2 Bft) S-SW 205 0 min 0,000 mm 0,0 UV-I 0 W/m 1,6 C 12,5 C 9,7 km/h (2 Bft) 95,83 %
22.02.2016 20:43 12,9 C 45 % 1008,3 hPa 0,0 l/m 8,5 km/h (2 Bft) SW 225 0 min 0,000 mm 0,0 UV-I 0 W/m 1,3 C 11,6 C 12,9 km/h (3 Bft) 100,00 %
22.02.2016 20:44 12,9 C 45 % 1008,3 hPa 0,0 l/m 8,9 km/h (2 Bft) SW 221 0 min 0,000 mm 0,0 UV-I 0 W/m 1,3 C 11,4 C 16,1 km/h (3 Bft) 96,15 %
22.02.2016 20:45 12,9 C 45 % 1008,3 hPa 0,0 l/m 10,0 km/h (2 Bft) SW 220 0 min 0,000 mm 0,0 UV-I 0 W/m 1,3 C 10,8 C 17,7 km/h (3 Bft) 100,00 %
22.02.2016 20:46 12,9 C 45 % 1008,3 hPa 0,0 l/m 7,4 km/h (2 Bft) SW 236 0 min 0,000 mm 0,0 UV-I 0 W/m 1,3 C 12,3 C 11,3 km/h (2 Bft) 96,15 %
22.02.2016 20:47 12,8 C 45 % 1008,4 hPa 0,0 l/m 8,5 km/h (2 Bft) SW 229 0 min 0,000 mm 0,0 UV-I 0 W/m 1,2 C 11,5 C 9,7 km/h (2 Bft) 100,00 %
22.02.2016 20:48 12,8 C 46 % 1008,3 hPa 0,0 l/m 8,4 km/h (2 Bft) SW 234 0 min 0,000 mm 0,0 UV-I 0 W/m 1,5 C 11,6 C 11,3 km/h (2 Bft) 95,65 %
22.02.2016 20:49 12,7 C 46 % 1008,4 hPa 0,0 l/m 8,7 km/h (2 Bft) SW 232 0 min 0,000 mm 0,0 UV-I 0 W/m 1,4 C 11,3 C 11,3 km/h (2 Bft) 100,00 %
22.02.2016 20:50 12,7 C 47 % 1008,3 hPa 0,0 l/m 8,9 km/h (2 Bft) SW 223 0 min 0,000 mm 0,0 UV-I 0 W/m 1,7 C 11,2 C 11,3 km/h (2 Bft) 94,12 %
22.02.2016 20:51 12,6 C 47 % 1008,3 hPa 0,0 l/m 7,7 km/h (2 Bft) SW 225 0 min 0,000 mm 0,0 UV-I 0 W/m 1,6 C 11,8 C 9,7 km/h (2 Bft) 100,00 %
22.02.2016 20:52 12,5 C 47 % 1008,4 hPa 0,0 l/m 6,0 km/h (2 Bft) SW 225 0 min 0,000 mm 0,0 UV-I 0 W/m 1,5 C 12,5 C 6,4 km/h (2 Bft) 92,31 %
22.02.2016 20:53 12,4 C 47 % 1008,4 hPa 0,0 l/m 6,3 km/h (2 Bft) SW 221 0 min 0,000 mm 0,0 UV-I 0 W/m 1,4 C 12,4 C 8,0 km/h (2 Bft) 92,59 %
22.02.2016 20:54 12,3 C 48 % 1008,4 hPa 0,0 l/m 6,6 km/h (2 Bft) SW 222 0 min 0,000 mm 0,0 UV-I 0 W/m 1,6 C 12,2 C 9,7 km/h (2 Bft) 100,00 %
22.02.2016 20:55 12,3 C 48 % 1008,4 hPa 0,0 l/m 7,0 km/h (2 Bft) S-SW 198 0 min 0,000 mm 0,0 UV-I 0 W/m 1,6 C 11,9 C 9,7 km/h (2 Bft) 95,83 %
22.02.2016 20:56 12,2 C 48 % 1008,5 hPa 0,0 l/m 8,0 km/h (2 Bft) SW 228 0 min 0,000 mm 0,0 UV-I 0 W/m 1,5 C 11,2 C 9,7 km/h (2 Bft) 100,00 %
22.02.2016 20:57 12,2 C 48 % 1008,5 hPa 0,0 l/m 8,7 km/h (2 Bft) S-SW 213 0 min 0,000 mm 0,0 UV-I 0 W/m 1,5 C 10,7 C 11,3 km/h (2 Bft) 91,67 %
22.02.2016 20:58 12,3 C 47 % 1008,5 hPa 0,0 l/m 7,7 km/h (2 Bft) S-SW 198 0 min 0,000 mm 0,0 UV-I 0 W/m 1,3 C 11,5 C 9,7 km/h (2 Bft) 100,00 %
22.02.2016 20:59 12,3 C 48 % 1008,5 hPa 0,0 l/m 8,2 km/h (2 Bft) S-SW 196 0 min 0,000 mm 0,0 UV-I 0 W/m 1,6 C 11,1 C 12,9 km/h (3 Bft) 95,12 %
22.02.2016 21:00 12,3 C 48 % 1008,6 hPa 0,0 l/m 8,0 km/h (2 Bft) S-SW 204 0 min 0,000 mm 0,0 UV-I 0 W/m 1,6 C 11,3 C 12,9 km/h (3 Bft) 100,00 %
22.02.2016 21:01 12,3 C 47 % 1008,5 hPa 0,0 l/m 9,6 km/h (2 Bft) S-SW 213 0 min 0,077 mm 0,0 UV-I 0 W/m 1,3 C 10,3 C 12,9 km/h (3 Bft) 96,55 %
22.02.2016 21:02 12,3 C 47 % 1008,5 hPa 0,0 l/m 9,5 km/h (2 Bft) S-SW 196 0 min 0,000 mm 0,0 UV-I 0 W/m 1,3 C 10,4 C 12,9 km/h (3 Bft) 100,00 %
22.02.2016 21:03 12,4 C 46 % 1008,5 hPa 0,0 l/m 8,3 km/h (2 Bft) S-SW 199 0 min 0,000 mm 0,0 UV-I 0 W/m 1,1 C 11,2 C 9,7 km/h (2 Bft) 100,00 %
22.02.2016 21:04 12,4 C 46 % 1008,6 hPa 0,0 l/m 8,9 km/h (2 Bft) S 191 0 min 0,000 mm 0,0 UV-I 0 W/m 1,1 C 10,8 C 12,9 km/h (3 Bft) 96,55 %
22.02.2016 21:05 12,5 C 46 % 1008,6 hPa 0,0 l/m 9,0 km/h (2 Bft) SW 215 0 min 0,000 mm 0,0 UV-I 0 W/m 1,2 C 10,9 C 12,9 km/h (3 Bft) 100,00 %
22.02.2016 21:06 12,6 C 46 % 1008,6 hPa 0,0 l/m 8,0 km/h (2 Bft) SW 228 0 min 0,000 mm 0,0 UV-I 0 W/m 1,3 C 11,6 C 9,7 km/h (2 Bft) 100,00 %
22.02.2016 21:07 12,5 C 47 % 1008,6 hPa 0,0 l/m 6,7 km/h (2 Bft) S-SW 204 0 min 0,000 mm 0,0 UV-I 0 W/m 1,5 C 12,3 C 11,3 km/h (2 Bft) 100,00 %
22.02.2016 21:08 12,5 C 46 % 1008,5 hPa 0,0 l/m 7,4 km/h (2 Bft) S-SW 198 0 min 0,000 mm 0,0 UV-I 0 W/m 1,2 C 11,9 C 11,3 km/h (2 Bft) 100,00 %
22.02.2016 21:09 12,5 C 46 % 1008,6 hPa 0,0 l/m 9,6 km/h (2 Bft) S-SW 209 0 min 0,000 mm 0,0 UV-I 0 W/m 1,2 C 10,6 C 12,9 km/h (3 Bft) 92,86 %
22.02.2016 21:10 12,6 C 45 % 1008,6 hPa 0,0 l/m 10,6 km/h (2 Bft) S-SW 201 0 min 0,000 mm 0,0 UV-I 0 W/m 1,0 C 10,2 C 16,1 km/h (3 Bft) 100,00 %
22.02.2016 21:11 12,6 C 45 % 1008,6 hPa 0,0 l/m 13,0 km/h (3 Bft) S-SW 192 0 min 0,000 mm 0,0 UV-I 0 W/m 1,0 C 9,1 C 16,1 km/h (3 Bft) 96,15 %
22.02.2016 21:12 12,6 C 46 % 1008,6 hPa 0,0 l/m 12,0 km/h (2 Bft) S-SW 198 0 min 0,000 mm 0,0 UV-I 0 W/m 1,3 C 9,5 C 14,5 km/h (3 Bft) 100,00 %
22.02.2016 21:13 12,6 C 45 % 1008,6 hPa 0,0 l/m 8,6 km/h (2 Bft) S-SW 207 0 min 0,000 mm 0,0 UV-I 0 W/m 1,0 C 11,2 C 11,3 km/h (2 Bft) 95,65 %
22.02.2016 21:14 12,7 C 45 % 1008,6 hPa 0,0 l/m 8,2 km/h (2 Bft) S-SW 193 0 min 0,000 mm 0,0 UV-I 0 W/m 1,1 C 11,6 C 11,3 km/h (2 Bft) 100,00 %
22.02.2016 21:15 12,7 C 46 % 1008,6 hPa 0,0 l/m 11,7 km/h (2 Bft) SW 223 0 min 0,000 mm 0,0 UV-I 0 W/m 1,4 C 9,8 C 16,1 km/h (3 Bft) 100,00 %
22.02.2016 21:16 12,7 C 45 % 1008,7 hPa 0,0 l/m 9,2 km/h (2 Bft) W-SW 240 0 min 0,000 mm 0,0 UV-I 0 W/m 1,1 C 11,0 C 14,5 km/h (3 Bft) 100,00 %
22.02.2016 21:17 12,7 C 45 % 1008,7 hPa 0,0 l/m 9,5 km/h (2 Bft) S-SW 206 0 min 0,000 mm 0,0 UV-I 0 W/m 1,1 C 10,8 C 16,1 km/h (3 Bft) 100,00 %
22.02.2016 21:18 12,7 C 45 % 1008,7 hPa 0,0 l/m 8,7 km/h (2 Bft) S-SW 199 0 min 0,000 mm 0,0 UV-I 0 W/m 1,1 C 11,3 C 12,9 km/h (3 Bft) 100,00 %
22.02.2016 21:19 12,7 C 45 % 1008,7 hPa 0,0 l/m 10,5 km/h (2 Bft) SW 217 0 min 0,000 mm 0,0 UV-I 0 W/m 1,1 C 10,3 C 19,3 km/h (3 Bft) 100,00 %
22.02.2016 21:20 12,7 C 45 % 1008,7 hPa 0,0 l/m 9,3 km/h (2 Bft) S-SW 203 0 min 0,000 mm 0,0 UV-I 0 W/m 1,1 C 10,9 C 11,3 km/h (2 Bft) 100,00 %
22.02.2016 21:21 12,7 C 45 % 1008,7 hPa 0,0 l/m 9,8 km/h (2 Bft) SW 217 0 min 0,000 mm 0,0 UV-I 0 W/m 1,1 C 10,7 C 12,9 km/h (3 Bft) 100,00 %
22.02.2016 21:22 12,8 C 45 % 1008,6 hPa 0,0 l/m 10,8 km/h (2 Bft) S-SW 208 0 min 0,000 mm 0,0 UV-I 0 W/m 1,2 C 10,3 C 16,1 km/h (3 Bft) 100,00 %
22.02.2016 21:23 12,8 C 45 % 1008,6 hPa 0,0 l/m 10,7 km/h (2 Bft) SW 219 0 min 0,000 mm 0,0 UV-I 0 W/m 1,2 C 10,3 C 17,7 km/h (3 Bft) 100,00 %
22.02.2016 21:24 12,7 C 45 % 1008,6 hPa 0,0 l/m 10,2 km/h (2 Bft) S-SW 203 0 min 0,000 mm 0,0 UV-I 0 W/m 1,1 C 10,5 C 14,5 km/h (3 Bft) 100,00 %
22.02.2016 21:25 12,7 C 45 % 1008,6 hPa 0,0 l/m 10,0 km/h (2 Bft) SW 223 0 min 0,000 mm 0,0 UV-I 0 W/m 1,1 C 10,6 C 14,5 km/h (3 Bft) 100,00 %
22.02.2016 21:26 12,7 C 45 % 1008,6 hPa 0,0 l/m 10,7 km/h (2 Bft) S-SW 209 0 min 0,000 mm 0,0 UV-I 0 W/m 1,1 C 10,2 C 17,7 km/h (3 Bft) 100,00 %
22.02.2016 21:27 12,7 C 45 % 1008,6 hPa 0,0 l/m 8,4 km/h (2 Bft) W-SW 240 0 min 0,000 mm 0,0 UV-I 0 W/m 1,1 C 11,5 C 12,9 km/h (3 Bft) 100,00 %
22.02.2016 21:28 12,7 C 46 % 1008,6 hPa 0,0 l/m 12,4 km/h (3 Bft) SW 233 0 min 0,000 mm 0,0 UV-I 0 W/m 1,4 C 9,4 C 14,5 km/h (3 Bft) 100,00 %
22.02.2016 21:29 12,7 C 46 % 1008,6 hPa 0,0 l/m 11,3 km/h (2 Bft) SW 217 0 min 0,000 mm 0,0 UV-I 0 W/m 1,4 C 9,9 C 14,5 km/h (3 Bft) 100,00 %
22.02.2016 21:30 12,6 C 46 % 1008,7 hPa 0,0 l/m 10,5 km/h (2 Bft) SW 234 0 min 0,000 mm 0,0 UV-I 0 W/m 1,3 C 10,2 C 16,1 km/h (3 Bft) 96,55 %
22.02.2016 21:31 12,5 C 47 % 1008,8 hPa 0,0 l/m 8,8 km/h (2 Bft) S-SW 205 0 min 0,000 mm 0,0 UV-I 0 W/m 1,5 C 11,0 C 11,3 km/h (2 Bft) 100,00 %
22.02.2016 21:32 12,4 C 47 % 1008,8 hPa 0,0 l/m 8,9 km/h (2 Bft) S-SW 196 0 min 0,000 mm 0,0 UV-I 0 W/m 1,4 C 10,8 C 11,3 km/h (2 Bft) 100,00 %
22.02.2016 21:33 12,4 C 47 % 1008,8 hPa 0,0 l/m 10,5 km/h (2 Bft) SW 224 0 min 0,000 mm 0,0 UV-I 0 W/m 1,4 C 10,0 C 14,5 km/h (3 Bft) 96,67 %
22.02.2016 21:34 12,4 C 47 % 1008,8 hPa 0,0 l/m 10,7 km/h (2 Bft) W-SW 255 0 min 0,000 mm 0,0 UV-I 0 W/m 1,4 C 9,9 C 14,5 km/h (3 Bft) 100,00 %
22.02.2016 21:35 12,4 C 47 % 1008,7 hPa 0,0 l/m 9,0 km/h (2 Bft) SW 225 0 min 0,000 mm 0,0 UV-I 0 W/m 1,4 C 10,8 C 12,9 km/h (3 Bft) 100,00 %
22.02.2016 21:36 12,4 C 47 % 1008,8 hPa 0,0 l/m 9,3 km/h (2 Bft) S-SW 209 0 min 0,000 mm 0,0 UV-I 0 W/m 1,4 C 10,6 C 14,5 km/h (3 Bft) 95,65 %
22.02.2016 21:37 12,4 C 48 % 1008,8 hPa 0,0 l/m 9,1 km/h (2 Bft) SW 236 0 min 0,000 mm 0,0 UV-I 0 W/m 1,7 C 10,7 C 12,9 km/h (3 Bft) 96,30 %
22.02.2016 21:38 12,4 C 48 % 1008,8 hPa 0,0 l/m 10,8 km/h (2 Bft) SW 223 0 min 0,000 mm 0,0 UV-I 0 W/m 1,7 C 9,8 C 12,9 km/h (3 Bft) 100,00 %
22.02.2016 21:39 12,3 C 48 % 1008,8 hPa 0,0 l/m 8,6 km/h (2 Bft) SW 217 0 min 0,000 mm 0,0 UV-I 0 W/m 1,6 C 10,9 C 12,9 km/h (3 Bft) 100,00 %
22.02.2016 21:40 12,3 C 48 % 1008,8 hPa 0,0 l/m 8,2 km/h (2 Bft) S-SW 195 0 min 0,000 mm 0,0 UV-I 0 W/m 1,6 C 11,1 C 11,3 km/h (2 Bft) 100,00 %
22.02.2016 21:41 12,3 C 47 % 1008,8 hPa 0,0 l/m 9,9 km/h (2 Bft) S-SW 205 0 min 0,000 mm 0,0 UV-I 0 W/m 1,3 C 10,2 C 14,5 km/h (3 Bft) 95,83 %
22.02.2016 21:42 12,4 C 47 % 1008,7 hPa 0,0 l/m 8,7 km/h (2 Bft) SW 234 0 min 0,000 mm 0,0 UV-I 0 W/m 1,4 C 11,0 C 12,9 km/h (3 Bft) 96,15 %
22.02.2016 21:43 12,4 C 46 % 1008,7 hPa 0,0 l/m 13,5 km/h (3 Bft) S-SW 202 0 min 0,000 mm 0,0 UV-I 0 W/m 1,1 C 8,6 C 19,3 km/h (3 Bft) 100,00 %
22.02.2016 21:44 12,6 C 46 % 1008,7 hPa 0,0 l/m 12,2 km/h (2 Bft) S-SW 213 0 min 0,000 mm 0,0 UV-I 0 W/m 1,3 C 9,4 C 17,7 km/h (3 Bft) 100,00 %
22.02.2016 21:45 12,7 C 45 % 1008,7 hPa 0,0 l/m 9,7 km/h (2 Bft) SW 225 0 min 0,000 mm 0,0 UV-I 0 W/m 1,1 C 10,7 C 19,3 km/h (3 Bft) 100,00 %
22.02.2016 21:46 12,8 C 45 % 1008,7 hPa 0,0 l/m 8,9 km/h (2 Bft) SW 232 0 min 0,000 mm 0,0 UV-I 0 W/m 1,2 C 11,3 C 12,9 km/h (3 Bft) 100,00 %
22.02.2016 21:47 12,8 C 46 % 1008,7 hPa 0,0 l/m 8,6 km/h (2 Bft) S-SW 208 0 min 0,000 mm 0,0 UV-I 0 W/m 1,5 C 11,4 C 16,1 km/h (3 Bft) 95,65 %
22.02.2016 21:48 12,9 C 45 % 1008,8 hPa 0,0 l/m 12,7 km/h (3 Bft) SW 223 0 min 0,000 mm 0,0 UV-I 0 W/m 1,3 C 9,6 C 17,7 km/h (3 Bft) 100,00 %
22.02.2016 21:49 12,9 C 45 % 1008,8 hPa 0,0 l/m 9,4 km/h (2 Bft) S-SW 209 0 min 0,000 mm 0,0 UV-I 0 W/m 1,3 C 11,1 C 14,5 km/h (3 Bft) 100,00 %
22.02.2016 21:50 12,9 C 45 % 1008,7 hPa 0,0 l/m 14,2 km/h (3 Bft) SW 225 0 min 0,000 mm 0,0 UV-I 0 W/m 1,3 C 8,9 C 16,1 km/h (3 Bft) 100,00 %
22.02.2016 21:51 12,9 C 45 % 1008,7 hPa 0,0 l/m 9,1 km/h (2 Bft) W-SW 242 0 min 0,000 mm 0,0 UV-I 0 W/m 1,3 C 11,3 C 12,9 km/h (3 Bft) 100,00 %
22.02.2016 21:52 12,9 C 44 % 1008,7 hPa 0,0 l/m 11,7 km/h (2 Bft) S 171 0 min 0,000 mm 0,0 UV-I 0 W/m 1,0 C 10,0 C 14,5 km/h (3 Bft) 100,00 %
22.02.2016 21:53 13,0 C 45 % 1008,7 hPa 0,0 l/m 7,9 km/h (2 Bft) SW 219 0 min 0,000 mm 0,0 UV-I 0 W/m 1,4 C 12,1 C 11,3 km/h (2 Bft) 95,65 %
22.02.2016 21:54 13,0 C 44 % 1008,7 hPa 0,0 l/m 12,9 km/h (3 Bft) S-SW 207 0 min 0,000 mm 0,0 UV-I 0 W/m 1,0 C 9,6 C 16,1 km/h (3 Bft) 100,00 %
22.02.2016 21:55 13,1 C 44 % 1008,7 hPa 0,0 l/m 10,6 km/h (2 Bft) W-SW 240 0 min 0,000 mm 0,0 UV-I 0 W/m 1,1 C 10,7 C 16,1 km/h (3 Bft) 100,00 %
22.02.2016 21:56 13,1 C 44 % 1008,7 hPa 0,0 l/m 9,1 km/h (2 Bft) S-SW 209 0 min 0,000 mm 0,0 UV-I 0 W/m 1,1 C 11,5 C 11,3 km/h (2 Bft) 100,00 %
22.02.2016 21:57 13,2 C 44 % 1008,8 hPa 0,0 l/m 10,3 km/h (2 Bft) W-SW 255 0 min 0,000 mm 0,0 UV-I 0 W/m 1,2 C 11,0 C 16,1 km/h (3 Bft) 100,00 %
22.02.2016 21:58 13,2 C 44 % 1008,8 hPa 0,0 l/m 9,3 km/h (2 Bft) W-SW 247 0 min 0,000 mm 0,0 UV-I 0 W/m 1,2 C 11,5 C 11,3 km/h (2 Bft) 100,00 %
22.02.2016 21:59 13,2 C 44 % 1008,8 hPa 0,0 l/m 10,5 km/h (2 Bft) S-SW 199 0 min 0,000 mm 0,0 UV-I 0 W/m 1,2 C 10,9 C 12,9 km/h (3 Bft) 95,65 %
22.02.2016 22:00 13,1 C 45 % 1008,8 hPa 0,0 l/m 9,8 km/h (2 Bft) S-SO 164 0 min 0,000 mm 0,0 UV-I 0 W/m 1,4 C 11,1 C 14,5 km/h (3 Bft) 100,00 %
22.02.2016 22:02 13,1 C 45 % 1008,8 hPa 0,0 l/m 10,8 km/h (2 Bft) SW 221 0 min 0,076 mm 0,0 UV-I 0 W/m 1,4 C 10,6 C 16,1 km/h (3 Bft) 98,31 %
22.02.2016 22:03 13,0 C 46 % 1008,8 hPa 0,0 l/m 9,5 km/h (2 Bft) SW 227 0 min 0,000 mm 0,0 UV-I 0 W/m 1,7 C 11,2 C 16,1 km/h (3 Bft) 100,00 %
22.02.2016 22:04 12,9 C 45 % 1008,8 hPa 0,0 l/m 8,0 km/h (2 Bft) SW 231 0 min 0,000 mm 0,0 UV-I 0 W/m 1,3 C 11,9 C 9,7 km/h (2 Bft) 100,00 %
22.02.2016 22:05 12,9 C 45 % 1008,8 hPa 0,0 l/m 11,9 km/h (2 Bft) SW 236 0 min 0,000 mm 0,0 UV-I 0 W/m 1,3 C 9,9 C 16,1 km/h (3 Bft) 100,00 %
22.02.2016 22:06 12,9 C 46 % 1008,8 hPa 0,0 l/m 10,2 km/h (2 Bft) SW 234 0 min 0,000 mm 0,0 UV-I 0 W/m 1,6 C 10,7 C 12,9 km/h (3 Bft) 96,88 %
22.02.2016 22:07 12,9 C 46 % 1008,8 hPa 0,0 l/m 11,0 km/h (2 Bft) W 261 0 min 0,000 mm 0,0 UV-I 0 W/m 1,6 C 10,3 C 14,5 km/h (3 Bft) 100,00 %
22.02.2016 22:08 12,8 C 46 % 1008,8 hPa 0,0 l/m 13,5 km/h (3 Bft) SW 235 0 min 0,000 mm 0,0 UV-I 0 W/m 1,5 C 9,1 C 16,1 km/h (3 Bft) 100,00 %
22.02.2016 22:09 12,8 C 46 % 1008,8 hPa 0,0 l/m 10,7 km/h (2 Bft) SW 227 0 min 0,000 mm 0,0 UV-I 0 W/m 1,5 C 10,3 C 16,1 km/h (3 Bft) 100,00 %
22.02.2016 22:10 12,8 C 46 % 1008,7 hPa 0,0 l/m 9,3 km/h (2 Bft) SW 230 0 min 0,000 mm 0,0 UV-I 0 W/m 1,5 C 11,1 C 14,5 km/h (3 Bft) 100,00 %
22.02.2016 22:11 12,8 C 46 % 1008,7 hPa 0,0 l/m 11,0 km/h (2 Bft) S-SW 196 0 min 0,000 mm 0,0 UV-I 0 W/m 1,5 C 10,2 C 14,5 km/h (3 Bft) 100,00 %
22.02.2016 22:12 12,8 C 46 % 1008,7 hPa 0,0 l/m 10,4 km/h (2 Bft) SW 231 0 min 0,000 mm 0,0 UV-I 0 W/m 1,5 C 10,5 C 16,1 km/h (3 Bft) 100,00 %
22.02.2016 22:13 12,8 C 46 % 1008,6 hPa 0,0 l/m 11,0 km/h (2 Bft) SW 225 0 min 0,000 mm 0,0 UV-I 0 W/m 1,5 C 10,2 C 14,5 km/h (3 Bft) 100,00 %
22.02.2016 22:14 12,8 C 46 % 1008,7 hPa 0,0 l/m 8,3 km/h (2 Bft) SW 217 0 min 0,000 mm 0,0 UV-I 0 W/m 1,5 C 11,6 C 11,3 km/h (2 Bft) 100,00 %
22.02.2016 22:15 12,8 C 46 % 1008,7 hPa 0,0 l/m 9,6 km/h (2 Bft) W-SW 246 0 min 0,000 mm 0,0 UV-I 0 W/m 1,5 C 10,9 C 14,5 km/h (3 Bft) 100,00 %
22.02.2016 22:16 12,8 C 46 % 1008,6 hPa 0,0 l/m 10,3 km/h (2 Bft) SW 221 0 min 0,000 mm 0,0 UV-I 0 W/m 1,5 C 10,5 C 12,9 km/h (3 Bft) 96,15 %
22.02.2016 22:17 12,7 C 46 % 1008,7 hPa 0,0 l/m 10,2 km/h (2 Bft) W-SW 251 0 min 0,000 mm 0,0 UV-I 0 W/m 1,4 C 10,5 C 12,9 km/h (3 Bft) 100,00 %
22.02.2016 22:18 12,7 C 46 % 1008,7 hPa 0,0 l/m 9,4 km/h (2 Bft) S-SW 207 0 min 0,000 mm 0,0 UV-I 0 W/m 1,4 C 10,9 C 12,9 km/h (3 Bft) 96,15 %
22.02.2016 22:19 12,7 C 46 % 1008,8 hPa 0,0 l/m 9,7 km/h (2 Bft) SW 234 0 min 0,000 mm 0,0 UV-I 0 W/m 1,4 C 10,7 C 12,9 km/h (3 Bft) 100,00 %
22.02.2016 22:20 12,7 C 47 % 1008,7 hPa 0,0 l/m 11,0 km/h (2 Bft) SW 234 0 min 0,000 mm 0,0 UV-I 0 W/m 1,7 C 10,1 C 16,1 km/h (3 Bft) 100,00 %
22.02.2016 22:21 12,7 C 47 % 1008,7 hPa 0,0 l/m 11,3 km/h (2 Bft) SW 232 0 min 0,000 mm 0,0 UV-I 0 W/m 1,7 C 9,9 C 16,1 km/h (3 Bft) 100,00 %
22.02.2016 22:22 12,6 C 47 % 1008,7 hPa 0,0 l/m 11,7 km/h (2 Bft) SW 236 0 min 0,000 mm 0,0 UV-I 0 W/m 1,6 C 9,6 C 16,1 km/h (3 Bft) 100,00 %
22.02.2016 22:23 12,6 C 47 % 1008,7 hPa 0,0 l/m 9,6 km/h (2 Bft) SW 233 0 min 0,000 mm 0,0 UV-I 0 W/m 1,6 C 10,7 C 16,1 km/h (3 Bft) 96,15 %
22.02.2016 22:24 12,5 C 48 % 1008,7 hPa 0,0 l/m 9,3 km/h (2 Bft) S-SW 210 0 min 0,000 mm 0,0 UV-I 0 W/m 1,8 C 10,7 C 12,9 km/h (3 Bft) 100,00 %
22.02.2016 22:25 12,5 C 48 % 1008,7 hPa 0,0 l/m 10,2 km/h (2 Bft) SW 225 0 min 0,000 mm 0,0 UV-I 0 W/m 1,8 C 10,3 C 12,9 km/h (3 Bft) 92,31 %
22.02.2016 22:26 12,4 C 47 % 1008,6 hPa 0,0 l/m 10,7 km/h (2 Bft) W-SW 237 0 min 0,000 mm 0,0 UV-I 0 W/m 1,4 C 9,9 C 14,5 km/h (3 Bft) 100,00 %
22.02.2016 22:27 12,4 C 47 % 1008,7 hPa 0,0 l/m 9,6 km/h (2 Bft) W-SW 252 0 min 0,000 mm 0,0 UV-I 0 W/m 1,4 C 10,5 C 12,9 km/h (3 Bft) 100,00 %
22.02.2016 22:28 12,4 C 47 % 1008,6 hPa 0,0 l/m 7,9 km/h (2 Bft) SW 214 0 min 0,000 mm 0,0 UV-I 0 W/m 1,4 C 11,4 C 11,3 km/h (2 Bft) 93,33 %
22.02.2016 22:29 12,4 C 46 % 1008,7 hPa 0,0 l/m 7,2 km/h (2 Bft) SW 216 0 min 0,000 mm 0,0 UV-I 0 W/m 1,1 C 11,9 C 12,9 km/h (3 Bft) 97,37 %
22.02.2016 22:30 12,4 C 46 % 1008,7 hPa 0,0 l/m 7,3 km/h (2 Bft) SW 230 0 min 0,000 mm 0,0 UV-I 0 W/m 1,1 C 11,8 C 11,3 km/h (2 Bft) 93,33 %
22.02.2016 22:33 12,5 C 46 % 1008,7 hPa 0,0 l/m 7,9 km/h (2 Bft) S-SW 208 0 min 0,000 mm 0,0 UV-I 0 W/m 1,2 C 11,5 C 12,9 km/h (3 Bft) 97,50 %
22.02.2016 22:34 12,5 C 46 % 1008,7 hPa 0,0 l/m 9,2 km/h (2 Bft) S 184 0 min 0,000 mm 0,0 UV-I 0 W/m 1,2 C 10,8 C 12,9 km/h (3 Bft) 100,00 %
22.02.2016 22:35 12,5 C 46 % 1008,6 hPa 0,0 l/m 8,6 km/h (2 Bft) SW 221 0 min 0,000 mm 0,0 UV-I 0 W/m 1,2 C 11,1 C 12,9 km/h (3 Bft) 96,55 %
22.02.2016 22:36 12,6 C 46 % 1008,6 hPa 0,0 l/m 11,1 km/h (2 Bft) SW 225 0 min 0,000 mm 0,0 UV-I 0 W/m 1,3 C 9,9 C 14,5 km/h (3 Bft) 100,00 %
22.02.2016 22:37 12,6 C 46 % 1008,6 hPa 0,0 l/m 11,0 km/h (2 Bft) SW 229 0 min 0,000 mm 0,0 UV-I 0 W/m 1,3 C 10,0 C 12,9 km/h (3 Bft) 95,65 %
22.02.2016 22:38 12,6 C 46 % 1008,6 hPa 0,0 l/m 9,6 km/h (2 Bft) S-SW 194 0 min 0,000 mm 0,0 UV-I 0 W/m 1,3 C 10,7 C 19,3 km/h (3 Bft) 100,00 %
22.02.2016 22:39 12,6 C 45 % 1008,6 hPa 0,0 l/m 7,4 km/h (2 Bft) SW 221 0 min 0,000 mm 0,0 UV-I 0 W/m 1,0 C 12,0 C 9,7 km/h (2 Bft) 96,55 %
22.02.2016 22:40 12,7 C 45 % 1008,5 hPa 0,0 l/m 10,5 km/h (2 Bft) S 188 0 min 0,000 mm 0,0 UV-I 0 W/m 1,1 C 10,3 C 14,5 km/h (3 Bft) 100,00 %
22.02.2016 22:41 12,7 C 45 % 1008,6 hPa 0,0 l/m 11,0 km/h (2 Bft) SW 225 0 min 0,000 mm 0,0 UV-I 0 W/m 1,1 C 10,1 C 14,5 km/h (3 Bft) 96,30 %
22.02.2016 22:42 12,7 C 45 % 1008,6 hPa 0,0 l/m 10,9 km/h (2 Bft) S-SW 200 0 min 0,000 mm 0,0 UV-I 0 W/m 1,1 C 10,1 C 12,9 km/h (3 Bft) 96,15 %
22.02.2016 22:43 12,7 C 45 % 1008,6 hPa 0,0 l/m 10,5 km/h (2 Bft) S-SW 207 0 min 0,000 mm 0,0 UV-I 0 W/m 1,1 C 10,3 C 14,5 km/h (3 Bft) 100,00 %
22.02.2016 22:44 12,8 C 45 % 1008,7 hPa 0,0 l/m 6,8 km/h (2 Bft) W-SW 246 0 min 0,000 mm 0,0 UV-I 0 W/m 1,2 C 12,6 C 11,3 km/h (2 Bft) 96,15 %
22.02.2016 22:45 12,8 C 45 % 1008,6 hPa 0,0 l/m 8,4 km/h (2 Bft) S-SO 168 0 min 0,000 mm 0,0 UV-I 0 W/m 1,2 C 11,6 C 12,9 km/h (3 Bft) 100,00 %
22.02.2016 22:46 12,7 C 45 % 1008,6 hPa 0,0 l/m 9,5 km/h (2 Bft) W-SW 242 0 min 0,000 mm 0,0 UV-I 0 W/m 1,1 C 10,8 C 12,9 km/h (3 Bft) 95,65 %
22.02.2016 22:47 12,7 C 45 % 1008,5 hPa 0,0 l/m 9,3 km/h (2 Bft) S 186 0 min 0,000 mm 0,0 UV-I 0 W/m 1,1 C 10,9 C 14,5 km/h (3 Bft) 100,00 %
22.02.2016 22:48 12,7 C 45 % 1008,5 hPa 0,0 l/m 10,2 km/h (2 Bft) SW 227 0 min 0,000 mm 0,0 UV-I 0 W/m 1,1 C 10,5 C 16,1 km/h (3 Bft) 92,86 %
22.02.2016 22:49 12,7 C 46 % 1008,5 hPa 0,0 l/m 8,5 km/h (2 Bft) SW 223 0 min 0,000 mm 0,0 UV-I 0 W/m 1,4 C 11,4 C 11,3 km/h (2 Bft) 100,00 %
22.02.2016 22:50 12,7 C 46 % 1008,5 hPa 0,0 l/m 8,0 km/h (2 Bft) SW 225 0 min 0,000 mm 0,0 UV-I 0 W/m 1,4 C 11,7 C 11,3 km/h (2 Bft) 96,15 %
22.02.2016 22:51 12,6 C 46 % 1008,5 hPa 0,0 l/m 12,8 km/h (3 Bft) SW 215 0 min 0,000 mm 0,0 UV-I 0 W/m 1,3 C 9,2 C 14,5 km/h (3 Bft) 96,30 %
22.02.2016 22:52 12,7 C 46 % 1008,5 hPa 0,0 l/m 11,8 km/h (2 Bft) SW 221 0 min 0,000 mm 0,0 UV-I 0 W/m 1,4 C 9,7 C 19,3 km/h (3 Bft) 100,00 %
22.02.2016 22:53 12,6 C 46 % 1008,5 hPa 0,0 l/m 8,7 km/h (2 Bft) SW 219 0 min 0,000 mm 0,0 UV-I 0 W/m 1,3 C 11,2 C 14,5 km/h (3 Bft) 96,67 %
22.02.2016 22:54 12,6 C 46 % 1008,4 hPa 0,0 l/m 6,5 km/h (2 Bft) S-SW 204 0 min 0,000 mm 0,0 UV-I 0 W/m 1,3 C 12,6 C 9,7 km/h (2 Bft) 100,00 %
22.02.2016 22:55 12,6 C 46 % 1008,4 hPa 0,0 l/m 8,6 km/h (2 Bft) S-SW 208 0 min 0,000 mm 0,0 UV-I 0 W/m 1,3 C 11,2 C 9,7 km/h (2 Bft) 96,55 %
22.02.2016 22:56 12,6 C 46 % 1008,4 hPa 0,0 l/m 9,7 km/h (2 Bft) SW 223 0 min 0,000 mm 0,0 UV-I 0 W/m 1,3 C 10,6 C 16,1 km/h (3 Bft) 100,00 %
22.02.2016 22:57 12,6 C 46 % 1008,5 hPa 0,0 l/m 10,0 km/h (2 Bft) S-SW 209 0 min 0,000 mm 0,0 UV-I 0 W/m 1,3 C 10,5 C 12,9 km/h (3 Bft) 95,83 %
22.02.2016 22:58 12,6 C 46 % 1008,5 hPa 0,0 l/m 10,1 km/h (2 Bft) S-SW 192 0 min 0,000 mm 0,0 UV-I 0 W/m 1,3 C 10,4 C 16,1 km/h (3 Bft) 100,00 %
22.02.2016 22:59 12,6 C 46 % 1008,5 hPa 0,0 l/m 9,5 km/h (2 Bft) S-SW 200 0 min 0,000 mm 0,0 UV-I 0 W/m 1,3 C 10,7 C 12,9 km/h (3 Bft) 96,30 %
22.02.2016 23:00 12,6 C 47 % 1008,5 hPa 0,0 l/m 9,0 km/h (2 Bft) S-SW 205 0 min 0,000 mm 0,0 UV-I 0 W/m 1,6 C 11,0 C 12,9 km/h (3 Bft) 95,65 %
22.02.2016 23:01 12,6 C 47 % 1008,4 hPa 0,0 l/m 9,0 km/h (2 Bft) S 183 0 min 0,076 mm 0,0 UV-I 0 W/m 1,6 C 11,0 C 14,5 km/h (3 Bft) 100,00 %
22.02.2016 23:02 12,6 C 47 % 1008,5 hPa 0,0 l/m 8,7 km/h (2 Bft) SW 222 0 min 0,000 mm 0,0 UV-I 0 W/m 1,6 C 11,2 C 12,9 km/h (3 Bft) 96,30 %
22.02.2016 23:03 12,6 C 46 % 1008,4 hPa 0,0 l/m 8,0 km/h (2 Bft) S-SW 209 0 min 0,000 mm 0,0 UV-I 0 W/m 1,3 C 11,6 C 11,3 km/h (2 Bft) 100,00 %
22.02.2016 23:04 12,6 C 47 % 1008,4 hPa 0,0 l/m 8,4 km/h (2 Bft) S-SW 203 0 min 0,000 mm 0,0 UV-I 0 W/m 1,6 C 11,3 C 12,9 km/h (3 Bft) 92,59 %
22.02.2016 23:05 12,6 C 46 % 1008,4 hPa 0,0 l/m 10,5 km/h (2 Bft) S-SO 166 0 min 0,000 mm 0,0 UV-I 0 W/m 1,3 C 10,2 C 14,5 km/h (3 Bft) 100,00 %
22.02.2016 23:06 12,6 C 47 % 1008,4 hPa 0,0 l/m 10,0 km/h (2 Bft) W-SW 240 0 min 0,000 mm 0,0 UV-I 0 W/m 1,6 C 10,5 C 14,5 km/h (3 Bft) 95,83 %
22.02.2016 23:07 12,6 C 47 % 1008,4 hPa 0,0 l/m 10,4 km/h (2 Bft) S-SW 202 0 min 0,000 mm 0,0 UV-I 0 W/m 1,6 C 10,3 C 14,5 km/h (3 Bft) 100,00 %
22.02.2016 23:08 12,6 C 47 % 1008,3 hPa 0,0 l/m 8,6 km/h (2 Bft) S 191 0 min 0,000 mm 0,0 UV-I 0 W/m 1,6 C 11,2 C 14,5 km/h (3 Bft) 100,00 %
22.02.2016 23:09 12,6 C 47 % 1008,3 hPa 0,0 l/m 9,6 km/h (2 Bft) S 182 0 min 0,000 mm 0,0 UV-I 0 W/m 1,6 C 10,7 C 12,9 km/h (3 Bft) 95,65 %
22.02.2016 23:10 12,6 C 47 % 1008,4 hPa 0,0 l/m 9,1 km/h (2 Bft) S 183 0 min 0,000 mm 0,0 UV-I 0 W/m 1,6 C 10,9 C 12,9 km/h (3 Bft) 100,00 %
22.02.2016 23:12 12,6 C 47 % 1008,4 hPa 0,0 l/m 9,4 km/h (2 Bft) SW 219 0 min 0,000 mm 0,0 UV-I 0 W/m 1,6 C 10,8 C 11,3 km/h (2 Bft) 96,55 %
22.02.2016 23:13 12,5 C 48 % 1008,3 hPa 0,0 l/m 8,4 km/h (2 Bft) SW 219 0 min 0,000 mm 0,0 UV-I 0 W/m 1,8 C 11,2 C 12,9 km/h (3 Bft) 100,00 %
22.02.2016 23:14 12,5 C 48 % 1008,3 hPa 0,0 l/m 7,3 km/h (2 Bft) SW 229 0 min 0,000 mm 0,0 UV-I 0 W/m 1,8 C 11,9 C 11,3 km/h (2 Bft) 100,00 %
22.02.2016 23:15 12,5 C 48 % 1008,2 hPa 0,0 l/m 7,4 km/h (2 Bft) SW 227 0 min 0,000 mm 0,0 UV-I 0 W/m 1,8 C 11,9 C 11,3 km/h (2 Bft) 96,67 %
22.02.2016 23:16 12,5 C 48 % 1008,2 hPa 0,0 l/m 9,9 km/h (2 Bft) SW 225 0 min 0,000 mm 0,0 UV-I 0 W/m 1,8 C 10,4 C 14,5 km/h (3 Bft) 91,30 %
22.02.2016 23:17 12,4 C 48 % 1008,2 hPa 0,0 l/m 7,5 km/h (2 Bft) SW 227 0 min 0,000 mm 0,0 UV-I 0 W/m 1,7 C 11,7 C 11,3 km/h (2 Bft) 100,00 %
22.02.2016 23:18 12,4 C 48 % 1008,2 hPa 0,0 l/m 9,6 km/h (2 Bft) SW 233 0 min 0,000 mm 0,0 UV-I 0 W/m 1,7 C 10,5 C 12,9 km/h (3 Bft) 94,12 %
22.02.2016 23:19 12,3 C 49 % 1008,2 hPa 0,0 l/m 9,1 km/h (2 Bft) SW 223 0 min 0,000 mm 0,0 UV-I 0 W/m 1,9 C 10,6 C 12,9 km/h (3 Bft) 100,00 %
22.02.2016 23:20 12,3 C 48 % 1008,2 hPa 0,0 l/m 8,9 km/h (2 Bft) SW 223 0 min 0,000 mm 0,0 UV-I 0 W/m 1,6 C 10,7 C 11,3 km/h (2 Bft) 100,00 %
22.02.2016 23:21 12,3 C 49 % 1008,2 hPa 0,0 l/m 8,0 km/h (2 Bft) SW 219 0 min 0,000 mm 0,0 UV-I 0 W/m 1,9 C 11,3 C 11,3 km/h (2 Bft) 100,00 %
22.02.2016 23:22 12,3 C 49 % 1008,2 hPa 0,0 l/m 9,6 km/h (2 Bft) S-SW 207 0 min 0,000 mm 0,0 UV-I 0 W/m 1,9 C 10,3 C 14,5 km/h (3 Bft) 96,15 %
22.02.2016 23:23 12,2 C 50 % 1008,2 hPa 0,0 l/m 9,0 km/h (2 Bft) SW 236 0 min 0,000 mm 0,0 UV-I 0 W/m 2,1 C 10,6 C 12,9 km/h (3 Bft) 100,00 %
22.02.2016 23:24 12,2 C 49 % 1008,2 hPa 0,0 l/m 7,1 km/h (2 Bft) S-SW 204 0 min 0,000 mm 0,0 UV-I 0 W/m 1,8 C 11,7 C 9,7 km/h (2 Bft) 100,00 %
22.02.2016 23:25 12,2 C 49 % 1008,2 hPa 0,0 l/m 10,2 km/h (2 Bft) SW 218 0 min 0,000 mm 0,0 UV-I 0 W/m 1,8 C 9,9 C 14,5 km/h (3 Bft) 100,00 %
22.02.2016 23:26 12,2 C 50 % 1008,2 hPa 0,0 l/m 9,5 km/h (2 Bft) SW 223 0 min 0,000 mm 0,0 UV-I 0 W/m 2,1 C 10,3 C 12,9 km/h (3 Bft) 100,00 %
22.02.2016 23:27 12,2 C 49 % 1008,2 hPa 0,0 l/m 8,0 km/h (2 Bft) SW 217 0 min 0,000 mm 0,0 UV-I 0 W/m 1,8 C 11,2 C 14,5 km/h (3 Bft) 100,00 %
22.02.2016 23:28 12,1 C 50 % 1008,2 hPa 0,0 l/m 9,9 km/h (2 Bft) SW 225 0 min 0,000 mm 0,0 UV-I 0 W/m 2,0 C 10,0 C 14,5 km/h (3 Bft) 100,00 %
22.02.2016 23:29 12,0 C 50 % 1008,2 hPa 0,0 l/m 8,8 km/h (2 Bft) W-SW 238 0 min 0,000 mm 0,0 UV-I 0 W/m 1,9 C 10,5 C 16,1 km/h (3 Bft) 100,00 %
22.02.2016 23:30 11,9 C 51 % 1008,2 hPa 0,0 l/m 9,9 km/h (2 Bft) SW 230 0 min 0,000 mm 0,0 UV-I 0 W/m 2,1 C 9,7 C 12,9 km/h (3 Bft) 100,00 %
22.02.2016 23:31 11,9 C 51 % 1008,2 hPa 0,0 l/m 11,5 km/h (2 Bft) SW 236 0 min 0,000 mm 0,0 UV-I 0 W/m 2,1 C 8,9 C 17,7 km/h (3 Bft) 100,00 %
22.02.2016 23:32 11,8 C 51 % 1008,2 hPa 0,0 l/m 10,4 km/h (2 Bft) SW 216 0 min 0,000 mm 0,0 UV-I 0 W/m 2,0 C 9,4 C 14,5 km/h (3 Bft) 100,00 %
22.02.2016 23:33 11,8 C 51 % 1008,2 hPa 0,0 l/m 13,4 km/h (3 Bft) W-SW 252 0 min 0,000 mm 0,0 UV-I 0 W/m 2,0 C 8,0 C 19,3 km/h (3 Bft) 100,00 %
22.02.2016 23:34 11,8 C 52 % 1008,3 hPa 0,0 l/m 14,7 km/h (3 Bft) SW 234 0 min 0,000 mm 0,0 UV-I 0 W/m 2,3 C 7,4 C 16,1 km/h (3 Bft) 100,00 %
22.02.2016 23:35 11,7 C 52 % 1008,3 hPa 0,0 l/m 14,7 km/h (3 Bft) SW 225 0 min 0,000 mm 0,0 UV-I 0 W/m 2,2 C 7,3 C 17,7 km/h (3 Bft) 100,00 %
22.02.2016 23:36 11,7 C 52 % 1008,2 hPa 0,0 l/m 14,5 km/h (3 Bft) SW 230 0 min 0,000 mm 0,0 UV-I 0 W/m 2,2 C 7,4 C 19,3 km/h (3 Bft) 100,00 %
22.02.2016 23:37 11,7 C 52 % 1008,1 hPa 0,0 l/m 12,2 km/h (2 Bft) SW 236 0 min 0,000 mm 0,0 UV-I 0 W/m 2,2 C 8,4 C 17,7 km/h (3 Bft) 100,00 %
22.02.2016 23:38 11,7 C 52 % 1008,1 hPa 0,0 l/m 13,8 km/h (3 Bft) W-SW 241 0 min 0,000 mm 0,0 UV-I 0 W/m 2,2 C 7,7 C 19,3 km/h (3 Bft) 96,30 %
22.02.2016 23:39 11,7 C 52 % 1008,1 hPa 0,0 l/m 16,3 km/h (3 Bft) W-SW 248 0 min 0,000 mm 0,0 UV-I 0 W/m 2,2 C 6,7 C 19,3 km/h (3 Bft) 100,00 %
22.02.2016 23:40 11,8 C 52 % 1008,1 hPa 0,0 l/m 12,8 km/h (3 Bft) SW 214 0 min 0,000 mm 0,0 UV-I 0 W/m 2,3 C 8,2 C 19,3 km/h (3 Bft) 100,00 %
22.02.2016 23:41 11,7 C 53 % 1008,1 hPa 0,0 l/m 14,2 km/h (3 Bft) W-SW 240 0 min 0,000 mm 0,0 UV-I 0 W/m 2,4 C 7,5 C 17,7 km/h (3 Bft) 93,10 %
22.02.2016 23:42 11,7 C 52 % 1008,2 hPa 0,0 l/m 13,0 km/h (3 Bft) SW 215 0 min 0,000 mm 0,0 UV-I 0 W/m 2,2 C 8,0 C 16,1 km/h (3 Bft) 100,00 %
22.02.2016 23:43 11,7 C 52 % 1008,2 hPa 0,0 l/m 16,7 km/h (3 Bft) SW 233 0 min 0,000 mm 0,0 UV-I 0 W/m 2,2 C 6,6 C 20,9 km/h (4 Bft) 100,00 %
22.02.2016 23:44 11,7 C 52 % 1008,3 hPa 0,0 l/m 14,1 km/h (3 Bft) SW 234 0 min 0,000 mm 0,0 UV-I 0 W/m 2,2 C 7,6 C 19,3 km/h (3 Bft) 100,00 %
22.02.2016 23:45 11,8 C 52 % 1008,2 hPa 0,0 l/m 10,1 km/h (2 Bft) W-SW 237 0 min 0,000 mm 0,0 UV-I 0 W/m 2,3 C 9,5 C 12,9 km/h (3 Bft) 100,00 %
22.02.2016 23:46 11,8 C 51 % 1008,2 hPa 0,0 l/m 12,6 km/h (3 Bft) SW 221 0 min 0,000 mm 0,0 UV-I 0 W/m 2,0 C 8,3 C 16,1 km/h (3 Bft) 100,00 %
22.02.2016 23:47 11,8 C 52 % 1008,2 hPa 0,0 l/m 13,1 km/h (3 Bft) SW 231 0 min 0,000 mm 0,0 UV-I 0 W/m 2,3 C 8,1 C 19,3 km/h (3 Bft) 100,00 %
22.02.2016 23:48 11,9 C 52 % 1008,1 hPa 0,0 l/m 8,0 km/h (2 Bft) S-SW 205 0 min 0,000 mm 0,0 UV-I 0 W/m 2,4 C 10,8 C 12,9 km/h (3 Bft) 95,65 %
22.02.2016 23:49 11,9 C 51 % 1008,0 hPa 0,0 l/m 11,1 km/h (2 Bft) SW 232 0 min 0,000 mm 0,0 UV-I 0 W/m 2,1 C 9,1 C 14,5 km/h (3 Bft) 100,00 %
22.02.2016 23:50 11,9 C 51 % 1008,0 hPa 0,0 l/m 11,2 km/h (2 Bft) S-SW 201 0 min 0,000 mm 0,0 UV-I 0 W/m 2,1 C 9,1 C 16,1 km/h (3 Bft) 98,67 %
22.02.2016 23:51 12,0 C 51 % 1008,0 hPa 0,0 l/m 10,7 km/h (2 Bft) S-SW 212 0 min 0,000 mm 0,0 UV-I 0 W/m 2,2 C 9,4 C 16,1 km/h (3 Bft) 97,73 %
22.02.2016 23:52 12,1 C 51 % 1008,0 hPa 0,0 l/m 14,3 km/h (3 Bft) SW 220 0 min 0,000 mm 0,0 UV-I 0 W/m 2,3 C 8,0 C 16,1 km/h (3 Bft) 100,00 %
22.02.2016 23:53 12,1 C 51 % 1008,0 hPa 0,0 l/m 13,0 km/h (3 Bft) W-SW 238 0 min 0,000 mm 0,0 UV-I 0 W/m 2,3 C 8,5 C 17,7 km/h (3 Bft) 100,00 %
22.02.2016 23:54 12,2 C 50 % 1008,0 hPa 0,0 l/m 10,4 km/h (2 Bft) S-SW 211 0 min 0,000 mm 0,0 UV-I 0 W/m 2,1 C 9,8 C 14,5 km/h (3 Bft) 96,15 %
22.02.2016 23:55 12,2 C 50 % 1008,0 hPa 0,0 l/m 12,2 km/h (2 Bft) S-SW 202 0 min 0,000 mm 0,0 UV-I 0 W/m 2,1 C 9,0 C 19,3 km/h (3 Bft) 100,00 %
22.02.2016 23:56 12,3 C 50 % 1008,0 hPa 0,0 l/m 10,9 km/h (2 Bft) S 190 0 min 0,000 mm 0,0 UV-I 0 W/m 2,2 C 9,7 C 16,1 km/h (3 Bft) 100,00 %
22.02.2016 23:57 12,3 C 50 % 1008,1 hPa 0,0 l/m 14,8 km/h (3 Bft) S-SW 213 0 min 0,000 mm 0,0 UV-I 0 W/m 2,2 C 8,0 C 19,3 km/h (3 Bft) 100,00 %
22.02.2016 23:58 12,3 C 50 % 1008,0 hPa 0,0 l/m 13,9 km/h (3 Bft) SW 223 0 min 0,000 mm 0,0 UV-I 0 W/m 2,2 C 8,4 C 22,5 km/h (4 Bft) 100,00 %
22.02.2016 23:59 12,3 C 50 % 1008,0 hPa 0,0 l/m 17,0 km/h (3 Bft) W-SW 238 0 min 0,000 mm 0,0 UV-I 0 W/m 2,2 C 7,2 C 24,1 km/h (4 Bft) 100,00 %
_ Min-Zeit 05:04 15:42 14:50 - 02:18 - - - - - - 20:02 05:56 02:18 18:23
Minimum _ 6,3 C 34 % 1007,7 hPa - 0,0 km/h (0 Bft) - - - - - - 0,3 C 1,6 C 0,0 km/h (0 Bft) 85,71 %
_ Max-Zeit 14:41 02:36 00:00 00:00 15:33 - - 10:13 13:01 12:18 12:18 12:37 14:44 15:24 00:00
Maximum _ 19,3 C 84 % 1013,4 hPa 0,0 l/m 22,7 km/h
W-SW (4 Bft)
- - 3 min 0,280 mm 2,1 UV-I 509 W/m 8,9 C 19,3 C 29,0 km/h
SW (5 Bft)
100,00 %
Durchschnitt _ 12,4 C 60 % 1010,2 hPa #0,0 l/m 8,4 km/h (2 Bft) W-SW - #7:32 h #2,540 mm 1,4 UV-I 284 W/m 4,3 C 10,8 C 12,0 km/h (2 Bft) 98,66 %